<?xml version="1.0" encoding="UTF-8" standalone="no" ?>
<gpx xmlns="http://www.topografix.com/GPX/1/1" xmlns:xsi="http://www.w3.org/2001/XMLSchema-instance" xsi:schemaLocation="http://www.topografix.com/GPX/1/1 http://www.topografix.com/GPX/1/1/gpx.xsd" version="1.1" creator="VisuGPX - https://www.visugpx.com">
  <metadata>
    <name>Balade 03.02.22 - St Joseph &amp;gt; Negreville</name>
    <desc><![CDATA[Sympathique balade accompagnée de ma Rosy et Benjamin avec Samy.]]></desc>
  </metadata>
  <trk>
    <name><![CDATA[Balade 03.02.22 - St Joseph &gt; Negreville_1]]></name>
    <trkseg>
      <trkpt lat="49.53596" lon="-1.53738">
        <ele>76.2</ele>
        <time>2022-02-03T13:45:15Z</time>
      </trkpt>
      <trkpt lat="49.53601" lon="-1.53735">
        <ele>80.5</ele>
        <time>2022-02-03T13:45:20Z</time>
      </trkpt>
      <trkpt lat="49.53606" lon="-1.5374">
        <ele>80.2</ele>
        <time>2022-02-03T13:45:25Z</time>
      </trkpt>
      <trkpt lat="49.53608" lon="-1.53749">
        <ele>80.2</ele>
        <time>2022-02-03T13:45:29Z</time>
      </trkpt>
      <trkpt lat="49.53608" lon="-1.53758">
        <ele>80.2</ele>
        <time>2022-02-03T13:45:32Z</time>
      </trkpt>
      <trkpt lat="49.53609" lon="-1.53767">
        <ele>80.3</ele>
        <time>2022-02-03T13:45:36Z</time>
      </trkpt>
      <trkpt lat="49.53611" lon="-1.53774">
        <ele>80.4</ele>
        <time>2022-02-03T13:45:39Z</time>
      </trkpt>
      <trkpt lat="49.53611" lon="-1.53782">
        <ele>80.1</ele>
        <time>2022-02-03T13:45:44Z</time>
      </trkpt>
      <trkpt lat="49.53614" lon="-1.53789">
        <ele>79.9</ele>
        <time>2022-02-03T13:45:48Z</time>
      </trkpt>
      <trkpt lat="49.53617" lon="-1.53796">
        <ele>79.4</ele>
        <time>2022-02-03T13:45:52Z</time>
      </trkpt>
      <trkpt lat="49.53618" lon="-1.53803">
        <ele>79</ele>
        <time>2022-02-03T13:45:55Z</time>
      </trkpt>
      <trkpt lat="49.5362" lon="-1.53811">
        <ele>78.6</ele>
        <time>2022-02-03T13:45:59Z</time>
      </trkpt>
      <trkpt lat="49.53619" lon="-1.53818">
        <ele>78.1</ele>
        <time>2022-02-03T13:46:02Z</time>
      </trkpt>
      <trkpt lat="49.53619" lon="-1.53826">
        <ele>77.6</ele>
        <time>2022-02-03T13:46:05Z</time>
      </trkpt>
      <trkpt lat="49.53619" lon="-1.53835">
        <ele>77.1</ele>
        <time>2022-02-03T13:46:09Z</time>
      </trkpt>
      <trkpt lat="49.53619" lon="-1.53843">
        <ele>77.3</ele>
        <time>2022-02-03T13:46:13Z</time>
      </trkpt>
      <trkpt lat="49.5362" lon="-1.53852">
        <ele>78</ele>
        <time>2022-02-03T13:46:16Z</time>
      </trkpt>
      <trkpt lat="49.5362" lon="-1.53868">
        <ele>78.6</ele>
        <time>2022-02-03T13:46:23Z</time>
      </trkpt>
      <trkpt lat="49.53619" lon="-1.53875">
        <ele>78.3</ele>
        <time>2022-02-03T13:46:27Z</time>
      </trkpt>
      <trkpt lat="49.53619" lon="-1.53883">
        <ele>78.3</ele>
        <time>2022-02-03T13:46:30Z</time>
      </trkpt>
      <trkpt lat="49.5362" lon="-1.53894">
        <ele>78.6</ele>
        <time>2022-02-03T13:46:34Z</time>
      </trkpt>
      <trkpt lat="49.53623" lon="-1.53901">
        <ele>79</ele>
        <time>2022-02-03T13:46:37Z</time>
      </trkpt>
      <trkpt lat="49.53625" lon="-1.53912">
        <ele>79.6</ele>
        <time>2022-02-03T13:46:43Z</time>
      </trkpt>
      <trkpt lat="49.53627" lon="-1.53921">
        <ele>79.2</ele>
        <time>2022-02-03T13:46:48Z</time>
      </trkpt>
      <trkpt lat="49.53629" lon="-1.53929">
        <ele>78.4</ele>
        <time>2022-02-03T13:46:53Z</time>
      </trkpt>
      <trkpt lat="49.53631" lon="-1.53936">
        <ele>78.1</ele>
        <time>2022-02-03T13:46:56Z</time>
      </trkpt>
      <trkpt lat="49.53632" lon="-1.53967">
        <ele>77.6</ele>
        <time>2022-02-03T13:47:06Z</time>
      </trkpt>
      <trkpt lat="49.53633" lon="-1.53976">
        <ele>78.3</ele>
        <time>2022-02-03T13:47:09Z</time>
      </trkpt>
      <trkpt lat="49.53646" lon="-1.54112">
        <ele>77.1</ele>
        <time>2022-02-03T13:48:05Z</time>
      </trkpt>
      <trkpt lat="49.53647" lon="-1.54121">
        <ele>76.8</ele>
        <time>2022-02-03T13:48:09Z</time>
      </trkpt>
      <trkpt lat="49.53648" lon="-1.54129">
        <ele>76.9</ele>
        <time>2022-02-03T13:48:14Z</time>
      </trkpt>
      <trkpt lat="49.53648" lon="-1.54136">
        <ele>76.8</ele>
        <time>2022-02-03T13:48:16Z</time>
      </trkpt>
      <trkpt lat="49.5365" lon="-1.54144">
        <ele>76.5</ele>
        <time>2022-02-03T13:48:20Z</time>
      </trkpt>
      <trkpt lat="49.53652" lon="-1.5415">
        <ele>76.2</ele>
        <time>2022-02-03T13:48:24Z</time>
      </trkpt>
      <trkpt lat="49.53654" lon="-1.54157">
        <ele>76</ele>
        <time>2022-02-03T13:48:27Z</time>
      </trkpt>
      <trkpt lat="49.53655" lon="-1.54164">
        <ele>75.6</ele>
        <time>2022-02-03T13:48:30Z</time>
      </trkpt>
      <trkpt lat="49.53656" lon="-1.54179">
        <ele>74.7</ele>
        <time>2022-02-03T13:48:37Z</time>
      </trkpt>
      <trkpt lat="49.53658" lon="-1.54186">
        <ele>74.6</ele>
        <time>2022-02-03T13:48:41Z</time>
      </trkpt>
      <trkpt lat="49.5366" lon="-1.54193">
        <ele>74.4</ele>
        <time>2022-02-03T13:48:44Z</time>
      </trkpt>
      <trkpt lat="49.53662" lon="-1.542">
        <ele>73.9</ele>
        <time>2022-02-03T13:48:47Z</time>
      </trkpt>
      <trkpt lat="49.5366" lon="-1.54319">
        <ele>67.8</ele>
        <time>2022-02-03T13:49:35Z</time>
      </trkpt>
      <trkpt lat="49.53657" lon="-1.54325">
        <ele>67.6</ele>
        <time>2022-02-03T13:49:38Z</time>
      </trkpt>
      <trkpt lat="49.53653" lon="-1.54332">
        <ele>67.1</ele>
        <time>2022-02-03T13:49:42Z</time>
      </trkpt>
      <trkpt lat="49.5365" lon="-1.54338">
        <ele>66.7</ele>
        <time>2022-02-03T13:49:44Z</time>
      </trkpt>
      <trkpt lat="49.53647" lon="-1.54344">
        <ele>66.7</ele>
        <time>2022-02-03T13:49:49Z</time>
      </trkpt>
      <trkpt lat="49.53644" lon="-1.5435">
        <ele>66.9</ele>
        <time>2022-02-03T13:49:52Z</time>
      </trkpt>
      <trkpt lat="49.53635" lon="-1.54365">
        <ele>65.2</ele>
        <time>2022-02-03T13:50:00Z</time>
      </trkpt>
      <trkpt lat="49.53631" lon="-1.5437">
        <ele>64</ele>
        <time>2022-02-03T13:50:07Z</time>
      </trkpt>
      <trkpt lat="49.53627" lon="-1.54372">
        <ele>63.3</ele>
        <time>2022-02-03T13:50:18Z</time>
      </trkpt>
      <trkpt lat="49.53622" lon="-1.54376">
        <ele>62.9</ele>
        <time>2022-02-03T13:50:22Z</time>
      </trkpt>
      <trkpt lat="49.53617" lon="-1.54379">
        <ele>62.2</ele>
        <time>2022-02-03T13:50:26Z</time>
      </trkpt>
      <trkpt lat="49.53613" lon="-1.54383">
        <ele>61.3</ele>
        <time>2022-02-03T13:50:31Z</time>
      </trkpt>
      <trkpt lat="49.53608" lon="-1.54387">
        <ele>60.4</ele>
        <time>2022-02-03T13:50:36Z</time>
      </trkpt>
      <trkpt lat="49.53603" lon="-1.5439">
        <ele>59.9</ele>
        <time>2022-02-03T13:50:39Z</time>
      </trkpt>
      <trkpt lat="49.53599" lon="-1.54394">
        <ele>59.6</ele>
        <time>2022-02-03T13:50:42Z</time>
      </trkpt>
      <trkpt lat="49.53594" lon="-1.54397">
        <ele>58.9</ele>
        <time>2022-02-03T13:50:45Z</time>
      </trkpt>
      <trkpt lat="49.53589" lon="-1.54401">
        <ele>58.4</ele>
        <time>2022-02-03T13:50:47Z</time>
      </trkpt>
      <trkpt lat="49.53584" lon="-1.54403">
        <ele>57.3</ele>
        <time>2022-02-03T13:50:51Z</time>
      </trkpt>
      <trkpt lat="49.53579" lon="-1.54401">
        <ele>56.7</ele>
        <time>2022-02-03T13:50:55Z</time>
      </trkpt>
      <trkpt lat="49.53575" lon="-1.54397">
        <ele>56.3</ele>
        <time>2022-02-03T13:51:00Z</time>
      </trkpt>
      <trkpt lat="49.53571" lon="-1.54392">
        <ele>55.9</ele>
        <time>2022-02-03T13:51:04Z</time>
      </trkpt>
      <trkpt lat="49.53567" lon="-1.54388">
        <ele>55</ele>
        <time>2022-02-03T13:51:08Z</time>
      </trkpt>
      <trkpt lat="49.53562" lon="-1.54385">
        <ele>53.9</ele>
        <time>2022-02-03T13:51:13Z</time>
      </trkpt>
      <trkpt lat="49.53557" lon="-1.54382">
        <ele>52.9</ele>
        <time>2022-02-03T13:51:17Z</time>
      </trkpt>
      <trkpt lat="49.53552" lon="-1.5438">
        <ele>52.2</ele>
        <time>2022-02-03T13:51:20Z</time>
      </trkpt>
      <trkpt lat="49.53547" lon="-1.54377">
        <ele>51.2</ele>
        <time>2022-02-03T13:51:24Z</time>
      </trkpt>
      <trkpt lat="49.53542" lon="-1.54371">
        <ele>50.4</ele>
        <time>2022-02-03T13:51:29Z</time>
      </trkpt>
      <trkpt lat="49.53537" lon="-1.54365">
        <ele>49.9</ele>
        <time>2022-02-03T13:51:34Z</time>
      </trkpt>
      <trkpt lat="49.53533" lon="-1.5436">
        <ele>49</ele>
        <time>2022-02-03T13:51:39Z</time>
      </trkpt>
      <trkpt lat="49.53531" lon="-1.54354">
        <ele>47.5</ele>
        <time>2022-02-03T13:51:45Z</time>
      </trkpt>
      <trkpt lat="49.53528" lon="-1.54347">
        <ele>47.5</ele>
        <time>2022-02-03T13:51:51Z</time>
      </trkpt>
      <trkpt lat="49.53524" lon="-1.5434">
        <ele>47.8</ele>
        <time>2022-02-03T13:51:55Z</time>
      </trkpt>
      <trkpt lat="49.53519" lon="-1.54335">
        <ele>47.8</ele>
        <time>2022-02-03T13:51:59Z</time>
      </trkpt>
      <trkpt lat="49.53513" lon="-1.54332">
        <ele>47.8</ele>
        <time>2022-02-03T13:52:04Z</time>
      </trkpt>
      <trkpt lat="49.53506" lon="-1.54331">
        <ele>48.1</ele>
        <time>2022-02-03T13:52:09Z</time>
      </trkpt>
      <trkpt lat="49.53501" lon="-1.54327">
        <ele>48.8</ele>
        <time>2022-02-03T13:52:15Z</time>
      </trkpt>
      <trkpt lat="49.53495" lon="-1.54325">
        <ele>49.9</ele>
        <time>2022-02-03T13:52:20Z</time>
      </trkpt>
      <trkpt lat="49.5349" lon="-1.54327">
        <ele>50.4</ele>
        <time>2022-02-03T13:52:25Z</time>
      </trkpt>
      <trkpt lat="49.53484" lon="-1.54326">
        <ele>51.7</ele>
        <time>2022-02-03T13:52:30Z</time>
      </trkpt>
      <trkpt lat="49.53479" lon="-1.54321">
        <ele>54</ele>
        <time>2022-02-03T13:52:35Z</time>
      </trkpt>
      <trkpt lat="49.53475" lon="-1.54316">
        <ele>56.8</ele>
        <time>2022-02-03T13:52:40Z</time>
      </trkpt>
      <trkpt lat="49.53468" lon="-1.54311">
        <ele>59.1</ele>
        <time>2022-02-03T13:52:45Z</time>
      </trkpt>
      <trkpt lat="49.53462" lon="-1.54309">
        <ele>62.1</ele>
        <time>2022-02-03T13:52:50Z</time>
      </trkpt>
      <trkpt lat="49.53457" lon="-1.54314">
        <ele>63.6</ele>
        <time>2022-02-03T13:52:54Z</time>
      </trkpt>
      <trkpt lat="49.53451" lon="-1.54324">
        <ele>65.1</ele>
        <time>2022-02-03T13:53:00Z</time>
      </trkpt>
      <trkpt lat="49.53446" lon="-1.54329">
        <ele>65.6</ele>
        <time>2022-02-03T13:53:04Z</time>
      </trkpt>
      <trkpt lat="49.53441" lon="-1.54333">
        <ele>66.2</ele>
        <time>2022-02-03T13:53:09Z</time>
      </trkpt>
      <trkpt lat="49.53435" lon="-1.54338">
        <ele>66.9</ele>
        <time>2022-02-03T13:53:14Z</time>
      </trkpt>
      <trkpt lat="49.53431" lon="-1.54342">
        <ele>67.8</ele>
        <time>2022-02-03T13:53:18Z</time>
      </trkpt>
      <trkpt lat="49.53374" lon="-1.54387">
        <ele>76.2</ele>
        <time>2022-02-03T13:53:58Z</time>
      </trkpt>
      <trkpt lat="49.53371" lon="-1.54392">
        <ele>76.6</ele>
        <time>2022-02-03T13:54:01Z</time>
      </trkpt>
      <trkpt lat="49.53367" lon="-1.54397">
        <ele>76.8</ele>
        <time>2022-02-03T13:54:04Z</time>
      </trkpt>
      <trkpt lat="49.53362" lon="-1.54403">
        <ele>76.8</ele>
        <time>2022-02-03T13:54:09Z</time>
      </trkpt>
      <trkpt lat="49.53357" lon="-1.54409">
        <ele>76.2</ele>
        <time>2022-02-03T13:54:14Z</time>
      </trkpt>
      <trkpt lat="49.53353" lon="-1.54414">
        <ele>75.6</ele>
        <time>2022-02-03T13:54:17Z</time>
      </trkpt>
      <trkpt lat="49.53333" lon="-1.54449">
        <ele>74.7</ele>
        <time>2022-02-03T13:54:36Z</time>
      </trkpt>
      <trkpt lat="49.53329" lon="-1.54454">
        <ele>74</ele>
        <time>2022-02-03T13:54:40Z</time>
      </trkpt>
      <trkpt lat="49.53325" lon="-1.54461">
        <ele>73.8</ele>
        <time>2022-02-03T13:54:44Z</time>
      </trkpt>
      <trkpt lat="49.53322" lon="-1.54466">
        <ele>73.6</ele>
        <time>2022-02-03T13:54:48Z</time>
      </trkpt>
      <trkpt lat="49.53318" lon="-1.54473">
        <ele>73.3</ele>
        <time>2022-02-03T13:54:51Z</time>
      </trkpt>
      <trkpt lat="49.53315" lon="-1.54479">
        <ele>72.6</ele>
        <time>2022-02-03T13:54:55Z</time>
      </trkpt>
      <trkpt lat="49.53312" lon="-1.54486">
        <ele>71.9</ele>
        <time>2022-02-03T13:54:58Z</time>
      </trkpt>
      <trkpt lat="49.53308" lon="-1.54493">
        <ele>71.5</ele>
        <time>2022-02-03T13:55:03Z</time>
      </trkpt>
      <trkpt lat="49.53306" lon="-1.545">
        <ele>71.4</ele>
        <time>2022-02-03T13:55:06Z</time>
      </trkpt>
      <trkpt lat="49.53305" lon="-1.54507">
        <ele>71.1</ele>
        <time>2022-02-03T13:55:10Z</time>
      </trkpt>
      <trkpt lat="49.53304" lon="-1.54515">
        <ele>70.4</ele>
        <time>2022-02-03T13:55:14Z</time>
      </trkpt>
      <trkpt lat="49.53303" lon="-1.54522">
        <ele>69.2</ele>
        <time>2022-02-03T13:55:19Z</time>
      </trkpt>
      <trkpt lat="49.53302" lon="-1.5453">
        <ele>68.7</ele>
        <time>2022-02-03T13:55:23Z</time>
      </trkpt>
      <trkpt lat="49.53299" lon="-1.54535">
        <ele>68.8</ele>
        <time>2022-02-03T13:55:29Z</time>
      </trkpt>
      <trkpt lat="49.53297" lon="-1.54542">
        <ele>69.2</ele>
        <time>2022-02-03T13:55:35Z</time>
      </trkpt>
      <trkpt lat="49.53296" lon="-1.54549">
        <ele>69</ele>
        <time>2022-02-03T13:55:39Z</time>
      </trkpt>
      <trkpt lat="49.53295" lon="-1.54557">
        <ele>68.6</ele>
        <time>2022-02-03T13:55:43Z</time>
      </trkpt>
      <trkpt lat="49.53292" lon="-1.54563">
        <ele>68.4</ele>
        <time>2022-02-03T13:55:46Z</time>
      </trkpt>
      <trkpt lat="49.5329" lon="-1.5457">
        <ele>68.4</ele>
        <time>2022-02-03T13:55:49Z</time>
      </trkpt>
      <trkpt lat="49.53287" lon="-1.54578">
        <ele>68.6</ele>
        <time>2022-02-03T13:55:53Z</time>
      </trkpt>
      <trkpt lat="49.53284" lon="-1.54583">
        <ele>68.8</ele>
        <time>2022-02-03T13:55:57Z</time>
      </trkpt>
      <trkpt lat="49.53281" lon="-1.54591">
        <ele>68.8</ele>
        <time>2022-02-03T13:56:01Z</time>
      </trkpt>
      <trkpt lat="49.53276" lon="-1.54608">
        <ele>69.1</ele>
        <time>2022-02-03T13:56:08Z</time>
      </trkpt>
      <trkpt lat="49.53271" lon="-1.54609">
        <ele>69.1</ele>
        <time>2022-02-03T13:56:14Z</time>
      </trkpt>
      <trkpt lat="49.53263" lon="-1.54611">
        <ele>68.1</ele>
        <time>2022-02-03T13:56:32Z</time>
      </trkpt>
      <trkpt lat="49.53258" lon="-1.54611">
        <ele>68.3</ele>
        <time>2022-02-03T13:56:35Z</time>
      </trkpt>
      <trkpt lat="49.53251" lon="-1.5461">
        <ele>69.8</ele>
        <time>2022-02-03T13:56:38Z</time>
      </trkpt>
      <trkpt lat="49.53246" lon="-1.54606">
        <ele>71.3</ele>
        <time>2022-02-03T13:56:42Z</time>
      </trkpt>
      <trkpt lat="49.53239" lon="-1.54607">
        <ele>72.6</ele>
        <time>2022-02-03T13:56:47Z</time>
      </trkpt>
      <trkpt lat="49.53237" lon="-1.546">
        <ele>73.7</ele>
        <time>2022-02-03T13:57:04Z</time>
      </trkpt>
      <trkpt lat="49.53231" lon="-1.54595">
        <ele>73.7</ele>
        <time>2022-02-03T13:57:06Z</time>
      </trkpt>
      <trkpt lat="49.53225" lon="-1.5459">
        <ele>73.8</ele>
        <time>2022-02-03T13:57:09Z</time>
      </trkpt>
      <trkpt lat="49.5322" lon="-1.54585">
        <ele>73.7</ele>
        <time>2022-02-03T13:57:11Z</time>
      </trkpt>
      <trkpt lat="49.53215" lon="-1.54581">
        <ele>73.6</ele>
        <time>2022-02-03T13:57:14Z</time>
      </trkpt>
      <trkpt lat="49.53211" lon="-1.54577">
        <ele>73.4</ele>
        <time>2022-02-03T13:57:17Z</time>
      </trkpt>
      <trkpt lat="49.53206" lon="-1.54573">
        <ele>73.1</ele>
        <time>2022-02-03T13:57:20Z</time>
      </trkpt>
      <trkpt lat="49.5319" lon="-1.54564">
        <ele>73.4</ele>
        <time>2022-02-03T13:57:29Z</time>
      </trkpt>
      <trkpt lat="49.53168" lon="-1.54594">
        <ele>76.6</ele>
        <time>2022-02-03T13:57:50Z</time>
      </trkpt>
      <trkpt lat="49.53166" lon="-1.54601">
        <ele>77</ele>
        <time>2022-02-03T13:57:55Z</time>
      </trkpt>
      <trkpt lat="49.53164" lon="-1.54609">
        <ele>76.8</ele>
        <time>2022-02-03T13:57:58Z</time>
      </trkpt>
      <trkpt lat="49.53162" lon="-1.54617">
        <ele>76.3</ele>
        <time>2022-02-03T13:58:02Z</time>
      </trkpt>
      <trkpt lat="49.53161" lon="-1.54625">
        <ele>76.1</ele>
        <time>2022-02-03T13:58:05Z</time>
      </trkpt>
      <trkpt lat="49.5316" lon="-1.54633">
        <ele>76.1</ele>
        <time>2022-02-03T13:58:09Z</time>
      </trkpt>
      <trkpt lat="49.53158" lon="-1.54641">
        <ele>75.8</ele>
        <time>2022-02-03T13:58:13Z</time>
      </trkpt>
      <trkpt lat="49.53154" lon="-1.54652">
        <ele>75.3</ele>
        <time>2022-02-03T13:58:19Z</time>
      </trkpt>
      <trkpt lat="49.53154" lon="-1.5466">
        <ele>75.1</ele>
        <time>2022-02-03T13:58:23Z</time>
      </trkpt>
      <trkpt lat="49.53153" lon="-1.54667">
        <ele>75</ele>
        <time>2022-02-03T13:58:27Z</time>
      </trkpt>
      <trkpt lat="49.53151" lon="-1.54674">
        <ele>74.9</ele>
        <time>2022-02-03T13:58:30Z</time>
      </trkpt>
      <trkpt lat="49.53149" lon="-1.54683">
        <ele>74.1</ele>
        <time>2022-02-03T13:58:34Z</time>
      </trkpt>
      <trkpt lat="49.53147" lon="-1.5469">
        <ele>73.1</ele>
        <time>2022-02-03T13:58:37Z</time>
      </trkpt>
      <trkpt lat="49.53145" lon="-1.547">
        <ele>72</ele>
        <time>2022-02-03T13:58:41Z</time>
      </trkpt>
      <trkpt lat="49.53145" lon="-1.54708">
        <ele>71.2</ele>
        <time>2022-02-03T13:58:45Z</time>
      </trkpt>
      <trkpt lat="49.53144" lon="-1.54715">
        <ele>70.2</ele>
        <time>2022-02-03T13:58:48Z</time>
      </trkpt>
      <trkpt lat="49.53143" lon="-1.54723">
        <ele>69</ele>
        <time>2022-02-03T13:58:53Z</time>
      </trkpt>
      <trkpt lat="49.53143" lon="-1.5473">
        <ele>68.5</ele>
        <time>2022-02-03T13:58:56Z</time>
      </trkpt>
      <trkpt lat="49.53142" lon="-1.54737">
        <ele>67.7</ele>
        <time>2022-02-03T13:59:00Z</time>
      </trkpt>
      <trkpt lat="49.53142" lon="-1.54744">
        <ele>67</ele>
        <time>2022-02-03T13:59:04Z</time>
      </trkpt>
      <trkpt lat="49.53143" lon="-1.54751">
        <ele>66</ele>
        <time>2022-02-03T13:59:09Z</time>
      </trkpt>
      <trkpt lat="49.53145" lon="-1.54758">
        <ele>64.3</ele>
        <time>2022-02-03T13:59:15Z</time>
      </trkpt>
      <trkpt lat="49.53145" lon="-1.54766">
        <ele>63</ele>
        <time>2022-02-03T13:59:20Z</time>
      </trkpt>
      <trkpt lat="49.53145" lon="-1.54773">
        <ele>62.8</ele>
        <time>2022-02-03T13:59:23Z</time>
      </trkpt>
      <trkpt lat="49.53146" lon="-1.54785">
        <ele>63.3</ele>
        <time>2022-02-03T13:59:29Z</time>
      </trkpt>
      <trkpt lat="49.53147" lon="-1.5484">
        <ele>63</ele>
        <time>2022-02-03T13:59:47Z</time>
      </trkpt>
      <trkpt lat="49.53149" lon="-1.54847">
        <ele>63</ele>
        <time>2022-02-03T13:59:51Z</time>
      </trkpt>
      <trkpt lat="49.53149" lon="-1.54854">
        <ele>62.8</ele>
        <time>2022-02-03T13:59:54Z</time>
      </trkpt>
      <trkpt lat="49.53151" lon="-1.5491">
        <ele>64.2</ele>
        <time>2022-02-03T14:00:16Z</time>
      </trkpt>
      <trkpt lat="49.5315" lon="-1.54917">
        <ele>64.4</ele>
        <time>2022-02-03T14:00:19Z</time>
      </trkpt>
      <trkpt lat="49.53146" lon="-1.54925">
        <ele>64</ele>
        <time>2022-02-03T14:00:24Z</time>
      </trkpt>
      <trkpt lat="49.53144" lon="-1.54931">
        <ele>63.7</ele>
        <time>2022-02-03T14:00:27Z</time>
      </trkpt>
      <trkpt lat="49.53109" lon="-1.55017">
        <ele>62.3</ele>
        <time>2022-02-03T14:01:06Z</time>
      </trkpt>
      <trkpt lat="49.53106" lon="-1.55025">
        <ele>62.5</ele>
        <time>2022-02-03T14:01:10Z</time>
      </trkpt>
      <trkpt lat="49.531" lon="-1.55046">
        <ele>61.7</ele>
        <time>2022-02-03T14:01:20Z</time>
      </trkpt>
      <trkpt lat="49.53098" lon="-1.55053">
        <ele>61.6</ele>
        <time>2022-02-03T14:01:24Z</time>
      </trkpt>
      <trkpt lat="49.53095" lon="-1.55061">
        <ele>61.1</ele>
        <time>2022-02-03T14:01:28Z</time>
      </trkpt>
      <trkpt lat="49.53093" lon="-1.55068">
        <ele>60.2</ele>
        <time>2022-02-03T14:01:33Z</time>
      </trkpt>
      <trkpt lat="49.53093" lon="-1.55075">
        <ele>59.6</ele>
        <time>2022-02-03T14:01:36Z</time>
      </trkpt>
      <trkpt lat="49.53093" lon="-1.55083">
        <ele>58.4</ele>
        <time>2022-02-03T14:01:40Z</time>
      </trkpt>
      <trkpt lat="49.53092" lon="-1.5509">
        <ele>57</ele>
        <time>2022-02-03T14:01:43Z</time>
      </trkpt>
      <trkpt lat="49.53092" lon="-1.55097">
        <ele>56.3</ele>
        <time>2022-02-03T14:01:47Z</time>
      </trkpt>
      <trkpt lat="49.53092" lon="-1.55104">
        <ele>55.7</ele>
        <time>2022-02-03T14:01:52Z</time>
      </trkpt>
      <trkpt lat="49.53094" lon="-1.55113">
        <ele>55.2</ele>
        <time>2022-02-03T14:01:56Z</time>
      </trkpt>
      <trkpt lat="49.53094" lon="-1.55123">
        <ele>54.4</ele>
        <time>2022-02-03T14:02:01Z</time>
      </trkpt>
      <trkpt lat="49.53094" lon="-1.55132">
        <ele>53.9</ele>
        <time>2022-02-03T14:02:07Z</time>
      </trkpt>
      <trkpt lat="49.53093" lon="-1.5514">
        <ele>54.2</ele>
        <time>2022-02-03T14:02:11Z</time>
      </trkpt>
      <trkpt lat="49.53094" lon="-1.55149">
        <ele>54.1</ele>
        <time>2022-02-03T14:02:17Z</time>
      </trkpt>
      <trkpt lat="49.53096" lon="-1.55156">
        <ele>52.8</ele>
        <time>2022-02-03T14:02:23Z</time>
      </trkpt>
      <trkpt lat="49.53096" lon="-1.55165">
        <ele>53.1</ele>
        <time>2022-02-03T14:02:30Z</time>
      </trkpt>
      <trkpt lat="49.53094" lon="-1.55172">
        <ele>52.8</ele>
        <time>2022-02-03T14:02:35Z</time>
      </trkpt>
      <trkpt lat="49.53094" lon="-1.55179">
        <ele>52.1</ele>
        <time>2022-02-03T14:02:38Z</time>
      </trkpt>
      <trkpt lat="49.53092" lon="-1.55187">
        <ele>51.4</ele>
        <time>2022-02-03T14:02:41Z</time>
      </trkpt>
      <trkpt lat="49.53084" lon="-1.55209">
        <ele>50.1</ele>
        <time>2022-02-03T14:02:51Z</time>
      </trkpt>
      <trkpt lat="49.53079" lon="-1.55215">
        <ele>49.7</ele>
        <time>2022-02-03T14:02:54Z</time>
      </trkpt>
      <trkpt lat="49.5307" lon="-1.55228">
        <ele>49.9</ele>
        <time>2022-02-03T14:03:01Z</time>
      </trkpt>
      <trkpt lat="49.53066" lon="-1.55234">
        <ele>50.5</ele>
        <time>2022-02-03T14:03:25Z</time>
      </trkpt>
      <trkpt lat="49.53061" lon="-1.5524">
        <ele>50.4</ele>
        <time>2022-02-03T14:03:29Z</time>
      </trkpt>
      <trkpt lat="49.53057" lon="-1.55244">
        <ele>50.3</ele>
        <time>2022-02-03T14:03:32Z</time>
      </trkpt>
      <trkpt lat="49.53052" lon="-1.55247">
        <ele>50.2</ele>
        <time>2022-02-03T14:03:35Z</time>
      </trkpt>
      <trkpt lat="49.53047" lon="-1.5525">
        <ele>49.9</ele>
        <time>2022-02-03T14:03:39Z</time>
      </trkpt>
      <trkpt lat="49.53043" lon="-1.55254">
        <ele>49.6</ele>
        <time>2022-02-03T14:03:43Z</time>
      </trkpt>
      <trkpt lat="49.53039" lon="-1.55259">
        <ele>49.9</ele>
        <time>2022-02-03T14:03:49Z</time>
      </trkpt>
      <trkpt lat="49.53034" lon="-1.55263">
        <ele>50.2</ele>
        <time>2022-02-03T14:03:54Z</time>
      </trkpt>
      <trkpt lat="49.53029" lon="-1.55266">
        <ele>49.9</ele>
        <time>2022-02-03T14:03:58Z</time>
      </trkpt>
      <trkpt lat="49.53024" lon="-1.55265">
        <ele>49.4</ele>
        <time>2022-02-03T14:04:03Z</time>
      </trkpt>
      <trkpt lat="49.53019" lon="-1.55264">
        <ele>48.9</ele>
        <time>2022-02-03T14:04:08Z</time>
      </trkpt>
      <trkpt lat="49.53013" lon="-1.55263">
        <ele>48.7</ele>
        <time>2022-02-03T14:04:14Z</time>
      </trkpt>
      <trkpt lat="49.53008" lon="-1.55263">
        <ele>48.7</ele>
        <time>2022-02-03T14:04:18Z</time>
      </trkpt>
      <trkpt lat="49.53003" lon="-1.55265">
        <ele>48.8</ele>
        <time>2022-02-03T14:04:30Z</time>
      </trkpt>
      <trkpt lat="49.52998" lon="-1.55265">
        <ele>48.7</ele>
        <time>2022-02-03T14:04:35Z</time>
      </trkpt>
      <trkpt lat="49.52993" lon="-1.55264">
        <ele>48.6</ele>
        <time>2022-02-03T14:04:42Z</time>
      </trkpt>
      <trkpt lat="49.52988" lon="-1.55262">
        <ele>48.6</ele>
        <time>2022-02-03T14:04:44Z</time>
      </trkpt>
      <trkpt lat="49.52983" lon="-1.55261">
        <ele>48.5</ele>
        <time>2022-02-03T14:04:48Z</time>
      </trkpt>
      <trkpt lat="49.52978" lon="-1.55259">
        <ele>48.4</ele>
        <time>2022-02-03T14:04:53Z</time>
      </trkpt>
      <trkpt lat="49.52974" lon="-1.55256">
        <ele>48.4</ele>
        <time>2022-02-03T14:04:56Z</time>
      </trkpt>
      <trkpt lat="49.52969" lon="-1.55253">
        <ele>48.2</ele>
        <time>2022-02-03T14:05:00Z</time>
      </trkpt>
      <trkpt lat="49.52964" lon="-1.55252">
        <ele>48.2</ele>
        <time>2022-02-03T14:05:05Z</time>
      </trkpt>
      <trkpt lat="49.52958" lon="-1.55252">
        <ele>48.3</ele>
        <time>2022-02-03T14:05:10Z</time>
      </trkpt>
      <trkpt lat="49.52953" lon="-1.55253">
        <ele>48.3</ele>
        <time>2022-02-03T14:05:14Z</time>
      </trkpt>
      <trkpt lat="49.52948" lon="-1.55253">
        <ele>48.4</ele>
        <time>2022-02-03T14:05:17Z</time>
      </trkpt>
      <trkpt lat="49.52942" lon="-1.55252">
        <ele>48.6</ele>
        <time>2022-02-03T14:05:21Z</time>
      </trkpt>
      <trkpt lat="49.52937" lon="-1.55252">
        <ele>48.9</ele>
        <time>2022-02-03T14:05:25Z</time>
      </trkpt>
      <trkpt lat="49.52933" lon="-1.55248">
        <ele>50.1</ele>
        <time>2022-02-03T14:05:39Z</time>
      </trkpt>
      <trkpt lat="49.52928" lon="-1.55244">
        <ele>50.7</ele>
        <time>2022-02-03T14:05:46Z</time>
      </trkpt>
      <trkpt lat="49.52923" lon="-1.55239">
        <ele>50.9</ele>
        <time>2022-02-03T14:05:49Z</time>
      </trkpt>
      <trkpt lat="49.5292" lon="-1.55235">
        <ele>51.2</ele>
        <time>2022-02-03T14:05:53Z</time>
      </trkpt>
      <trkpt lat="49.52917" lon="-1.5523">
        <ele>52.2</ele>
        <time>2022-02-03T14:05:59Z</time>
      </trkpt>
      <trkpt lat="49.52913" lon="-1.55222">
        <ele>53.5</ele>
        <time>2022-02-03T14:06:14Z</time>
      </trkpt>
      <trkpt lat="49.52911" lon="-1.55214">
        <ele>53.6</ele>
        <time>2022-02-03T14:06:17Z</time>
      </trkpt>
      <trkpt lat="49.5291" lon="-1.55206">
        <ele>53.9</ele>
        <time>2022-02-03T14:06:20Z</time>
      </trkpt>
      <trkpt lat="49.52907" lon="-1.55199">
        <ele>54.4</ele>
        <time>2022-02-03T14:06:25Z</time>
      </trkpt>
      <trkpt lat="49.52904" lon="-1.55193">
        <ele>54.9</ele>
        <time>2022-02-03T14:06:30Z</time>
      </trkpt>
      <trkpt lat="49.52901" lon="-1.55187">
        <ele>55.5</ele>
        <time>2022-02-03T14:06:36Z</time>
      </trkpt>
      <trkpt lat="49.52898" lon="-1.55183">
        <ele>56.1</ele>
        <time>2022-02-03T14:06:42Z</time>
      </trkpt>
      <trkpt lat="49.52894" lon="-1.55177">
        <ele>56.7</ele>
        <time>2022-02-03T14:06:47Z</time>
      </trkpt>
      <trkpt lat="49.5289" lon="-1.55172">
        <ele>57.5</ele>
        <time>2022-02-03T14:06:55Z</time>
      </trkpt>
      <trkpt lat="49.52884" lon="-1.55152">
        <ele>58.6</ele>
        <time>2022-02-03T14:07:03Z</time>
      </trkpt>
      <trkpt lat="49.52881" lon="-1.55146">
        <ele>59.1</ele>
        <time>2022-02-03T14:07:05Z</time>
      </trkpt>
      <trkpt lat="49.52875" lon="-1.5514">
        <ele>59.6</ele>
        <time>2022-02-03T14:07:07Z</time>
      </trkpt>
      <trkpt lat="49.5287" lon="-1.55137">
        <ele>60.4</ele>
        <time>2022-02-03T14:07:11Z</time>
      </trkpt>
      <trkpt lat="49.5286" lon="-1.5513">
        <ele>61.9</ele>
        <time>2022-02-03T14:07:16Z</time>
      </trkpt>
      <trkpt lat="49.52855" lon="-1.55131">
        <ele>62.7</ele>
        <time>2022-02-03T14:07:21Z</time>
      </trkpt>
      <trkpt lat="49.5285" lon="-1.55134">
        <ele>62.9</ele>
        <time>2022-02-03T14:07:27Z</time>
      </trkpt>
      <trkpt lat="49.52846" lon="-1.55136">
        <ele>63.2</ele>
        <time>2022-02-03T14:07:32Z</time>
      </trkpt>
      <trkpt lat="49.52842" lon="-1.5514">
        <ele>63.2</ele>
        <time>2022-02-03T14:07:36Z</time>
      </trkpt>
      <trkpt lat="49.52838" lon="-1.55144">
        <ele>63</ele>
        <time>2022-02-03T14:07:41Z</time>
      </trkpt>
      <trkpt lat="49.52834" lon="-1.55148">
        <ele>62.8</ele>
        <time>2022-02-03T14:07:47Z</time>
      </trkpt>
      <trkpt lat="49.5283" lon="-1.55153">
        <ele>62.1</ele>
        <time>2022-02-03T14:08:08Z</time>
      </trkpt>
      <trkpt lat="49.52825" lon="-1.55158">
        <ele>62</ele>
        <time>2022-02-03T14:08:10Z</time>
      </trkpt>
      <trkpt lat="49.5282" lon="-1.55162">
        <ele>61.7</ele>
        <time>2022-02-03T14:08:14Z</time>
      </trkpt>
      <trkpt lat="49.52815" lon="-1.55167">
        <ele>61.6</ele>
        <time>2022-02-03T14:08:17Z</time>
      </trkpt>
      <trkpt lat="49.52812" lon="-1.55172">
        <ele>61.6</ele>
        <time>2022-02-03T14:08:20Z</time>
      </trkpt>
      <trkpt lat="49.52808" lon="-1.55176">
        <ele>61.9</ele>
        <time>2022-02-03T14:08:30Z</time>
      </trkpt>
      <trkpt lat="49.52804" lon="-1.55179">
        <ele>62.2</ele>
        <time>2022-02-03T14:08:49Z</time>
      </trkpt>
      <trkpt lat="49.52798" lon="-1.55183">
        <ele>62.3</ele>
        <time>2022-02-03T14:08:54Z</time>
      </trkpt>
      <trkpt lat="49.52792" lon="-1.55188">
        <ele>62.3</ele>
        <time>2022-02-03T14:08:56Z</time>
      </trkpt>
      <trkpt lat="49.52788" lon="-1.55191">
        <ele>62.3</ele>
        <time>2022-02-03T14:08:58Z</time>
      </trkpt>
      <trkpt lat="49.52783" lon="-1.55195">
        <ele>62.4</ele>
        <time>2022-02-03T14:09:00Z</time>
      </trkpt>
      <trkpt lat="49.52777" lon="-1.552">
        <ele>62.5</ele>
        <time>2022-02-03T14:09:03Z</time>
      </trkpt>
      <trkpt lat="49.52763" lon="-1.55214">
        <ele>63.2</ele>
        <time>2022-02-03T14:09:09Z</time>
      </trkpt>
      <trkpt lat="49.52759" lon="-1.55219">
        <ele>63.9</ele>
        <time>2022-02-03T14:09:16Z</time>
      </trkpt>
      <trkpt lat="49.52755" lon="-1.55222">
        <ele>64.2</ele>
        <time>2022-02-03T14:09:19Z</time>
      </trkpt>
      <trkpt lat="49.5275" lon="-1.55225">
        <ele>64.5</ele>
        <time>2022-02-03T14:09:23Z</time>
      </trkpt>
      <trkpt lat="49.52744" lon="-1.55225">
        <ele>64.8</ele>
        <time>2022-02-03T14:09:26Z</time>
      </trkpt>
      <trkpt lat="49.5274" lon="-1.55226">
        <ele>65.8</ele>
        <time>2022-02-03T14:09:37Z</time>
      </trkpt>
      <trkpt lat="49.52734" lon="-1.55224">
        <ele>66.2</ele>
        <time>2022-02-03T14:09:43Z</time>
      </trkpt>
      <trkpt lat="49.52729" lon="-1.55221">
        <ele>66.3</ele>
        <time>2022-02-03T14:09:45Z</time>
      </trkpt>
      <trkpt lat="49.52723" lon="-1.55217">
        <ele>66.6</ele>
        <time>2022-02-03T14:09:48Z</time>
      </trkpt>
      <trkpt lat="49.52718" lon="-1.55213">
        <ele>66.9</ele>
        <time>2022-02-03T14:09:51Z</time>
      </trkpt>
      <trkpt lat="49.52711" lon="-1.55209">
        <ele>67.2</ele>
        <time>2022-02-03T14:09:54Z</time>
      </trkpt>
      <trkpt lat="49.52706" lon="-1.55206">
        <ele>67.7</ele>
        <time>2022-02-03T14:09:58Z</time>
      </trkpt>
      <trkpt lat="49.52701" lon="-1.55205">
        <ele>68.8</ele>
        <time>2022-02-03T14:10:03Z</time>
      </trkpt>
      <trkpt lat="49.52696" lon="-1.55204">
        <ele>69.2</ele>
        <time>2022-02-03T14:10:06Z</time>
      </trkpt>
      <trkpt lat="49.52688" lon="-1.55202">
        <ele>69.6</ele>
        <time>2022-02-03T14:10:11Z</time>
      </trkpt>
      <trkpt lat="49.52683" lon="-1.55199">
        <ele>70</ele>
        <time>2022-02-03T14:10:14Z</time>
      </trkpt>
      <trkpt lat="49.52678" lon="-1.55197">
        <ele>70.4</ele>
        <time>2022-02-03T14:10:17Z</time>
      </trkpt>
      <trkpt lat="49.52673" lon="-1.55194">
        <ele>70.5</ele>
        <time>2022-02-03T14:10:21Z</time>
      </trkpt>
      <trkpt lat="49.52668" lon="-1.55191">
        <ele>70.8</ele>
        <time>2022-02-03T14:10:24Z</time>
      </trkpt>
      <trkpt lat="49.52664" lon="-1.55188">
        <ele>71</ele>
        <time>2022-02-03T14:10:27Z</time>
      </trkpt>
      <trkpt lat="49.52659" lon="-1.55183">
        <ele>71.3</ele>
        <time>2022-02-03T14:10:32Z</time>
      </trkpt>
      <trkpt lat="49.52655" lon="-1.55179">
        <ele>71.4</ele>
        <time>2022-02-03T14:10:35Z</time>
      </trkpt>
      <trkpt lat="49.52652" lon="-1.55174">
        <ele>71.5</ele>
        <time>2022-02-03T14:10:38Z</time>
      </trkpt>
      <trkpt lat="49.52649" lon="-1.55168">
        <ele>71.7</ele>
        <time>2022-02-03T14:10:42Z</time>
      </trkpt>
      <trkpt lat="49.52645" lon="-1.55162">
        <ele>71.9</ele>
        <time>2022-02-03T14:10:47Z</time>
      </trkpt>
      <trkpt lat="49.52641" lon="-1.55158">
        <ele>72.5</ele>
        <time>2022-02-03T14:10:55Z</time>
      </trkpt>
      <trkpt lat="49.52637" lon="-1.55156">
        <ele>72.5</ele>
        <time>2022-02-03T14:10:59Z</time>
      </trkpt>
      <trkpt lat="49.52632" lon="-1.55154">
        <ele>72.3</ele>
        <time>2022-02-03T14:11:03Z</time>
      </trkpt>
      <trkpt lat="49.52626" lon="-1.55152">
        <ele>72.6</ele>
        <time>2022-02-03T14:11:08Z</time>
      </trkpt>
      <trkpt lat="49.5262" lon="-1.55149">
        <ele>73.3</ele>
        <time>2022-02-03T14:11:13Z</time>
      </trkpt>
      <trkpt lat="49.52615" lon="-1.55147">
        <ele>73.4</ele>
        <time>2022-02-03T14:11:17Z</time>
      </trkpt>
      <trkpt lat="49.5261" lon="-1.55144">
        <ele>73.2</ele>
        <time>2022-02-03T14:11:22Z</time>
      </trkpt>
      <trkpt lat="49.52606" lon="-1.55143">
        <ele>74</ele>
        <time>2022-02-03T14:11:45Z</time>
      </trkpt>
      <trkpt lat="49.52599" lon="-1.55143">
        <ele>74</ele>
        <time>2022-02-03T14:11:56Z</time>
      </trkpt>
      <trkpt lat="49.52594" lon="-1.55143">
        <ele>74</ele>
        <time>2022-02-03T14:11:58Z</time>
      </trkpt>
      <trkpt lat="49.52588" lon="-1.55142">
        <ele>73.9</ele>
        <time>2022-02-03T14:12:00Z</time>
      </trkpt>
      <trkpt lat="49.52583" lon="-1.55142">
        <ele>73.9</ele>
        <time>2022-02-03T14:12:02Z</time>
      </trkpt>
      <trkpt lat="49.52577" lon="-1.55143">
        <ele>73.7</ele>
        <time>2022-02-03T14:12:04Z</time>
      </trkpt>
      <trkpt lat="49.52571" lon="-1.55145">
        <ele>73.5</ele>
        <time>2022-02-03T14:12:07Z</time>
      </trkpt>
      <trkpt lat="49.52565" lon="-1.55148">
        <ele>73.1</ele>
        <time>2022-02-03T14:12:10Z</time>
      </trkpt>
      <trkpt lat="49.5256" lon="-1.5515">
        <ele>73.1</ele>
        <time>2022-02-03T14:12:12Z</time>
      </trkpt>
      <trkpt lat="49.52539" lon="-1.55159">
        <ele>73.3</ele>
        <time>2022-02-03T14:12:23Z</time>
      </trkpt>
      <trkpt lat="49.52534" lon="-1.55162">
        <ele>73.7</ele>
        <time>2022-02-03T14:12:27Z</time>
      </trkpt>
      <trkpt lat="49.52529" lon="-1.55165">
        <ele>73.9</ele>
        <time>2022-02-03T14:12:30Z</time>
      </trkpt>
      <trkpt lat="49.52524" lon="-1.55168">
        <ele>74</ele>
        <time>2022-02-03T14:12:34Z</time>
      </trkpt>
      <trkpt lat="49.52519" lon="-1.55171">
        <ele>74.2</ele>
        <time>2022-02-03T14:12:37Z</time>
      </trkpt>
      <trkpt lat="49.52515" lon="-1.55174">
        <ele>74.5</ele>
        <time>2022-02-03T14:12:41Z</time>
      </trkpt>
      <trkpt lat="49.52509" lon="-1.55173">
        <ele>74.8</ele>
        <time>2022-02-03T14:12:45Z</time>
      </trkpt>
      <trkpt lat="49.52504" lon="-1.55174">
        <ele>74.8</ele>
        <time>2022-02-03T14:12:48Z</time>
      </trkpt>
      <trkpt lat="49.52499" lon="-1.5518">
        <ele>74.9</ele>
        <time>2022-02-03T14:12:53Z</time>
      </trkpt>
      <trkpt lat="49.52495" lon="-1.55184">
        <ele>74.9</ele>
        <time>2022-02-03T14:12:57Z</time>
      </trkpt>
      <trkpt lat="49.5249" lon="-1.55187">
        <ele>74.7</ele>
        <time>2022-02-03T14:13:00Z</time>
      </trkpt>
      <trkpt lat="49.52485" lon="-1.55189">
        <ele>74.6</ele>
        <time>2022-02-03T14:13:04Z</time>
      </trkpt>
      <trkpt lat="49.52479" lon="-1.55191">
        <ele>74.4</ele>
        <time>2022-02-03T14:13:09Z</time>
      </trkpt>
      <trkpt lat="49.52474" lon="-1.55191">
        <ele>74.3</ele>
        <time>2022-02-03T14:13:14Z</time>
      </trkpt>
      <trkpt lat="49.52478" lon="-1.55196">
        <ele>74.8</ele>
        <time>2022-02-03T14:13:38Z</time>
      </trkpt>
      <trkpt lat="49.52472" lon="-1.55194">
        <ele>74.5</ele>
        <time>2022-02-03T14:14:33Z</time>
      </trkpt>
      <trkpt lat="49.52468" lon="-1.55189">
        <ele>74.3</ele>
        <time>2022-02-03T14:14:36Z</time>
      </trkpt>
      <trkpt lat="49.52464" lon="-1.55184">
        <ele>74.2</ele>
        <time>2022-02-03T14:14:39Z</time>
      </trkpt>
      <trkpt lat="49.5246" lon="-1.55179">
        <ele>74.3</ele>
        <time>2022-02-03T14:14:43Z</time>
      </trkpt>
      <trkpt lat="49.52456" lon="-1.55175">
        <ele>74.6</ele>
        <time>2022-02-03T14:14:46Z</time>
      </trkpt>
      <trkpt lat="49.52452" lon="-1.55169">
        <ele>74.9</ele>
        <time>2022-02-03T14:14:49Z</time>
      </trkpt>
      <trkpt lat="49.52448" lon="-1.55164">
        <ele>75</ele>
        <time>2022-02-03T14:14:53Z</time>
      </trkpt>
      <trkpt lat="49.52444" lon="-1.55159">
        <ele>75.2</ele>
        <time>2022-02-03T14:14:56Z</time>
      </trkpt>
      <trkpt lat="49.5244" lon="-1.55156">
        <ele>75.3</ele>
        <time>2022-02-03T14:14:59Z</time>
      </trkpt>
      <trkpt lat="49.52438" lon="-1.5515">
        <ele>75.8</ele>
        <time>2022-02-03T14:15:03Z</time>
      </trkpt>
      <trkpt lat="49.52433" lon="-1.55147">
        <ele>75.9</ele>
        <time>2022-02-03T14:15:06Z</time>
      </trkpt>
      <trkpt lat="49.52427" lon="-1.55144">
        <ele>76.1</ele>
        <time>2022-02-03T14:15:09Z</time>
      </trkpt>
      <trkpt lat="49.52422" lon="-1.55143">
        <ele>76.3</ele>
        <time>2022-02-03T14:15:13Z</time>
      </trkpt>
      <trkpt lat="49.52416" lon="-1.55143">
        <ele>76.9</ele>
        <time>2022-02-03T14:15:16Z</time>
      </trkpt>
      <trkpt lat="49.52411" lon="-1.55141">
        <ele>77.7</ele>
        <time>2022-02-03T14:15:19Z</time>
      </trkpt>
      <trkpt lat="49.52405" lon="-1.55141">
        <ele>78.4</ele>
        <time>2022-02-03T14:15:23Z</time>
      </trkpt>
      <trkpt lat="49.524" lon="-1.55142">
        <ele>78.5</ele>
        <time>2022-02-03T14:15:27Z</time>
      </trkpt>
      <trkpt lat="49.52396" lon="-1.55144">
        <ele>78.3</ele>
        <time>2022-02-03T14:15:30Z</time>
      </trkpt>
      <trkpt lat="49.5239" lon="-1.55144">
        <ele>78.1</ele>
        <time>2022-02-03T14:15:35Z</time>
      </trkpt>
      <trkpt lat="49.52383" lon="-1.55142">
        <ele>77.9</ele>
        <time>2022-02-03T14:15:40Z</time>
      </trkpt>
      <trkpt lat="49.52377" lon="-1.55144">
        <ele>77.8</ele>
        <time>2022-02-03T14:15:44Z</time>
      </trkpt>
      <trkpt lat="49.52372" lon="-1.55145">
        <ele>77.8</ele>
        <time>2022-02-03T14:15:48Z</time>
      </trkpt>
      <trkpt lat="49.52367" lon="-1.55145">
        <ele>77.6</ele>
        <time>2022-02-03T14:15:51Z</time>
      </trkpt>
      <trkpt lat="49.52363" lon="-1.55146">
        <ele>77.1</ele>
        <time>2022-02-03T14:15:55Z</time>
      </trkpt>
      <trkpt lat="49.52357" lon="-1.55147">
        <ele>76.8</ele>
        <time>2022-02-03T14:15:58Z</time>
      </trkpt>
      <trkpt lat="49.52352" lon="-1.55147">
        <ele>76.7</ele>
        <time>2022-02-03T14:16:02Z</time>
      </trkpt>
      <trkpt lat="49.52347" lon="-1.55146">
        <ele>76.7</ele>
        <time>2022-02-03T14:16:05Z</time>
      </trkpt>
      <trkpt lat="49.52342" lon="-1.55145">
        <ele>76.8</ele>
        <time>2022-02-03T14:16:09Z</time>
      </trkpt>
      <trkpt lat="49.52337" lon="-1.55144">
        <ele>76.5</ele>
        <time>2022-02-03T14:16:23Z</time>
      </trkpt>
      <trkpt lat="49.52333" lon="-1.55146">
        <ele>76.4</ele>
        <time>2022-02-03T14:16:26Z</time>
      </trkpt>
      <trkpt lat="49.52327" lon="-1.55149">
        <ele>76.3</ele>
        <time>2022-02-03T14:16:29Z</time>
      </trkpt>
      <trkpt lat="49.52322" lon="-1.5515">
        <ele>76.1</ele>
        <time>2022-02-03T14:16:32Z</time>
      </trkpt>
      <trkpt lat="49.52318" lon="-1.55149">
        <ele>76</ele>
        <time>2022-02-03T14:16:37Z</time>
      </trkpt>
      <trkpt lat="49.52316" lon="-1.55157">
        <ele>75.7</ele>
        <time>2022-02-03T14:17:28Z</time>
      </trkpt>
      <trkpt lat="49.52311" lon="-1.55156">
        <ele>75.7</ele>
        <time>2022-02-03T14:17:31Z</time>
      </trkpt>
      <trkpt lat="49.52305" lon="-1.55158">
        <ele>75.7</ele>
        <time>2022-02-03T14:17:35Z</time>
      </trkpt>
      <trkpt lat="49.523" lon="-1.55166">
        <ele>75.7</ele>
        <time>2022-02-03T14:17:39Z</time>
      </trkpt>
      <trkpt lat="49.52296" lon="-1.55168">
        <ele>75.7</ele>
        <time>2022-02-03T14:17:42Z</time>
      </trkpt>
      <trkpt lat="49.52291" lon="-1.5517">
        <ele>75.7</ele>
        <time>2022-02-03T14:17:45Z</time>
      </trkpt>
      <trkpt lat="49.52287" lon="-1.55172">
        <ele>75.6</ele>
        <time>2022-02-03T14:17:48Z</time>
      </trkpt>
      <trkpt lat="49.52282" lon="-1.55174">
        <ele>75.5</ele>
        <time>2022-02-03T14:17:51Z</time>
      </trkpt>
      <trkpt lat="49.52277" lon="-1.55178">
        <ele>75.4</ele>
        <time>2022-02-03T14:17:55Z</time>
      </trkpt>
      <trkpt lat="49.52274" lon="-1.55184">
        <ele>74.9</ele>
        <time>2022-02-03T14:18:07Z</time>
      </trkpt>
      <trkpt lat="49.52269" lon="-1.5519">
        <ele>74.8</ele>
        <time>2022-02-03T14:18:12Z</time>
      </trkpt>
      <trkpt lat="49.52265" lon="-1.55194">
        <ele>74.9</ele>
        <time>2022-02-03T14:18:15Z</time>
      </trkpt>
      <trkpt lat="49.5226" lon="-1.55199">
        <ele>74.9</ele>
        <time>2022-02-03T14:18:19Z</time>
      </trkpt>
      <trkpt lat="49.52256" lon="-1.55203">
        <ele>74.8</ele>
        <time>2022-02-03T14:18:22Z</time>
      </trkpt>
      <trkpt lat="49.52251" lon="-1.55209">
        <ele>74.8</ele>
        <time>2022-02-03T14:18:26Z</time>
      </trkpt>
      <trkpt lat="49.52247" lon="-1.55214">
        <ele>74.8</ele>
        <time>2022-02-03T14:18:30Z</time>
      </trkpt>
      <trkpt lat="49.52242" lon="-1.55218">
        <ele>75</ele>
        <time>2022-02-03T14:18:33Z</time>
      </trkpt>
      <trkpt lat="49.52238" lon="-1.55223">
        <ele>75.1</ele>
        <time>2022-02-03T14:18:37Z</time>
      </trkpt>
      <trkpt lat="49.52233" lon="-1.55228">
        <ele>75.3</ele>
        <time>2022-02-03T14:18:41Z</time>
      </trkpt>
      <trkpt lat="49.52228" lon="-1.55234">
        <ele>75.7</ele>
        <time>2022-02-03T14:18:45Z</time>
      </trkpt>
      <trkpt lat="49.52227" lon="-1.55241">
        <ele>76.1</ele>
        <time>2022-02-03T14:18:48Z</time>
      </trkpt>
      <trkpt lat="49.52221" lon="-1.55246">
        <ele>74.8</ele>
        <time>2022-02-03T14:19:13Z</time>
      </trkpt>
      <trkpt lat="49.52216" lon="-1.55251">
        <ele>75.1</ele>
        <time>2022-02-03T14:19:17Z</time>
      </trkpt>
      <trkpt lat="49.52211" lon="-1.55256">
        <ele>75.4</ele>
        <time>2022-02-03T14:19:21Z</time>
      </trkpt>
      <trkpt lat="49.52207" lon="-1.55261">
        <ele>75.5</ele>
        <time>2022-02-03T14:19:24Z</time>
      </trkpt>
      <trkpt lat="49.52202" lon="-1.55266">
        <ele>75.4</ele>
        <time>2022-02-03T14:19:28Z</time>
      </trkpt>
      <trkpt lat="49.52198" lon="-1.5527">
        <ele>75.3</ele>
        <time>2022-02-03T14:19:31Z</time>
      </trkpt>
      <trkpt lat="49.52194" lon="-1.55276">
        <ele>74.9</ele>
        <time>2022-02-03T14:19:35Z</time>
      </trkpt>
      <trkpt lat="49.5219" lon="-1.5528">
        <ele>74.5</ele>
        <time>2022-02-03T14:19:39Z</time>
      </trkpt>
      <trkpt lat="49.52187" lon="-1.55286">
        <ele>74.4</ele>
        <time>2022-02-03T14:19:42Z</time>
      </trkpt>
      <trkpt lat="49.52182" lon="-1.55291">
        <ele>74.5</ele>
        <time>2022-02-03T14:19:47Z</time>
      </trkpt>
      <trkpt lat="49.52179" lon="-1.55297">
        <ele>74.6</ele>
        <time>2022-02-03T14:19:51Z</time>
      </trkpt>
      <trkpt lat="49.52174" lon="-1.55302">
        <ele>74.6</ele>
        <time>2022-02-03T14:19:55Z</time>
      </trkpt>
      <trkpt lat="49.52169" lon="-1.55306">
        <ele>74.7</ele>
        <time>2022-02-03T14:19:59Z</time>
      </trkpt>
      <trkpt lat="49.52166" lon="-1.55312">
        <ele>74.9</ele>
        <time>2022-02-03T14:20:02Z</time>
      </trkpt>
      <trkpt lat="49.52162" lon="-1.55318">
        <ele>75.3</ele>
        <time>2022-02-03T14:20:06Z</time>
      </trkpt>
      <trkpt lat="49.52157" lon="-1.55323">
        <ele>75.6</ele>
        <time>2022-02-03T14:20:10Z</time>
      </trkpt>
      <trkpt lat="49.52154" lon="-1.55328">
        <ele>75.8</ele>
        <time>2022-02-03T14:20:14Z</time>
      </trkpt>
      <trkpt lat="49.5215" lon="-1.55333">
        <ele>76.2</ele>
        <time>2022-02-03T14:20:17Z</time>
      </trkpt>
      <trkpt lat="49.52146" lon="-1.55338">
        <ele>76.6</ele>
        <time>2022-02-03T14:20:21Z</time>
      </trkpt>
      <trkpt lat="49.52143" lon="-1.55344">
        <ele>76.5</ele>
        <time>2022-02-03T14:20:24Z</time>
      </trkpt>
      <trkpt lat="49.5214" lon="-1.55349">
        <ele>76.5</ele>
        <time>2022-02-03T14:20:27Z</time>
      </trkpt>
      <trkpt lat="49.52137" lon="-1.55357">
        <ele>76.5</ele>
        <time>2022-02-03T14:20:31Z</time>
      </trkpt>
      <trkpt lat="49.5214" lon="-1.55364">
        <ele>76.3</ele>
        <time>2022-02-03T14:20:35Z</time>
      </trkpt>
      <trkpt lat="49.52144" lon="-1.55369">
        <ele>76.1</ele>
        <time>2022-02-03T14:20:40Z</time>
      </trkpt>
      <trkpt lat="49.52146" lon="-1.55375">
        <ele>76.4</ele>
        <time>2022-02-03T14:20:50Z</time>
      </trkpt>
      <trkpt lat="49.52148" lon="-1.55383">
        <ele>76.3</ele>
        <time>2022-02-03T14:20:54Z</time>
      </trkpt>
      <trkpt lat="49.52152" lon="-1.5539">
        <ele>75.9</ele>
        <time>2022-02-03T14:20:58Z</time>
      </trkpt>
      <trkpt lat="49.52155" lon="-1.55397">
        <ele>76.1</ele>
        <time>2022-02-03T14:21:03Z</time>
      </trkpt>
      <trkpt lat="49.52159" lon="-1.55402">
        <ele>75.9</ele>
        <time>2022-02-03T14:21:09Z</time>
      </trkpt>
      <trkpt lat="49.52162" lon="-1.55408">
        <ele>75.5</ele>
        <time>2022-02-03T14:21:13Z</time>
      </trkpt>
      <trkpt lat="49.52164" lon="-1.55415">
        <ele>75.3</ele>
        <time>2022-02-03T14:21:17Z</time>
      </trkpt>
      <trkpt lat="49.52167" lon="-1.55424">
        <ele>74.8</ele>
        <time>2022-02-03T14:21:21Z</time>
      </trkpt>
      <trkpt lat="49.5217" lon="-1.55432">
        <ele>74.4</ele>
        <time>2022-02-03T14:21:26Z</time>
      </trkpt>
      <trkpt lat="49.52173" lon="-1.55438">
        <ele>74.2</ele>
        <time>2022-02-03T14:21:29Z</time>
      </trkpt>
      <trkpt lat="49.52177" lon="-1.55444">
        <ele>74</ele>
        <time>2022-02-03T14:21:32Z</time>
      </trkpt>
      <trkpt lat="49.52181" lon="-1.55449">
        <ele>73.7</ele>
        <time>2022-02-03T14:21:35Z</time>
      </trkpt>
      <trkpt lat="49.52183" lon="-1.55456">
        <ele>73.4</ele>
        <time>2022-02-03T14:21:41Z</time>
      </trkpt>
      <trkpt lat="49.52187" lon="-1.55462">
        <ele>73.5</ele>
        <time>2022-02-03T14:21:45Z</time>
      </trkpt>
      <trkpt lat="49.52191" lon="-1.55468">
        <ele>73.1</ele>
        <time>2022-02-03T14:21:50Z</time>
      </trkpt>
      <trkpt lat="49.52195" lon="-1.55475">
        <ele>72.2</ele>
        <time>2022-02-03T14:21:54Z</time>
      </trkpt>
      <trkpt lat="49.52198" lon="-1.55482">
        <ele>71.6</ele>
        <time>2022-02-03T14:21:59Z</time>
      </trkpt>
      <trkpt lat="49.52201" lon="-1.55488">
        <ele>71.1</ele>
        <time>2022-02-03T14:22:03Z</time>
      </trkpt>
      <trkpt lat="49.52204" lon="-1.55494">
        <ele>70.6</ele>
        <time>2022-02-03T14:22:07Z</time>
      </trkpt>
      <trkpt lat="49.52206" lon="-1.55502">
        <ele>69.9</ele>
        <time>2022-02-03T14:22:12Z</time>
      </trkpt>
      <trkpt lat="49.52208" lon="-1.55511">
        <ele>69.4</ele>
        <time>2022-02-03T14:22:16Z</time>
      </trkpt>
      <trkpt lat="49.5221" lon="-1.55521">
        <ele>68.8</ele>
        <time>2022-02-03T14:22:20Z</time>
      </trkpt>
      <trkpt lat="49.52212" lon="-1.55527">
        <ele>68.1</ele>
        <time>2022-02-03T14:22:23Z</time>
      </trkpt>
      <trkpt lat="49.52215" lon="-1.55536">
        <ele>67.5</ele>
        <time>2022-02-03T14:22:27Z</time>
      </trkpt>
      <trkpt lat="49.52218" lon="-1.55544">
        <ele>66.7</ele>
        <time>2022-02-03T14:22:32Z</time>
      </trkpt>
      <trkpt lat="49.5222" lon="-1.5555">
        <ele>65.8</ele>
        <time>2022-02-03T14:22:36Z</time>
      </trkpt>
      <trkpt lat="49.52223" lon="-1.55556">
        <ele>64.8</ele>
        <time>2022-02-03T14:22:41Z</time>
      </trkpt>
      <trkpt lat="49.52227" lon="-1.55559">
        <ele>64.4</ele>
        <time>2022-02-03T14:22:48Z</time>
      </trkpt>
      <trkpt lat="49.5223" lon="-1.55565">
        <ele>62.6</ele>
        <time>2022-02-03T14:23:14Z</time>
      </trkpt>
      <trkpt lat="49.52235" lon="-1.55568">
        <ele>62.1</ele>
        <time>2022-02-03T14:23:20Z</time>
      </trkpt>
      <trkpt lat="49.52239" lon="-1.55571">
        <ele>61.7</ele>
        <time>2022-02-03T14:23:24Z</time>
      </trkpt>
      <trkpt lat="49.52244" lon="-1.55574">
        <ele>61.3</ele>
        <time>2022-02-03T14:23:28Z</time>
      </trkpt>
      <trkpt lat="49.52249" lon="-1.55576">
        <ele>60.5</ele>
        <time>2022-02-03T14:23:33Z</time>
      </trkpt>
      <trkpt lat="49.52253" lon="-1.55577">
        <ele>59.7</ele>
        <time>2022-02-03T14:23:37Z</time>
      </trkpt>
      <trkpt lat="49.52259" lon="-1.55579">
        <ele>58.3</ele>
        <time>2022-02-03T14:23:43Z</time>
      </trkpt>
      <trkpt lat="49.52264" lon="-1.5558">
        <ele>57.2</ele>
        <time>2022-02-03T14:23:46Z</time>
      </trkpt>
      <trkpt lat="49.5227" lon="-1.55581">
        <ele>56.1</ele>
        <time>2022-02-03T14:23:50Z</time>
      </trkpt>
      <trkpt lat="49.52274" lon="-1.55583">
        <ele>55</ele>
        <time>2022-02-03T14:23:53Z</time>
      </trkpt>
      <trkpt lat="49.52279" lon="-1.55584">
        <ele>54.2</ele>
        <time>2022-02-03T14:23:58Z</time>
      </trkpt>
      <trkpt lat="49.52284" lon="-1.55584">
        <ele>53.7</ele>
        <time>2022-02-03T14:24:04Z</time>
      </trkpt>
      <trkpt lat="49.52289" lon="-1.55588">
        <ele>53.6</ele>
        <time>2022-02-03T14:24:07Z</time>
      </trkpt>
      <trkpt lat="49.52294" lon="-1.55592">
        <ele>53.1</ele>
        <time>2022-02-03T14:24:11Z</time>
      </trkpt>
      <trkpt lat="49.52298" lon="-1.55597">
        <ele>52.7</ele>
        <time>2022-02-03T14:24:16Z</time>
      </trkpt>
      <trkpt lat="49.52302" lon="-1.556">
        <ele>52.1</ele>
        <time>2022-02-03T14:24:21Z</time>
      </trkpt>
      <trkpt lat="49.52306" lon="-1.55605">
        <ele>51.7</ele>
        <time>2022-02-03T14:24:25Z</time>
      </trkpt>
      <trkpt lat="49.5231" lon="-1.55609">
        <ele>50.8</ele>
        <time>2022-02-03T14:24:33Z</time>
      </trkpt>
      <trkpt lat="49.52314" lon="-1.55613">
        <ele>50.2</ele>
        <time>2022-02-03T14:24:40Z</time>
      </trkpt>
      <trkpt lat="49.52318" lon="-1.55619">
        <ele>49.8</ele>
        <time>2022-02-03T14:24:44Z</time>
      </trkpt>
      <trkpt lat="49.5232" lon="-1.55627">
        <ele>49.1</ele>
        <time>2022-02-03T14:24:52Z</time>
      </trkpt>
      <trkpt lat="49.52323" lon="-1.55632">
        <ele>48.8</ele>
        <time>2022-02-03T14:24:54Z</time>
      </trkpt>
      <trkpt lat="49.52326" lon="-1.55639">
        <ele>48.3</ele>
        <time>2022-02-03T14:24:58Z</time>
      </trkpt>
      <trkpt lat="49.52339" lon="-1.55664">
        <ele>45.4</ele>
        <time>2022-02-03T14:25:09Z</time>
      </trkpt>
      <trkpt lat="49.52343" lon="-1.55671">
        <ele>44.5</ele>
        <time>2022-02-03T14:25:14Z</time>
      </trkpt>
      <trkpt lat="49.52347" lon="-1.55675">
        <ele>44.3</ele>
        <time>2022-02-03T14:25:20Z</time>
      </trkpt>
      <trkpt lat="49.5235" lon="-1.55681">
        <ele>44.3</ele>
        <time>2022-02-03T14:25:27Z</time>
      </trkpt>
      <trkpt lat="49.52351" lon="-1.55688">
        <ele>44.1</ele>
        <time>2022-02-03T14:25:41Z</time>
      </trkpt>
      <trkpt lat="49.52353" lon="-1.55696">
        <ele>43.9</ele>
        <time>2022-02-03T14:25:46Z</time>
      </trkpt>
      <trkpt lat="49.52356" lon="-1.55702">
        <ele>43.5</ele>
        <time>2022-02-03T14:25:56Z</time>
      </trkpt>
      <trkpt lat="49.52358" lon="-1.55708">
        <ele>43.3</ele>
        <time>2022-02-03T14:26:00Z</time>
      </trkpt>
      <trkpt lat="49.52359" lon="-1.55715">
        <ele>43.5</ele>
        <time>2022-02-03T14:26:10Z</time>
      </trkpt>
      <trkpt lat="49.52359" lon="-1.55723">
        <ele>43.5</ele>
        <time>2022-02-03T14:26:22Z</time>
      </trkpt>
      <trkpt lat="49.52361" lon="-1.55729">
        <ele>43.3</ele>
        <time>2022-02-03T14:26:52Z</time>
      </trkpt>
      <trkpt lat="49.52363" lon="-1.55737">
        <ele>43.2</ele>
        <time>2022-02-03T14:27:00Z</time>
      </trkpt>
      <trkpt lat="49.52365" lon="-1.55746">
        <ele>43.2</ele>
        <time>2022-02-03T14:27:05Z</time>
      </trkpt>
      <trkpt lat="49.52366" lon="-1.55753">
        <ele>43</ele>
        <time>2022-02-03T14:27:13Z</time>
      </trkpt>
      <trkpt lat="49.52365" lon="-1.5576">
        <ele>43.2</ele>
        <time>2022-02-03T14:27:26Z</time>
      </trkpt>
      <trkpt lat="49.52364" lon="-1.55768">
        <ele>43.4</ele>
        <time>2022-02-03T14:28:00Z</time>
      </trkpt>
      <trkpt lat="49.52363" lon="-1.55775">
        <ele>43.6</ele>
        <time>2022-02-03T14:28:06Z</time>
      </trkpt>
      <trkpt lat="49.52361" lon="-1.55785">
        <ele>43.7</ele>
        <time>2022-02-03T14:28:11Z</time>
      </trkpt>
      <trkpt lat="49.5236" lon="-1.55793">
        <ele>44.5</ele>
        <time>2022-02-03T14:28:15Z</time>
      </trkpt>
      <trkpt lat="49.52357" lon="-1.55801">
        <ele>45.3</ele>
        <time>2022-02-03T14:28:22Z</time>
      </trkpt>
      <trkpt lat="49.52355" lon="-1.55807">
        <ele>45.5</ele>
        <time>2022-02-03T14:28:27Z</time>
      </trkpt>
      <trkpt lat="49.52354" lon="-1.55815">
        <ele>46</ele>
        <time>2022-02-03T14:28:44Z</time>
      </trkpt>
      <trkpt lat="49.52353" lon="-1.55823">
        <ele>46</ele>
        <time>2022-02-03T14:28:46Z</time>
      </trkpt>
      <trkpt lat="49.52352" lon="-1.55831">
        <ele>46.1</ele>
        <time>2022-02-03T14:28:52Z</time>
      </trkpt>
      <trkpt lat="49.52351" lon="-1.55838">
        <ele>47.2</ele>
        <time>2022-02-03T14:29:07Z</time>
      </trkpt>
      <trkpt lat="49.52351" lon="-1.55846">
        <ele>47.6</ele>
        <time>2022-02-03T14:29:12Z</time>
      </trkpt>
      <trkpt lat="49.52353" lon="-1.55853">
        <ele>47.9</ele>
        <time>2022-02-03T14:29:16Z</time>
      </trkpt>
      <trkpt lat="49.52355" lon="-1.55861">
        <ele>48.1</ele>
        <time>2022-02-03T14:29:20Z</time>
      </trkpt>
      <trkpt lat="49.52356" lon="-1.55868">
        <ele>48.6</ele>
        <time>2022-02-03T14:29:25Z</time>
      </trkpt>
      <trkpt lat="49.52359" lon="-1.55875">
        <ele>49.5</ele>
        <time>2022-02-03T14:29:34Z</time>
      </trkpt>
      <trkpt lat="49.52361" lon="-1.55881">
        <ele>50.6</ele>
        <time>2022-02-03T14:29:43Z</time>
      </trkpt>
      <trkpt lat="49.52365" lon="-1.55887">
        <ele>52.5</ele>
        <time>2022-02-03T14:30:04Z</time>
      </trkpt>
      <trkpt lat="49.52367" lon="-1.55894">
        <ele>52.9</ele>
        <time>2022-02-03T14:30:11Z</time>
      </trkpt>
      <trkpt lat="49.52369" lon="-1.559">
        <ele>53.2</ele>
        <time>2022-02-03T14:30:15Z</time>
      </trkpt>
      <trkpt lat="49.52372" lon="-1.55906">
        <ele>53.5</ele>
        <time>2022-02-03T14:30:18Z</time>
      </trkpt>
      <trkpt lat="49.52376" lon="-1.55912">
        <ele>53.7</ele>
        <time>2022-02-03T14:30:21Z</time>
      </trkpt>
      <trkpt lat="49.5238" lon="-1.55916">
        <ele>53.8</ele>
        <time>2022-02-03T14:30:22Z</time>
      </trkpt>
      <trkpt lat="49.52387" lon="-1.55918">
        <ele>53.8</ele>
        <time>2022-02-03T14:30:25Z</time>
      </trkpt>
      <trkpt lat="49.52391" lon="-1.5592">
        <ele>53.9</ele>
        <time>2022-02-03T14:30:27Z</time>
      </trkpt>
      <trkpt lat="49.52396" lon="-1.55922">
        <ele>54.4</ele>
        <time>2022-02-03T14:30:34Z</time>
      </trkpt>
      <trkpt lat="49.52399" lon="-1.55927">
        <ele>56</ele>
        <time>2022-02-03T14:30:44Z</time>
      </trkpt>
      <trkpt lat="49.52404" lon="-1.5593">
        <ele>56.5</ele>
        <time>2022-02-03T14:30:48Z</time>
      </trkpt>
      <trkpt lat="49.52409" lon="-1.55933">
        <ele>56.9</ele>
        <time>2022-02-03T14:30:52Z</time>
      </trkpt>
      <trkpt lat="49.52414" lon="-1.55937">
        <ele>57.3</ele>
        <time>2022-02-03T14:30:56Z</time>
      </trkpt>
      <trkpt lat="49.52419" lon="-1.55942">
        <ele>57.7</ele>
        <time>2022-02-03T14:31:00Z</time>
      </trkpt>
      <trkpt lat="49.52423" lon="-1.55945">
        <ele>58</ele>
        <time>2022-02-03T14:31:02Z</time>
      </trkpt>
      <trkpt lat="49.52429" lon="-1.55947">
        <ele>58.5</ele>
        <time>2022-02-03T14:31:05Z</time>
      </trkpt>
      <trkpt lat="49.52449" lon="-1.5596">
        <ele>60.7</ele>
        <time>2022-02-03T14:31:17Z</time>
      </trkpt>
      <trkpt lat="49.52453" lon="-1.55963">
        <ele>61.2</ele>
        <time>2022-02-03T14:31:22Z</time>
      </trkpt>
      <trkpt lat="49.52457" lon="-1.55967">
        <ele>61.6</ele>
        <time>2022-02-03T14:31:27Z</time>
      </trkpt>
      <trkpt lat="49.52462" lon="-1.55972">
        <ele>62.1</ele>
        <time>2022-02-03T14:31:34Z</time>
      </trkpt>
      <trkpt lat="49.52466" lon="-1.55975">
        <ele>63.1</ele>
        <time>2022-02-03T14:31:49Z</time>
      </trkpt>
      <trkpt lat="49.52471" lon="-1.55973">
        <ele>63.3</ele>
        <time>2022-02-03T14:31:54Z</time>
      </trkpt>
      <trkpt lat="49.52476" lon="-1.55969">
        <ele>63.5</ele>
        <time>2022-02-03T14:31:58Z</time>
      </trkpt>
      <trkpt lat="49.52483" lon="-1.55967">
        <ele>63.6</ele>
        <time>2022-02-03T14:32:02Z</time>
      </trkpt>
      <trkpt lat="49.52488" lon="-1.55968">
        <ele>64.9</ele>
        <time>2022-02-03T14:32:17Z</time>
      </trkpt>
      <trkpt lat="49.52492" lon="-1.5597">
        <ele>65</ele>
        <time>2022-02-03T14:32:21Z</time>
      </trkpt>
      <trkpt lat="49.52497" lon="-1.55973">
        <ele>65</ele>
        <time>2022-02-03T14:32:23Z</time>
      </trkpt>
      <trkpt lat="49.52503" lon="-1.55977">
        <ele>65.1</ele>
        <time>2022-02-03T14:32:27Z</time>
      </trkpt>
      <trkpt lat="49.52538" lon="-1.56021">
        <ele>67.1</ele>
        <time>2022-02-03T14:32:53Z</time>
      </trkpt>
      <trkpt lat="49.52541" lon="-1.56026">
        <ele>67.4</ele>
        <time>2022-02-03T14:32:56Z</time>
      </trkpt>
      <trkpt lat="49.52545" lon="-1.56031">
        <ele>67.8</ele>
        <time>2022-02-03T14:33:00Z</time>
      </trkpt>
      <trkpt lat="49.52549" lon="-1.56035">
        <ele>68.3</ele>
        <time>2022-02-03T14:33:04Z</time>
      </trkpt>
      <trkpt lat="49.52553" lon="-1.56041">
        <ele>68.8</ele>
        <time>2022-02-03T14:33:09Z</time>
      </trkpt>
      <trkpt lat="49.52556" lon="-1.56047">
        <ele>69</ele>
        <time>2022-02-03T14:33:13Z</time>
      </trkpt>
      <trkpt lat="49.52557" lon="-1.56054">
        <ele>70.4</ele>
        <time>2022-02-03T14:33:21Z</time>
      </trkpt>
      <trkpt lat="49.52565" lon="-1.56063">
        <ele>70.8</ele>
        <time>2022-02-03T14:33:27Z</time>
      </trkpt>
      <trkpt lat="49.5257" lon="-1.56067">
        <ele>71.3</ele>
        <time>2022-02-03T14:33:30Z</time>
      </trkpt>
      <trkpt lat="49.52582" lon="-1.56078">
        <ele>71.8</ele>
        <time>2022-02-03T14:33:37Z</time>
      </trkpt>
      <trkpt lat="49.52586" lon="-1.56084">
        <ele>71.8</ele>
        <time>2022-02-03T14:33:41Z</time>
      </trkpt>
      <trkpt lat="49.52591" lon="-1.5609">
        <ele>71.8</ele>
        <time>2022-02-03T14:33:44Z</time>
      </trkpt>
      <trkpt lat="49.52594" lon="-1.56095">
        <ele>72</ele>
        <time>2022-02-03T14:33:47Z</time>
      </trkpt>
      <trkpt lat="49.52596" lon="-1.56103">
        <ele>71.9</ele>
        <time>2022-02-03T14:33:53Z</time>
      </trkpt>
      <trkpt lat="49.52593" lon="-1.56109">
        <ele>71.7</ele>
        <time>2022-02-03T14:33:57Z</time>
      </trkpt>
      <trkpt lat="49.52588" lon="-1.56112">
        <ele>71.9</ele>
        <time>2022-02-03T14:34:01Z</time>
      </trkpt>
      <trkpt lat="49.52583" lon="-1.56114">
        <ele>71.8</ele>
        <time>2022-02-03T14:34:04Z</time>
      </trkpt>
      <trkpt lat="49.52578" lon="-1.56116">
        <ele>71.9</ele>
        <time>2022-02-03T14:34:07Z</time>
      </trkpt>
      <trkpt lat="49.52573" lon="-1.5612">
        <ele>71.8</ele>
        <time>2022-02-03T14:34:11Z</time>
      </trkpt>
      <trkpt lat="49.52569" lon="-1.56125">
        <ele>71.9</ele>
        <time>2022-02-03T14:34:15Z</time>
      </trkpt>
      <trkpt lat="49.52564" lon="-1.56131">
        <ele>72.1</ele>
        <time>2022-02-03T14:34:19Z</time>
      </trkpt>
      <trkpt lat="49.52559" lon="-1.56136">
        <ele>72.3</ele>
        <time>2022-02-03T14:34:23Z</time>
      </trkpt>
      <trkpt lat="49.52554" lon="-1.5614">
        <ele>72.4</ele>
        <time>2022-02-03T14:34:27Z</time>
      </trkpt>
      <trkpt lat="49.52549" lon="-1.56144">
        <ele>72.4</ele>
        <time>2022-02-03T14:34:31Z</time>
      </trkpt>
      <trkpt lat="49.52545" lon="-1.5615">
        <ele>72.1</ele>
        <time>2022-02-03T14:34:34Z</time>
      </trkpt>
      <trkpt lat="49.52541" lon="-1.56154">
        <ele>71.8</ele>
        <time>2022-02-03T14:34:38Z</time>
      </trkpt>
      <trkpt lat="49.52537" lon="-1.56159">
        <ele>71.8</ele>
        <time>2022-02-03T14:34:42Z</time>
      </trkpt>
      <trkpt lat="49.52532" lon="-1.56164">
        <ele>71.8</ele>
        <time>2022-02-03T14:34:46Z</time>
      </trkpt>
      <trkpt lat="49.52527" lon="-1.56168">
        <ele>71.8</ele>
        <time>2022-02-03T14:34:50Z</time>
      </trkpt>
      <trkpt lat="49.52524" lon="-1.56174">
        <ele>71.6</ele>
        <time>2022-02-03T14:34:54Z</time>
      </trkpt>
      <trkpt lat="49.5252" lon="-1.56179">
        <ele>71.6</ele>
        <time>2022-02-03T14:34:57Z</time>
      </trkpt>
      <trkpt lat="49.52516" lon="-1.56185">
        <ele>71.5</ele>
        <time>2022-02-03T14:35:01Z</time>
      </trkpt>
      <trkpt lat="49.52511" lon="-1.56191">
        <ele>71.4</ele>
        <time>2022-02-03T14:35:05Z</time>
      </trkpt>
      <trkpt lat="49.52507" lon="-1.56196">
        <ele>71.3</ele>
        <time>2022-02-03T14:35:09Z</time>
      </trkpt>
      <trkpt lat="49.52507" lon="-1.56205">
        <ele>70.9</ele>
        <time>2022-02-03T14:35:28Z</time>
      </trkpt>
      <trkpt lat="49.52503" lon="-1.56209">
        <ele>70.9</ele>
        <time>2022-02-03T14:35:31Z</time>
      </trkpt>
      <trkpt lat="49.52498" lon="-1.56213">
        <ele>71</ele>
        <time>2022-02-03T14:35:34Z</time>
      </trkpt>
      <trkpt lat="49.52495" lon="-1.56217">
        <ele>71</ele>
        <time>2022-02-03T14:35:37Z</time>
      </trkpt>
      <trkpt lat="49.52491" lon="-1.56225">
        <ele>70.8</ele>
        <time>2022-02-03T14:35:42Z</time>
      </trkpt>
      <trkpt lat="49.52488" lon="-1.56231">
        <ele>70.3</ele>
        <time>2022-02-03T14:35:47Z</time>
      </trkpt>
      <trkpt lat="49.52485" lon="-1.56236">
        <ele>70</ele>
        <time>2022-02-03T14:35:50Z</time>
      </trkpt>
      <trkpt lat="49.5248" lon="-1.56242">
        <ele>69.8</ele>
        <time>2022-02-03T14:35:53Z</time>
      </trkpt>
      <trkpt lat="49.52475" lon="-1.56248">
        <ele>69.7</ele>
        <time>2022-02-03T14:35:58Z</time>
      </trkpt>
      <trkpt lat="49.52471" lon="-1.56254">
        <ele>69.6</ele>
        <time>2022-02-03T14:36:02Z</time>
      </trkpt>
      <trkpt lat="49.52467" lon="-1.56259">
        <ele>69.5</ele>
        <time>2022-02-03T14:36:05Z</time>
      </trkpt>
      <trkpt lat="49.52463" lon="-1.56266">
        <ele>69.1</ele>
        <time>2022-02-03T14:36:09Z</time>
      </trkpt>
      <trkpt lat="49.5246" lon="-1.56273">
        <ele>68.8</ele>
        <time>2022-02-03T14:36:14Z</time>
      </trkpt>
      <trkpt lat="49.52457" lon="-1.56278">
        <ele>68.7</ele>
        <time>2022-02-03T14:36:17Z</time>
      </trkpt>
      <trkpt lat="49.52453" lon="-1.56285">
        <ele>68.7</ele>
        <time>2022-02-03T14:36:21Z</time>
      </trkpt>
      <trkpt lat="49.52451" lon="-1.56293">
        <ele>69.1</ele>
        <time>2022-02-03T14:36:26Z</time>
      </trkpt>
      <trkpt lat="49.52448" lon="-1.56299">
        <ele>69.2</ele>
        <time>2022-02-03T14:36:29Z</time>
      </trkpt>
      <trkpt lat="49.52446" lon="-1.56306">
        <ele>69.3</ele>
        <time>2022-02-03T14:36:33Z</time>
      </trkpt>
      <trkpt lat="49.52443" lon="-1.56314">
        <ele>69.4</ele>
        <time>2022-02-03T14:36:36Z</time>
      </trkpt>
      <trkpt lat="49.52442" lon="-1.56321">
        <ele>69.6</ele>
        <time>2022-02-03T14:36:40Z</time>
      </trkpt>
      <trkpt lat="49.52442" lon="-1.56331">
        <ele>69.7</ele>
        <time>2022-02-03T14:36:44Z</time>
      </trkpt>
      <trkpt lat="49.52443" lon="-1.56341">
        <ele>69.7</ele>
        <time>2022-02-03T14:36:47Z</time>
      </trkpt>
      <trkpt lat="49.52445" lon="-1.56349">
        <ele>69.6</ele>
        <time>2022-02-03T14:36:50Z</time>
      </trkpt>
      <trkpt lat="49.52448" lon="-1.56356">
        <ele>69.4</ele>
        <time>2022-02-03T14:36:53Z</time>
      </trkpt>
      <trkpt lat="49.52451" lon="-1.56363">
        <ele>69.4</ele>
        <time>2022-02-03T14:36:56Z</time>
      </trkpt>
      <trkpt lat="49.52453" lon="-1.56369">
        <ele>69.5</ele>
        <time>2022-02-03T14:36:59Z</time>
      </trkpt>
      <trkpt lat="49.52454" lon="-1.56377">
        <ele>69.8</ele>
        <time>2022-02-03T14:37:02Z</time>
      </trkpt>
      <trkpt lat="49.52427" lon="-1.56429">
        <ele>70.7</ele>
        <time>2022-02-03T14:37:28Z</time>
      </trkpt>
      <trkpt lat="49.52425" lon="-1.56438">
        <ele>70.6</ele>
        <time>2022-02-03T14:37:32Z</time>
      </trkpt>
      <trkpt lat="49.52423" lon="-1.56446">
        <ele>70.6</ele>
        <time>2022-02-03T14:37:36Z</time>
      </trkpt>
      <trkpt lat="49.52422" lon="-1.56454">
        <ele>70.4</ele>
        <time>2022-02-03T14:37:40Z</time>
      </trkpt>
      <trkpt lat="49.52421" lon="-1.56462">
        <ele>70.2</ele>
        <time>2022-02-03T14:37:44Z</time>
      </trkpt>
      <trkpt lat="49.52422" lon="-1.56469">
        <ele>70.4</ele>
        <time>2022-02-03T14:38:00Z</time>
      </trkpt>
      <trkpt lat="49.52412" lon="-1.56511">
        <ele>68.8</ele>
        <time>2022-02-03T14:38:17Z</time>
      </trkpt>
      <trkpt lat="49.52411" lon="-1.56518">
        <ele>68.6</ele>
        <time>2022-02-03T14:38:21Z</time>
      </trkpt>
      <trkpt lat="49.52408" lon="-1.56526">
        <ele>68.6</ele>
        <time>2022-02-03T14:38:24Z</time>
      </trkpt>
      <trkpt lat="49.52406" lon="-1.56533">
        <ele>68.7</ele>
        <time>2022-02-03T14:38:27Z</time>
      </trkpt>
      <trkpt lat="49.52405" lon="-1.5654">
        <ele>68.7</ele>
        <time>2022-02-03T14:38:30Z</time>
      </trkpt>
      <trkpt lat="49.52403" lon="-1.56546">
        <ele>68.6</ele>
        <time>2022-02-03T14:38:34Z</time>
      </trkpt>
      <trkpt lat="49.52402" lon="-1.56553">
        <ele>68.6</ele>
        <time>2022-02-03T14:38:38Z</time>
      </trkpt>
      <trkpt lat="49.52399" lon="-1.5656">
        <ele>68.6</ele>
        <time>2022-02-03T14:38:41Z</time>
      </trkpt>
      <trkpt lat="49.52397" lon="-1.56568">
        <ele>68.7</ele>
        <time>2022-02-03T14:38:44Z</time>
      </trkpt>
      <trkpt lat="49.52393" lon="-1.56574">
        <ele>68.6</ele>
        <time>2022-02-03T14:38:47Z</time>
      </trkpt>
      <trkpt lat="49.52389" lon="-1.5658">
        <ele>68.6</ele>
        <time>2022-02-03T14:38:51Z</time>
      </trkpt>
      <trkpt lat="49.52381" lon="-1.56596">
        <ele>68.1</ele>
        <time>2022-02-03T14:38:58Z</time>
      </trkpt>
      <trkpt lat="49.52379" lon="-1.56603">
        <ele>68.1</ele>
        <time>2022-02-03T14:39:01Z</time>
      </trkpt>
      <trkpt lat="49.52376" lon="-1.56613">
        <ele>68.1</ele>
        <time>2022-02-03T14:39:05Z</time>
      </trkpt>
      <trkpt lat="49.52372" lon="-1.56623">
        <ele>67.9</ele>
        <time>2022-02-03T14:39:09Z</time>
      </trkpt>
      <trkpt lat="49.52372" lon="-1.56629">
        <ele>67.7</ele>
        <time>2022-02-03T14:39:13Z</time>
      </trkpt>
      <trkpt lat="49.5237" lon="-1.56638">
        <ele>67.6</ele>
        <time>2022-02-03T14:39:37Z</time>
      </trkpt>
      <trkpt lat="49.52365" lon="-1.56645">
        <ele>67.6</ele>
        <time>2022-02-03T14:39:39Z</time>
      </trkpt>
      <trkpt lat="49.52361" lon="-1.56651">
        <ele>67.5</ele>
        <time>2022-02-03T14:39:41Z</time>
      </trkpt>
      <trkpt lat="49.52358" lon="-1.56659">
        <ele>67.5</ele>
        <time>2022-02-03T14:39:45Z</time>
      </trkpt>
      <trkpt lat="49.52356" lon="-1.56666">
        <ele>67.3</ele>
        <time>2022-02-03T14:39:48Z</time>
      </trkpt>
      <trkpt lat="49.52353" lon="-1.56674">
        <ele>67.1</ele>
        <time>2022-02-03T14:39:51Z</time>
      </trkpt>
      <trkpt lat="49.52351" lon="-1.56681">
        <ele>67</ele>
        <time>2022-02-03T14:39:55Z</time>
      </trkpt>
      <trkpt lat="49.52347" lon="-1.56688">
        <ele>67</ele>
        <time>2022-02-03T14:39:59Z</time>
      </trkpt>
      <trkpt lat="49.52345" lon="-1.56694">
        <ele>67</ele>
        <time>2022-02-03T14:40:02Z</time>
      </trkpt>
      <trkpt lat="49.5234" lon="-1.567">
        <ele>66.9</ele>
        <time>2022-02-03T14:40:06Z</time>
      </trkpt>
      <trkpt lat="49.52335" lon="-1.56706">
        <ele>66.8</ele>
        <time>2022-02-03T14:40:10Z</time>
      </trkpt>
      <trkpt lat="49.52332" lon="-1.56712">
        <ele>66.4</ele>
        <time>2022-02-03T14:40:14Z</time>
      </trkpt>
      <trkpt lat="49.52329" lon="-1.56718">
        <ele>66.1</ele>
        <time>2022-02-03T14:40:17Z</time>
      </trkpt>
      <trkpt lat="49.52326" lon="-1.56723">
        <ele>65.9</ele>
        <time>2022-02-03T14:40:20Z</time>
      </trkpt>
      <trkpt lat="49.52323" lon="-1.56729">
        <ele>65.8</ele>
        <time>2022-02-03T14:40:24Z</time>
      </trkpt>
      <trkpt lat="49.5232" lon="-1.56736">
        <ele>65.5</ele>
        <time>2022-02-03T14:40:28Z</time>
      </trkpt>
      <trkpt lat="49.52318" lon="-1.56744">
        <ele>65.4</ele>
        <time>2022-02-03T14:40:33Z</time>
      </trkpt>
      <trkpt lat="49.52316" lon="-1.56751">
        <ele>65.6</ele>
        <time>2022-02-03T14:40:36Z</time>
      </trkpt>
      <trkpt lat="49.52313" lon="-1.56758">
        <ele>65.7</ele>
        <time>2022-02-03T14:40:39Z</time>
      </trkpt>
      <trkpt lat="49.52311" lon="-1.56765">
        <ele>65.4</ele>
        <time>2022-02-03T14:40:43Z</time>
      </trkpt>
      <trkpt lat="49.52308" lon="-1.56772">
        <ele>65.2</ele>
        <time>2022-02-03T14:40:47Z</time>
      </trkpt>
      <trkpt lat="49.52306" lon="-1.56779">
        <ele>65.2</ele>
        <time>2022-02-03T14:40:50Z</time>
      </trkpt>
      <trkpt lat="49.52303" lon="-1.56785">
        <ele>65.1</ele>
        <time>2022-02-03T14:40:53Z</time>
      </trkpt>
      <trkpt lat="49.523" lon="-1.56791">
        <ele>65.1</ele>
        <time>2022-02-03T14:40:57Z</time>
      </trkpt>
      <trkpt lat="49.52297" lon="-1.56798">
        <ele>65.1</ele>
        <time>2022-02-03T14:41:00Z</time>
      </trkpt>
      <trkpt lat="49.52294" lon="-1.56804">
        <ele>65.1</ele>
        <time>2022-02-03T14:41:03Z</time>
      </trkpt>
      <trkpt lat="49.5229" lon="-1.56811">
        <ele>64.8</ele>
        <time>2022-02-03T14:41:08Z</time>
      </trkpt>
      <trkpt lat="49.52287" lon="-1.56816">
        <ele>64.6</ele>
        <time>2022-02-03T14:41:11Z</time>
      </trkpt>
      <trkpt lat="49.52283" lon="-1.56822">
        <ele>64.5</ele>
        <time>2022-02-03T14:41:15Z</time>
      </trkpt>
      <trkpt lat="49.5228" lon="-1.5683">
        <ele>64.7</ele>
        <time>2022-02-03T14:41:18Z</time>
      </trkpt>
      <trkpt lat="49.52276" lon="-1.56837">
        <ele>64.7</ele>
        <time>2022-02-03T14:41:22Z</time>
      </trkpt>
      <trkpt lat="49.52273" lon="-1.56843">
        <ele>64.6</ele>
        <time>2022-02-03T14:41:25Z</time>
      </trkpt>
      <trkpt lat="49.5227" lon="-1.56848">
        <ele>64.3</ele>
        <time>2022-02-03T14:41:28Z</time>
      </trkpt>
      <trkpt lat="49.52267" lon="-1.56855">
        <ele>64</ele>
        <time>2022-02-03T14:41:32Z</time>
      </trkpt>
      <trkpt lat="49.52264" lon="-1.5686">
        <ele>63.9</ele>
        <time>2022-02-03T14:41:35Z</time>
      </trkpt>
      <trkpt lat="49.52261" lon="-1.56867">
        <ele>63.8</ele>
        <time>2022-02-03T14:41:39Z</time>
      </trkpt>
      <trkpt lat="49.52259" lon="-1.56875">
        <ele>63.6</ele>
        <time>2022-02-03T14:41:43Z</time>
      </trkpt>
      <trkpt lat="49.52258" lon="-1.56882">
        <ele>63.4</ele>
        <time>2022-02-03T14:41:47Z</time>
      </trkpt>
      <trkpt lat="49.52256" lon="-1.5689">
        <ele>63.1</ele>
        <time>2022-02-03T14:41:50Z</time>
      </trkpt>
      <trkpt lat="49.52254" lon="-1.56897">
        <ele>62.9</ele>
        <time>2022-02-03T14:41:54Z</time>
      </trkpt>
      <trkpt lat="49.52251" lon="-1.56903">
        <ele>62.9</ele>
        <time>2022-02-03T14:41:57Z</time>
      </trkpt>
      <trkpt lat="49.52247" lon="-1.56909">
        <ele>62.8</ele>
        <time>2022-02-03T14:42:00Z</time>
      </trkpt>
      <trkpt lat="49.52243" lon="-1.56915">
        <ele>62.8</ele>
        <time>2022-02-03T14:42:03Z</time>
      </trkpt>
      <trkpt lat="49.5224" lon="-1.56923">
        <ele>62.5</ele>
        <time>2022-02-03T14:42:06Z</time>
      </trkpt>
      <trkpt lat="49.52237" lon="-1.56929">
        <ele>62.4</ele>
        <time>2022-02-03T14:42:09Z</time>
      </trkpt>
      <trkpt lat="49.52233" lon="-1.56935">
        <ele>62.3</ele>
        <time>2022-02-03T14:42:13Z</time>
      </trkpt>
      <trkpt lat="49.5223" lon="-1.56941">
        <ele>62.2</ele>
        <time>2022-02-03T14:42:16Z</time>
      </trkpt>
      <trkpt lat="49.52228" lon="-1.56947">
        <ele>62</ele>
        <time>2022-02-03T14:42:19Z</time>
      </trkpt>
      <trkpt lat="49.52222" lon="-1.56958">
        <ele>61.4</ele>
        <time>2022-02-03T14:42:25Z</time>
      </trkpt>
      <trkpt lat="49.52219" lon="-1.56965">
        <ele>60.9</ele>
        <time>2022-02-03T14:42:29Z</time>
      </trkpt>
      <trkpt lat="49.52215" lon="-1.56971">
        <ele>60.7</ele>
        <time>2022-02-03T14:42:32Z</time>
      </trkpt>
      <trkpt lat="49.52213" lon="-1.56978">
        <ele>60.6</ele>
        <time>2022-02-03T14:42:35Z</time>
      </trkpt>
      <trkpt lat="49.52209" lon="-1.56985">
        <ele>60.2</ele>
        <time>2022-02-03T14:42:40Z</time>
      </trkpt>
      <trkpt lat="49.52206" lon="-1.56991">
        <ele>59.9</ele>
        <time>2022-02-03T14:42:43Z</time>
      </trkpt>
      <trkpt lat="49.52203" lon="-1.56999">
        <ele>59.8</ele>
        <time>2022-02-03T14:42:47Z</time>
      </trkpt>
      <trkpt lat="49.522" lon="-1.57006">
        <ele>59.6</ele>
        <time>2022-02-03T14:42:50Z</time>
      </trkpt>
      <trkpt lat="49.52198" lon="-1.57012">
        <ele>59.6</ele>
        <time>2022-02-03T14:42:53Z</time>
      </trkpt>
      <trkpt lat="49.52194" lon="-1.57019">
        <ele>59.5</ele>
        <time>2022-02-03T14:42:57Z</time>
      </trkpt>
      <trkpt lat="49.52192" lon="-1.57026">
        <ele>59.4</ele>
        <time>2022-02-03T14:43:00Z</time>
      </trkpt>
      <trkpt lat="49.52189" lon="-1.57033">
        <ele>59.2</ele>
        <time>2022-02-03T14:43:04Z</time>
      </trkpt>
      <trkpt lat="49.52186" lon="-1.5704">
        <ele>59</ele>
        <time>2022-02-03T14:43:08Z</time>
      </trkpt>
      <trkpt lat="49.52183" lon="-1.57047">
        <ele>58.9</ele>
        <time>2022-02-03T14:43:11Z</time>
      </trkpt>
      <trkpt lat="49.52172" lon="-1.57061">
        <ele>58.7</ele>
        <time>2022-02-03T14:43:21Z</time>
      </trkpt>
      <trkpt lat="49.52133" lon="-1.57069">
        <ele>57.5</ele>
        <time>2022-02-03T14:43:47Z</time>
      </trkpt>
      <trkpt lat="49.52128" lon="-1.57071">
        <ele>57.4</ele>
        <time>2022-02-03T14:43:50Z</time>
      </trkpt>
      <trkpt lat="49.52123" lon="-1.57073">
        <ele>56.9</ele>
        <time>2022-02-03T14:43:54Z</time>
      </trkpt>
      <trkpt lat="49.52119" lon="-1.57076">
        <ele>56.4</ele>
        <time>2022-02-03T14:43:56Z</time>
      </trkpt>
      <trkpt lat="49.52115" lon="-1.5708">
        <ele>55.7</ele>
        <time>2022-02-03T14:44:00Z</time>
      </trkpt>
      <trkpt lat="49.5211" lon="-1.57084">
        <ele>55.3</ele>
        <time>2022-02-03T14:44:04Z</time>
      </trkpt>
      <trkpt lat="49.52105" lon="-1.57089">
        <ele>55.3</ele>
        <time>2022-02-03T14:44:08Z</time>
      </trkpt>
      <trkpt lat="49.52101" lon="-1.57094">
        <ele>55.5</ele>
        <time>2022-02-03T14:44:11Z</time>
      </trkpt>
      <trkpt lat="49.52098" lon="-1.571">
        <ele>55.6</ele>
        <time>2022-02-03T14:44:14Z</time>
      </trkpt>
      <trkpt lat="49.52095" lon="-1.57107">
        <ele>55.5</ele>
        <time>2022-02-03T14:44:18Z</time>
      </trkpt>
      <trkpt lat="49.52092" lon="-1.57113">
        <ele>55</ele>
        <time>2022-02-03T14:44:21Z</time>
      </trkpt>
      <trkpt lat="49.52085" lon="-1.57131">
        <ele>54.1</ele>
        <time>2022-02-03T14:44:31Z</time>
      </trkpt>
      <trkpt lat="49.52084" lon="-1.57137">
        <ele>54.2</ele>
        <time>2022-02-03T14:44:34Z</time>
      </trkpt>
      <trkpt lat="49.52081" lon="-1.57144">
        <ele>54.2</ele>
        <time>2022-02-03T14:44:37Z</time>
      </trkpt>
      <trkpt lat="49.52062" lon="-1.57193">
        <ele>53.4</ele>
        <time>2022-02-03T14:45:01Z</time>
      </trkpt>
      <trkpt lat="49.52059" lon="-1.57199">
        <ele>53.4</ele>
        <time>2022-02-03T14:45:04Z</time>
      </trkpt>
      <trkpt lat="49.52056" lon="-1.57207">
        <ele>53.5</ele>
        <time>2022-02-03T14:45:08Z</time>
      </trkpt>
      <trkpt lat="49.52049" lon="-1.57225">
        <ele>54.3</ele>
        <time>2022-02-03T14:45:14Z</time>
      </trkpt>
      <trkpt lat="49.52046" lon="-1.57232">
        <ele>54.6</ele>
        <time>2022-02-03T14:45:17Z</time>
      </trkpt>
      <trkpt lat="49.52043" lon="-1.57239">
        <ele>54.8</ele>
        <time>2022-02-03T14:45:21Z</time>
      </trkpt>
      <trkpt lat="49.52036" lon="-1.57254">
        <ele>54.1</ele>
        <time>2022-02-03T14:45:30Z</time>
      </trkpt>
      <trkpt lat="49.52033" lon="-1.57261">
        <ele>53.8</ele>
        <time>2022-02-03T14:45:34Z</time>
      </trkpt>
      <trkpt lat="49.52029" lon="-1.57267">
        <ele>53.6</ele>
        <time>2022-02-03T14:45:37Z</time>
      </trkpt>
      <trkpt lat="49.52027" lon="-1.57272">
        <ele>53.4</ele>
        <time>2022-02-03T14:45:40Z</time>
      </trkpt>
      <trkpt lat="49.52024" lon="-1.57279">
        <ele>53.3</ele>
        <time>2022-02-03T14:45:44Z</time>
      </trkpt>
      <trkpt lat="49.52015" lon="-1.57302">
        <ele>53</ele>
        <time>2022-02-03T14:45:55Z</time>
      </trkpt>
      <trkpt lat="49.52012" lon="-1.57309">
        <ele>53.1</ele>
        <time>2022-02-03T14:45:58Z</time>
      </trkpt>
      <trkpt lat="49.5201" lon="-1.57316">
        <ele>53.1</ele>
        <time>2022-02-03T14:46:01Z</time>
      </trkpt>
      <trkpt lat="49.52008" lon="-1.57325">
        <ele>53.1</ele>
        <time>2022-02-03T14:46:05Z</time>
      </trkpt>
      <trkpt lat="49.52006" lon="-1.57334">
        <ele>52.9</ele>
        <time>2022-02-03T14:46:09Z</time>
      </trkpt>
      <trkpt lat="49.52006" lon="-1.57341">
        <ele>52.7</ele>
        <time>2022-02-03T14:46:12Z</time>
      </trkpt>
      <trkpt lat="49.52005" lon="-1.57348">
        <ele>52.4</ele>
        <time>2022-02-03T14:46:15Z</time>
      </trkpt>
      <trkpt lat="49.52005" lon="-1.57357">
        <ele>52.2</ele>
        <time>2022-02-03T14:46:19Z</time>
      </trkpt>
      <trkpt lat="49.52004" lon="-1.57364">
        <ele>52.1</ele>
        <time>2022-02-03T14:46:22Z</time>
      </trkpt>
      <trkpt lat="49.52002" lon="-1.57373">
        <ele>52.2</ele>
        <time>2022-02-03T14:46:26Z</time>
      </trkpt>
      <trkpt lat="49.52001" lon="-1.57379">
        <ele>52.2</ele>
        <time>2022-02-03T14:46:29Z</time>
      </trkpt>
      <trkpt lat="49.51998" lon="-1.57387">
        <ele>52.3</ele>
        <time>2022-02-03T14:46:33Z</time>
      </trkpt>
      <trkpt lat="49.51995" lon="-1.57395">
        <ele>52.3</ele>
        <time>2022-02-03T14:46:37Z</time>
      </trkpt>
      <trkpt lat="49.51992" lon="-1.574">
        <ele>52.2</ele>
        <time>2022-02-03T14:46:41Z</time>
      </trkpt>
      <trkpt lat="49.51988" lon="-1.57405">
        <ele>52.1</ele>
        <time>2022-02-03T14:46:44Z</time>
      </trkpt>
      <trkpt lat="49.51983" lon="-1.57407">
        <ele>51.4</ele>
        <time>2022-02-03T14:47:07Z</time>
      </trkpt>
      <trkpt lat="49.51978" lon="-1.5741">
        <ele>51.3</ele>
        <time>2022-02-03T14:47:09Z</time>
      </trkpt>
      <trkpt lat="49.51973" lon="-1.57415">
        <ele>51.2</ele>
        <time>2022-02-03T14:47:12Z</time>
      </trkpt>
      <trkpt lat="49.51968" lon="-1.57422">
        <ele>51.1</ele>
        <time>2022-02-03T14:47:14Z</time>
      </trkpt>
      <trkpt lat="49.51964" lon="-1.57429">
        <ele>51.1</ele>
        <time>2022-02-03T14:47:16Z</time>
      </trkpt>
      <trkpt lat="49.51959" lon="-1.57434">
        <ele>51.1</ele>
        <time>2022-02-03T14:47:19Z</time>
      </trkpt>
      <trkpt lat="49.51955" lon="-1.57438">
        <ele>51.2</ele>
        <time>2022-02-03T14:47:22Z</time>
      </trkpt>
      <trkpt lat="49.51949" lon="-1.5744">
        <ele>51.2</ele>
        <time>2022-02-03T14:47:26Z</time>
      </trkpt>
      <trkpt lat="49.51943" lon="-1.57442">
        <ele>50.8</ele>
        <time>2022-02-03T14:47:31Z</time>
      </trkpt>
      <trkpt lat="49.51938" lon="-1.57447">
        <ele>50.2</ele>
        <time>2022-02-03T14:47:34Z</time>
      </trkpt>
      <trkpt lat="49.51932" lon="-1.57449">
        <ele>49.5</ele>
        <time>2022-02-03T14:47:38Z</time>
      </trkpt>
      <trkpt lat="49.51928" lon="-1.57448">
        <ele>49.5</ele>
        <time>2022-02-03T14:47:41Z</time>
      </trkpt>
      <trkpt lat="49.51923" lon="-1.57445">
        <ele>49.5</ele>
        <time>2022-02-03T14:47:45Z</time>
      </trkpt>
      <trkpt lat="49.51918" lon="-1.57444">
        <ele>49.7</ele>
        <time>2022-02-03T14:47:51Z</time>
      </trkpt>
      <trkpt lat="49.51913" lon="-1.57441">
        <ele>49.7</ele>
        <time>2022-02-03T14:47:56Z</time>
      </trkpt>
      <trkpt lat="49.51911" lon="-1.57435">
        <ele>49.7</ele>
        <time>2022-02-03T14:48:10Z</time>
      </trkpt>
      <trkpt lat="49.51907" lon="-1.57429">
        <ele>49</ele>
        <time>2022-02-03T14:48:28Z</time>
      </trkpt>
      <trkpt lat="49.51902" lon="-1.57426">
        <ele>48.9</ele>
        <time>2022-02-03T14:48:31Z</time>
      </trkpt>
      <trkpt lat="49.51896" lon="-1.57423">
        <ele>48.6</ele>
        <time>2022-02-03T14:48:34Z</time>
      </trkpt>
      <trkpt lat="49.51892" lon="-1.57418">
        <ele>48.4</ele>
        <time>2022-02-03T14:48:38Z</time>
      </trkpt>
      <trkpt lat="49.51888" lon="-1.57414">
        <ele>48.3</ele>
        <time>2022-02-03T14:48:42Z</time>
      </trkpt>
      <trkpt lat="49.51884" lon="-1.57409">
        <ele>48.2</ele>
        <time>2022-02-03T14:48:44Z</time>
      </trkpt>
      <trkpt lat="49.51878" lon="-1.57406">
        <ele>47.3</ele>
        <time>2022-02-03T14:48:49Z</time>
      </trkpt>
      <trkpt lat="49.51874" lon="-1.57403">
        <ele>46.5</ele>
        <time>2022-02-03T14:48:52Z</time>
      </trkpt>
      <trkpt lat="49.51869" lon="-1.57398">
        <ele>45.9</ele>
        <time>2022-02-03T14:48:55Z</time>
      </trkpt>
      <trkpt lat="49.51866" lon="-1.57392">
        <ele>45.2</ele>
        <time>2022-02-03T14:48:59Z</time>
      </trkpt>
      <trkpt lat="49.51863" lon="-1.57386">
        <ele>44.6</ele>
        <time>2022-02-03T14:49:03Z</time>
      </trkpt>
      <trkpt lat="49.51859" lon="-1.57379">
        <ele>44.3</ele>
        <time>2022-02-03T14:49:07Z</time>
      </trkpt>
      <trkpt lat="49.51854" lon="-1.57374">
        <ele>44.1</ele>
        <time>2022-02-03T14:49:11Z</time>
      </trkpt>
      <trkpt lat="49.5185" lon="-1.57369">
        <ele>44</ele>
        <time>2022-02-03T14:49:14Z</time>
      </trkpt>
      <trkpt lat="49.51847" lon="-1.57363">
        <ele>43.8</ele>
        <time>2022-02-03T14:49:17Z</time>
      </trkpt>
      <trkpt lat="49.51843" lon="-1.57359">
        <ele>43.6</ele>
        <time>2022-02-03T14:49:21Z</time>
      </trkpt>
      <trkpt lat="49.51838" lon="-1.57359">
        <ele>43.1</ele>
        <time>2022-02-03T14:49:24Z</time>
      </trkpt>
      <trkpt lat="49.51832" lon="-1.57357">
        <ele>42.2</ele>
        <time>2022-02-03T14:49:29Z</time>
      </trkpt>
      <trkpt lat="49.51828" lon="-1.57354">
        <ele>41.2</ele>
        <time>2022-02-03T14:49:32Z</time>
      </trkpt>
      <trkpt lat="49.51822" lon="-1.57351">
        <ele>40</ele>
        <time>2022-02-03T14:49:37Z</time>
      </trkpt>
      <trkpt lat="49.51817" lon="-1.57349">
        <ele>39.2</ele>
        <time>2022-02-03T14:49:40Z</time>
      </trkpt>
      <trkpt lat="49.51812" lon="-1.57349">
        <ele>38.6</ele>
        <time>2022-02-03T14:49:43Z</time>
      </trkpt>
      <trkpt lat="49.51808" lon="-1.57351">
        <ele>37.7</ele>
        <time>2022-02-03T14:49:47Z</time>
      </trkpt>
      <trkpt lat="49.51801" lon="-1.57351">
        <ele>37.1</ele>
        <time>2022-02-03T14:49:52Z</time>
      </trkpt>
      <trkpt lat="49.51795" lon="-1.57353">
        <ele>36.7</ele>
        <time>2022-02-03T14:49:56Z</time>
      </trkpt>
      <trkpt lat="49.5179" lon="-1.57355">
        <ele>36.1</ele>
        <time>2022-02-03T14:50:00Z</time>
      </trkpt>
      <trkpt lat="49.51785" lon="-1.57359">
        <ele>35.3</ele>
        <time>2022-02-03T14:50:05Z</time>
      </trkpt>
      <trkpt lat="49.5178" lon="-1.57361">
        <ele>34.8</ele>
        <time>2022-02-03T14:50:08Z</time>
      </trkpt>
      <trkpt lat="49.51775" lon="-1.57361">
        <ele>34.4</ele>
        <time>2022-02-03T14:50:11Z</time>
      </trkpt>
      <trkpt lat="49.51769" lon="-1.57363">
        <ele>34.6</ele>
        <time>2022-02-03T14:50:14Z</time>
      </trkpt>
      <trkpt lat="49.51764" lon="-1.57364">
        <ele>35</ele>
        <time>2022-02-03T14:50:18Z</time>
      </trkpt>
      <trkpt lat="49.5176" lon="-1.57366">
        <ele>35.3</ele>
        <time>2022-02-03T14:50:22Z</time>
      </trkpt>
      <trkpt lat="49.51756" lon="-1.57372">
        <ele>34.9</ele>
        <time>2022-02-03T14:50:27Z</time>
      </trkpt>
      <trkpt lat="49.5175" lon="-1.57373">
        <ele>34.3</ele>
        <time>2022-02-03T14:50:32Z</time>
      </trkpt>
      <trkpt lat="49.51745" lon="-1.57372">
        <ele>34.3</ele>
        <time>2022-02-03T14:50:36Z</time>
      </trkpt>
      <trkpt lat="49.51739" lon="-1.57371">
        <ele>34</ele>
        <time>2022-02-03T14:50:40Z</time>
      </trkpt>
      <trkpt lat="49.51734" lon="-1.57371">
        <ele>33.5</ele>
        <time>2022-02-03T14:50:45Z</time>
      </trkpt>
      <trkpt lat="49.51729" lon="-1.57371">
        <ele>33.5</ele>
        <time>2022-02-03T14:50:48Z</time>
      </trkpt>
      <trkpt lat="49.51724" lon="-1.57374">
        <ele>33.9</ele>
        <time>2022-02-03T14:50:53Z</time>
      </trkpt>
      <trkpt lat="49.51719" lon="-1.57377">
        <ele>34.3</ele>
        <time>2022-02-03T14:50:57Z</time>
      </trkpt>
      <trkpt lat="49.51714" lon="-1.5738">
        <ele>34.4</ele>
        <time>2022-02-03T14:51:02Z</time>
      </trkpt>
      <trkpt lat="49.51709" lon="-1.57383">
        <ele>34.5</ele>
        <time>2022-02-03T14:51:05Z</time>
      </trkpt>
      <trkpt lat="49.51706" lon="-1.57387">
        <ele>34.5</ele>
        <time>2022-02-03T14:51:08Z</time>
      </trkpt>
      <trkpt lat="49.51702" lon="-1.57392">
        <ele>34.6</ele>
        <time>2022-02-03T14:51:16Z</time>
      </trkpt>
      <trkpt lat="49.51697" lon="-1.57396">
        <ele>34.9</ele>
        <time>2022-02-03T14:51:22Z</time>
      </trkpt>
      <trkpt lat="49.51692" lon="-1.57399">
        <ele>35.1</ele>
        <time>2022-02-03T14:51:25Z</time>
      </trkpt>
      <trkpt lat="49.51687" lon="-1.57403">
        <ele>35.6</ele>
        <time>2022-02-03T14:51:32Z</time>
      </trkpt>
      <trkpt lat="49.51682" lon="-1.57406">
        <ele>36</ele>
        <time>2022-02-03T14:51:36Z</time>
      </trkpt>
      <trkpt lat="49.51677" lon="-1.57409">
        <ele>36.2</ele>
        <time>2022-02-03T14:51:39Z</time>
      </trkpt>
      <trkpt lat="49.51672" lon="-1.57412">
        <ele>36.8</ele>
        <time>2022-02-03T14:51:45Z</time>
      </trkpt>
      <trkpt lat="49.51667" lon="-1.57414">
        <ele>37.4</ele>
        <time>2022-02-03T14:51:49Z</time>
      </trkpt>
      <trkpt lat="49.51661" lon="-1.57416">
        <ele>39.1</ele>
        <time>2022-02-03T14:52:09Z</time>
      </trkpt>
      <trkpt lat="49.51654" lon="-1.57418">
        <ele>39.3</ele>
        <time>2022-02-03T14:52:12Z</time>
      </trkpt>
      <trkpt lat="49.5165" lon="-1.57418">
        <ele>39.5</ele>
        <time>2022-02-03T14:52:14Z</time>
      </trkpt>
      <trkpt lat="49.51643" lon="-1.5742">
        <ele>39.7</ele>
        <time>2022-02-03T14:52:18Z</time>
      </trkpt>
      <trkpt lat="49.51637" lon="-1.57423">
        <ele>39.9</ele>
        <time>2022-02-03T14:52:21Z</time>
      </trkpt>
      <trkpt lat="49.51624" lon="-1.57428">
        <ele>40.1</ele>
        <time>2022-02-03T14:52:27Z</time>
      </trkpt>
      <trkpt lat="49.5162" lon="-1.57425">
        <ele>41</ele>
        <time>2022-02-03T14:52:32Z</time>
      </trkpt>
      <trkpt lat="49.51618" lon="-1.57419">
        <ele>42.5</ele>
        <time>2022-02-03T14:52:43Z</time>
      </trkpt>
      <trkpt lat="49.51613" lon="-1.57415">
        <ele>42.8</ele>
        <time>2022-02-03T14:52:52Z</time>
      </trkpt>
      <trkpt lat="49.51608" lon="-1.57412">
        <ele>42.8</ele>
        <time>2022-02-03T14:52:54Z</time>
      </trkpt>
      <trkpt lat="49.51604" lon="-1.5741">
        <ele>42.8</ele>
        <time>2022-02-03T14:52:57Z</time>
      </trkpt>
      <trkpt lat="49.51599" lon="-1.57409">
        <ele>42.9</ele>
        <time>2022-02-03T14:53:00Z</time>
      </trkpt>
      <trkpt lat="49.51593" lon="-1.5741">
        <ele>43.1</ele>
        <time>2022-02-03T14:53:04Z</time>
      </trkpt>
      <trkpt lat="49.51589" lon="-1.57411">
        <ele>43.1</ele>
        <time>2022-02-03T14:53:08Z</time>
      </trkpt>
      <trkpt lat="49.51583" lon="-1.57411">
        <ele>42.9</ele>
        <time>2022-02-03T14:53:12Z</time>
      </trkpt>
      <trkpt lat="49.51578" lon="-1.57411">
        <ele>43.1</ele>
        <time>2022-02-03T14:53:17Z</time>
      </trkpt>
      <trkpt lat="49.51573" lon="-1.5741">
        <ele>43.6</ele>
        <time>2022-02-03T14:53:22Z</time>
      </trkpt>
      <trkpt lat="49.51569" lon="-1.57407">
        <ele>44</ele>
        <time>2022-02-03T14:53:26Z</time>
      </trkpt>
      <trkpt lat="49.51564" lon="-1.57405">
        <ele>44.5</ele>
        <time>2022-02-03T14:53:30Z</time>
      </trkpt>
      <trkpt lat="49.51559" lon="-1.57402">
        <ele>45</ele>
        <time>2022-02-03T14:53:34Z</time>
      </trkpt>
      <trkpt lat="49.51554" lon="-1.57397">
        <ele>45.2</ele>
        <time>2022-02-03T14:53:38Z</time>
      </trkpt>
      <trkpt lat="49.51549" lon="-1.57392">
        <ele>45.4</ele>
        <time>2022-02-03T14:53:43Z</time>
      </trkpt>
      <trkpt lat="49.51544" lon="-1.5739">
        <ele>45.8</ele>
        <time>2022-02-03T14:53:47Z</time>
      </trkpt>
      <trkpt lat="49.5154" lon="-1.57387">
        <ele>46.3</ele>
        <time>2022-02-03T14:53:51Z</time>
      </trkpt>
      <trkpt lat="49.51535" lon="-1.57385">
        <ele>46.7</ele>
        <time>2022-02-03T14:53:54Z</time>
      </trkpt>
      <trkpt lat="49.51529" lon="-1.5738">
        <ele>47</ele>
        <time>2022-02-03T14:53:59Z</time>
      </trkpt>
      <trkpt lat="49.51525" lon="-1.57373">
        <ele>47.7</ele>
        <time>2022-02-03T14:54:05Z</time>
      </trkpt>
      <trkpt lat="49.51521" lon="-1.5737">
        <ele>48.2</ele>
        <time>2022-02-03T14:54:08Z</time>
      </trkpt>
      <trkpt lat="49.51515" lon="-1.57366">
        <ele>48.4</ele>
        <time>2022-02-03T14:54:10Z</time>
      </trkpt>
      <trkpt lat="49.5151" lon="-1.57361">
        <ele>48.9</ele>
        <time>2022-02-03T14:54:13Z</time>
      </trkpt>
      <trkpt lat="49.51505" lon="-1.57358">
        <ele>49.6</ele>
        <time>2022-02-03T14:54:17Z</time>
      </trkpt>
      <trkpt lat="49.51499" lon="-1.57352">
        <ele>50</ele>
        <time>2022-02-03T14:54:26Z</time>
      </trkpt>
      <trkpt lat="49.51495" lon="-1.57349">
        <ele>50</ele>
        <time>2022-02-03T14:54:29Z</time>
      </trkpt>
      <trkpt lat="49.5149" lon="-1.57344">
        <ele>49.8</ele>
        <time>2022-02-03T14:54:34Z</time>
      </trkpt>
      <trkpt lat="49.51485" lon="-1.5734">
        <ele>49.8</ele>
        <time>2022-02-03T14:54:39Z</time>
      </trkpt>
      <trkpt lat="49.51481" lon="-1.57338">
        <ele>50</ele>
        <time>2022-02-03T14:54:42Z</time>
      </trkpt>
      <trkpt lat="49.51476" lon="-1.57336">
        <ele>50.1</ele>
        <time>2022-02-03T14:54:45Z</time>
      </trkpt>
      <trkpt lat="49.51469" lon="-1.57332">
        <ele>49.9</ele>
        <time>2022-02-03T14:54:49Z</time>
      </trkpt>
      <trkpt lat="49.51465" lon="-1.57328">
        <ele>49.5</ele>
        <time>2022-02-03T14:54:53Z</time>
      </trkpt>
      <trkpt lat="49.5146" lon="-1.57324">
        <ele>49.3</ele>
        <time>2022-02-03T14:54:56Z</time>
      </trkpt>
      <trkpt lat="49.51456" lon="-1.57321">
        <ele>49</ele>
        <time>2022-02-03T14:54:59Z</time>
      </trkpt>
      <trkpt lat="49.51451" lon="-1.57317">
        <ele>48.5</ele>
        <time>2022-02-03T14:55:04Z</time>
      </trkpt>
      <trkpt lat="49.51445" lon="-1.57313">
        <ele>47.5</ele>
        <time>2022-02-03T14:55:08Z</time>
      </trkpt>
      <trkpt lat="49.51441" lon="-1.57309">
        <ele>47.1</ele>
        <time>2022-02-03T14:55:12Z</time>
      </trkpt>
      <trkpt lat="49.51436" lon="-1.57306">
        <ele>46.9</ele>
        <time>2022-02-03T14:55:15Z</time>
      </trkpt>
      <trkpt lat="49.51431" lon="-1.57303">
        <ele>47</ele>
        <time>2022-02-03T14:55:19Z</time>
      </trkpt>
      <trkpt lat="49.51425" lon="-1.573">
        <ele>46.9</ele>
        <time>2022-02-03T14:55:24Z</time>
      </trkpt>
      <trkpt lat="49.5142" lon="-1.57296">
        <ele>46.7</ele>
        <time>2022-02-03T14:55:28Z</time>
      </trkpt>
      <trkpt lat="49.51415" lon="-1.57293">
        <ele>46.3</ele>
        <time>2022-02-03T14:55:32Z</time>
      </trkpt>
      <trkpt lat="49.51409" lon="-1.57292">
        <ele>46.5</ele>
        <time>2022-02-03T14:55:36Z</time>
      </trkpt>
      <trkpt lat="49.51404" lon="-1.57287">
        <ele>46.8</ele>
        <time>2022-02-03T14:55:41Z</time>
      </trkpt>
      <trkpt lat="49.51398" lon="-1.57284">
        <ele>46.3</ele>
        <time>2022-02-03T14:55:46Z</time>
      </trkpt>
      <trkpt lat="49.51394" lon="-1.57282">
        <ele>46</ele>
        <time>2022-02-03T14:55:50Z</time>
      </trkpt>
      <trkpt lat="49.51388" lon="-1.57279">
        <ele>46.3</ele>
        <time>2022-02-03T14:55:54Z</time>
      </trkpt>
      <trkpt lat="49.51384" lon="-1.57275">
        <ele>46.5</ele>
        <time>2022-02-03T14:55:58Z</time>
      </trkpt>
      <trkpt lat="49.51379" lon="-1.57272">
        <ele>46.7</ele>
        <time>2022-02-03T14:56:02Z</time>
      </trkpt>
      <trkpt lat="49.51373" lon="-1.57268">
        <ele>46.7</ele>
        <time>2022-02-03T14:56:06Z</time>
      </trkpt>
      <trkpt lat="49.51369" lon="-1.57264">
        <ele>46.7</ele>
        <time>2022-02-03T14:56:10Z</time>
      </trkpt>
      <trkpt lat="49.51365" lon="-1.5726">
        <ele>46.7</ele>
        <time>2022-02-03T14:56:13Z</time>
      </trkpt>
      <trkpt lat="49.5136" lon="-1.57258">
        <ele>46.7</ele>
        <time>2022-02-03T14:56:16Z</time>
      </trkpt>
      <trkpt lat="49.51355" lon="-1.57257">
        <ele>46.6</ele>
        <time>2022-02-03T14:56:20Z</time>
      </trkpt>
      <trkpt lat="49.5135" lon="-1.57255">
        <ele>46.5</ele>
        <time>2022-02-03T14:56:23Z</time>
      </trkpt>
      <trkpt lat="49.51344" lon="-1.57252">
        <ele>46.7</ele>
        <time>2022-02-03T14:56:26Z</time>
      </trkpt>
      <trkpt lat="49.5134" lon="-1.57249">
        <ele>46.8</ele>
        <time>2022-02-03T14:56:29Z</time>
      </trkpt>
      <trkpt lat="49.51335" lon="-1.57246">
        <ele>46.8</ele>
        <time>2022-02-03T14:56:33Z</time>
      </trkpt>
      <trkpt lat="49.51331" lon="-1.57244">
        <ele>46.8</ele>
        <time>2022-02-03T14:56:37Z</time>
      </trkpt>
      <trkpt lat="49.51328" lon="-1.57238">
        <ele>46.9</ele>
        <time>2022-02-03T14:56:47Z</time>
      </trkpt>
      <trkpt lat="49.51324" lon="-1.57233">
        <ele>46.9</ele>
        <time>2022-02-03T14:56:52Z</time>
      </trkpt>
      <trkpt lat="49.5132" lon="-1.57232">
        <ele>46.9</ele>
        <time>2022-02-03T14:56:55Z</time>
      </trkpt>
      <trkpt lat="49.51314" lon="-1.57231">
        <ele>47</ele>
        <time>2022-02-03T14:56:58Z</time>
      </trkpt>
      <trkpt lat="49.51309" lon="-1.5723">
        <ele>46.9</ele>
        <time>2022-02-03T14:57:02Z</time>
      </trkpt>
      <trkpt lat="49.51304" lon="-1.57231">
        <ele>46.5</ele>
        <time>2022-02-03T14:57:07Z</time>
      </trkpt>
      <trkpt lat="49.513" lon="-1.57231">
        <ele>46.2</ele>
        <time>2022-02-03T14:57:14Z</time>
      </trkpt>
      <trkpt lat="49.51295" lon="-1.5723">
        <ele>46.2</ele>
        <time>2022-02-03T14:57:20Z</time>
      </trkpt>
      <trkpt lat="49.5129" lon="-1.57227">
        <ele>46.2</ele>
        <time>2022-02-03T14:57:24Z</time>
      </trkpt>
      <trkpt lat="49.51285" lon="-1.57223">
        <ele>46.2</ele>
        <time>2022-02-03T14:57:28Z</time>
      </trkpt>
      <trkpt lat="49.51282" lon="-1.57218">
        <ele>46.2</ele>
        <time>2022-02-03T14:57:31Z</time>
      </trkpt>
      <trkpt lat="49.51277" lon="-1.57212">
        <ele>46</ele>
        <time>2022-02-03T14:57:35Z</time>
      </trkpt>
      <trkpt lat="49.51232" lon="-1.5716">
        <ele>43.2</ele>
        <time>2022-02-03T14:58:08Z</time>
      </trkpt>
      <trkpt lat="49.51228" lon="-1.57157">
        <ele>43.1</ele>
        <time>2022-02-03T14:58:11Z</time>
      </trkpt>
      <trkpt lat="49.51224" lon="-1.57153">
        <ele>43</ele>
        <time>2022-02-03T14:58:14Z</time>
      </trkpt>
      <trkpt lat="49.5122" lon="-1.57149">
        <ele>42.8</ele>
        <time>2022-02-03T14:58:17Z</time>
      </trkpt>
      <trkpt lat="49.51216" lon="-1.57145">
        <ele>42.7</ele>
        <time>2022-02-03T14:58:22Z</time>
      </trkpt>
      <trkpt lat="49.51212" lon="-1.5714">
        <ele>42.6</ele>
        <time>2022-02-03T14:58:26Z</time>
      </trkpt>
      <trkpt lat="49.51207" lon="-1.57135">
        <ele>42.5</ele>
        <time>2022-02-03T14:58:30Z</time>
      </trkpt>
      <trkpt lat="49.51202" lon="-1.5713">
        <ele>42.4</ele>
        <time>2022-02-03T14:58:33Z</time>
      </trkpt>
      <trkpt lat="49.51197" lon="-1.57124">
        <ele>42.3</ele>
        <time>2022-02-03T14:58:38Z</time>
      </trkpt>
      <trkpt lat="49.51191" lon="-1.5712">
        <ele>42.1</ele>
        <time>2022-02-03T14:58:42Z</time>
      </trkpt>
      <trkpt lat="49.51185" lon="-1.57114">
        <ele>42</ele>
        <time>2022-02-03T14:58:48Z</time>
      </trkpt>
      <trkpt lat="49.5118" lon="-1.5711">
        <ele>42.1</ele>
        <time>2022-02-03T14:58:51Z</time>
      </trkpt>
      <trkpt lat="49.51176" lon="-1.57106">
        <ele>42.3</ele>
        <time>2022-02-03T14:58:55Z</time>
      </trkpt>
      <trkpt lat="49.51139" lon="-1.57055">
        <ele>42.1</ele>
        <time>2022-02-03T14:59:28Z</time>
      </trkpt>
      <trkpt lat="49.51134" lon="-1.57051">
        <ele>42.6</ele>
        <time>2022-02-03T14:59:32Z</time>
      </trkpt>
      <trkpt lat="49.51128" lon="-1.57047">
        <ele>42.8</ele>
        <time>2022-02-03T14:59:37Z</time>
      </trkpt>
      <trkpt lat="49.51124" lon="-1.57042">
        <ele>42.9</ele>
        <time>2022-02-03T14:59:41Z</time>
      </trkpt>
      <trkpt lat="49.5112" lon="-1.57037">
        <ele>42.8</ele>
        <time>2022-02-03T14:59:46Z</time>
      </trkpt>
      <trkpt lat="49.5112" lon="-1.5703">
        <ele>43.1</ele>
        <time>2022-02-03T14:59:53Z</time>
      </trkpt>
      <trkpt lat="49.51119" lon="-1.57023">
        <ele>43</ele>
        <time>2022-02-03T15:00:04Z</time>
      </trkpt>
      <trkpt lat="49.51115" lon="-1.57017">
        <ele>42.8</ele>
        <time>2022-02-03T15:00:06Z</time>
      </trkpt>
      <trkpt lat="49.5111" lon="-1.57013">
        <ele>42.4</ele>
        <time>2022-02-03T15:00:10Z</time>
      </trkpt>
      <trkpt lat="49.51105" lon="-1.5701">
        <ele>42.2</ele>
        <time>2022-02-03T15:00:13Z</time>
      </trkpt>
      <trkpt lat="49.511" lon="-1.57006">
        <ele>42.1</ele>
        <time>2022-02-03T15:00:16Z</time>
      </trkpt>
      <trkpt lat="49.51097" lon="-1.57001">
        <ele>42</ele>
        <time>2022-02-03T15:00:20Z</time>
      </trkpt>
      <trkpt lat="49.51093" lon="-1.56996">
        <ele>41.9</ele>
        <time>2022-02-03T15:00:24Z</time>
      </trkpt>
      <trkpt lat="49.5109" lon="-1.56991">
        <ele>42.1</ele>
        <time>2022-02-03T15:00:28Z</time>
      </trkpt>
      <trkpt lat="49.51086" lon="-1.56987">
        <ele>42.3</ele>
        <time>2022-02-03T15:00:33Z</time>
      </trkpt>
      <trkpt lat="49.51082" lon="-1.5698">
        <ele>42.6</ele>
        <time>2022-02-03T15:00:41Z</time>
      </trkpt>
      <trkpt lat="49.51078" lon="-1.56976">
        <ele>42.6</ele>
        <time>2022-02-03T15:00:43Z</time>
      </trkpt>
      <trkpt lat="49.51057" lon="-1.56937">
        <ele>39.7</ele>
        <time>2022-02-03T15:01:04Z</time>
      </trkpt>
      <trkpt lat="49.51057" lon="-1.5693">
        <ele>39.6</ele>
        <time>2022-02-03T15:01:08Z</time>
      </trkpt>
      <trkpt lat="49.51058" lon="-1.56923">
        <ele>39.6</ele>
        <time>2022-02-03T15:01:11Z</time>
      </trkpt>
      <trkpt lat="49.51059" lon="-1.56914">
        <ele>39.5</ele>
        <time>2022-02-03T15:01:15Z</time>
      </trkpt>
      <trkpt lat="49.51058" lon="-1.56905">
        <ele>39.2</ele>
        <time>2022-02-03T15:01:18Z</time>
      </trkpt>
      <trkpt lat="49.51057" lon="-1.56898">
        <ele>38.9</ele>
        <time>2022-02-03T15:01:21Z</time>
      </trkpt>
      <trkpt lat="49.51055" lon="-1.56889">
        <ele>38.7</ele>
        <time>2022-02-03T15:01:24Z</time>
      </trkpt>
      <trkpt lat="49.51055" lon="-1.56882">
        <ele>38.2</ele>
        <time>2022-02-03T15:01:27Z</time>
      </trkpt>
      <trkpt lat="49.51055" lon="-1.56875">
        <ele>38</ele>
        <time>2022-02-03T15:01:30Z</time>
      </trkpt>
      <trkpt lat="49.51056" lon="-1.56855">
        <ele>37.7</ele>
        <time>2022-02-03T15:01:38Z</time>
      </trkpt>
      <trkpt lat="49.51057" lon="-1.56846">
        <ele>37.6</ele>
        <time>2022-02-03T15:01:41Z</time>
      </trkpt>
      <trkpt lat="49.51058" lon="-1.56838">
        <ele>37.5</ele>
        <time>2022-02-03T15:01:44Z</time>
      </trkpt>
      <trkpt lat="49.51059" lon="-1.56831">
        <ele>37.3</ele>
        <time>2022-02-03T15:01:48Z</time>
      </trkpt>
      <trkpt lat="49.5106" lon="-1.56823">
        <ele>37.3</ele>
        <time>2022-02-03T15:01:51Z</time>
      </trkpt>
      <trkpt lat="49.51059" lon="-1.56814">
        <ele>37.2</ele>
        <time>2022-02-03T15:01:55Z</time>
      </trkpt>
      <trkpt lat="49.51056" lon="-1.56808">
        <ele>37.1</ele>
        <time>2022-02-03T15:01:59Z</time>
      </trkpt>
      <trkpt lat="49.51052" lon="-1.56804">
        <ele>36.9</ele>
        <time>2022-02-03T15:02:06Z</time>
      </trkpt>
      <trkpt lat="49.51047" lon="-1.56806">
        <ele>36.8</ele>
        <time>2022-02-03T15:02:13Z</time>
      </trkpt>
      <trkpt lat="49.51042" lon="-1.56811">
        <ele>36.9</ele>
        <time>2022-02-03T15:02:16Z</time>
      </trkpt>
      <trkpt lat="49.51036" lon="-1.56816">
        <ele>37.1</ele>
        <time>2022-02-03T15:02:20Z</time>
      </trkpt>
      <trkpt lat="49.51031" lon="-1.56818">
        <ele>37.4</ele>
        <time>2022-02-03T15:02:23Z</time>
      </trkpt>
      <trkpt lat="49.51026" lon="-1.56819">
        <ele>37.5</ele>
        <time>2022-02-03T15:02:27Z</time>
      </trkpt>
      <trkpt lat="49.5102" lon="-1.5682">
        <ele>37.6</ele>
        <time>2022-02-03T15:02:31Z</time>
      </trkpt>
      <trkpt lat="49.51016" lon="-1.56821">
        <ele>37.9</ele>
        <time>2022-02-03T15:02:34Z</time>
      </trkpt>
      <trkpt lat="49.51011" lon="-1.56823">
        <ele>38.5</ele>
        <time>2022-02-03T15:02:38Z</time>
      </trkpt>
      <trkpt lat="49.51006" lon="-1.56828">
        <ele>39</ele>
        <time>2022-02-03T15:02:43Z</time>
      </trkpt>
      <trkpt lat="49.51001" lon="-1.5683">
        <ele>39.5</ele>
        <time>2022-02-03T15:02:53Z</time>
      </trkpt>
      <trkpt lat="49.50996" lon="-1.5683">
        <ele>39.6</ele>
        <time>2022-02-03T15:02:56Z</time>
      </trkpt>
      <trkpt lat="49.50991" lon="-1.56833">
        <ele>39.7</ele>
        <time>2022-02-03T15:03:00Z</time>
      </trkpt>
      <trkpt lat="49.5097" lon="-1.56842">
        <ele>40.9</ele>
        <time>2022-02-03T15:03:12Z</time>
      </trkpt>
      <trkpt lat="49.50964" lon="-1.56843">
        <ele>41.3</ele>
        <time>2022-02-03T15:03:16Z</time>
      </trkpt>
      <trkpt lat="49.50959" lon="-1.56844">
        <ele>41.4</ele>
        <time>2022-02-03T15:03:19Z</time>
      </trkpt>
      <trkpt lat="49.50954" lon="-1.56844">
        <ele>41.4</ele>
        <time>2022-02-03T15:03:23Z</time>
      </trkpt>
      <trkpt lat="49.50949" lon="-1.56845">
        <ele>41.4</ele>
        <time>2022-02-03T15:03:27Z</time>
      </trkpt>
      <trkpt lat="49.50943" lon="-1.56848">
        <ele>41.5</ele>
        <time>2022-02-03T15:03:33Z</time>
      </trkpt>
      <trkpt lat="49.50939" lon="-1.56849">
        <ele>42.2</ele>
        <time>2022-02-03T15:03:39Z</time>
      </trkpt>
      <trkpt lat="49.50932" lon="-1.56849">
        <ele>42</ele>
        <time>2022-02-03T15:03:54Z</time>
      </trkpt>
      <trkpt lat="49.50926" lon="-1.56848">
        <ele>42</ele>
        <time>2022-02-03T15:03:57Z</time>
      </trkpt>
      <trkpt lat="49.50921" lon="-1.5685">
        <ele>42.2</ele>
        <time>2022-02-03T15:04:00Z</time>
      </trkpt>
      <trkpt lat="49.50916" lon="-1.56852">
        <ele>42.8</ele>
        <time>2022-02-03T15:04:03Z</time>
      </trkpt>
      <trkpt lat="49.50912" lon="-1.56855">
        <ele>43</ele>
        <time>2022-02-03T15:04:07Z</time>
      </trkpt>
      <trkpt lat="49.50908" lon="-1.56858">
        <ele>43.1</ele>
        <time>2022-02-03T15:04:10Z</time>
      </trkpt>
      <trkpt lat="49.50902" lon="-1.56859">
        <ele>42.9</ele>
        <time>2022-02-03T15:04:14Z</time>
      </trkpt>
      <trkpt lat="49.50897" lon="-1.5686">
        <ele>42.9</ele>
        <time>2022-02-03T15:04:17Z</time>
      </trkpt>
      <trkpt lat="49.50892" lon="-1.5686">
        <ele>42.9</ele>
        <time>2022-02-03T15:04:21Z</time>
      </trkpt>
      <trkpt lat="49.50886" lon="-1.56861">
        <ele>42.8</ele>
        <time>2022-02-03T15:04:25Z</time>
      </trkpt>
      <trkpt lat="49.5088" lon="-1.56862">
        <ele>42.4</ele>
        <time>2022-02-03T15:04:30Z</time>
      </trkpt>
      <trkpt lat="49.50875" lon="-1.56861">
        <ele>42.1</ele>
        <time>2022-02-03T15:04:35Z</time>
      </trkpt>
      <trkpt lat="49.50869" lon="-1.5686">
        <ele>42</ele>
        <time>2022-02-03T15:04:40Z</time>
      </trkpt>
      <trkpt lat="49.50863" lon="-1.5686">
        <ele>41.8</ele>
        <time>2022-02-03T15:04:45Z</time>
      </trkpt>
      <trkpt lat="49.50858" lon="-1.56859">
        <ele>41.7</ele>
        <time>2022-02-03T15:04:48Z</time>
      </trkpt>
      <trkpt lat="49.50853" lon="-1.56858">
        <ele>41.5</ele>
        <time>2022-02-03T15:04:52Z</time>
      </trkpt>
      <trkpt lat="49.50847" lon="-1.56858">
        <ele>41.3</ele>
        <time>2022-02-03T15:04:56Z</time>
      </trkpt>
      <trkpt lat="49.50842" lon="-1.56857">
        <ele>41.3</ele>
        <time>2022-02-03T15:05:00Z</time>
      </trkpt>
      <trkpt lat="49.50837" lon="-1.56856">
        <ele>41.3</ele>
        <time>2022-02-03T15:05:04Z</time>
      </trkpt>
      <trkpt lat="49.50832" lon="-1.56855">
        <ele>41.4</ele>
        <time>2022-02-03T15:05:08Z</time>
      </trkpt>
      <trkpt lat="49.50827" lon="-1.56855">
        <ele>41.4</ele>
        <time>2022-02-03T15:05:12Z</time>
      </trkpt>
      <trkpt lat="49.50822" lon="-1.56856">
        <ele>41.6</ele>
        <time>2022-02-03T15:05:16Z</time>
      </trkpt>
      <trkpt lat="49.50817" lon="-1.56856">
        <ele>41.9</ele>
        <time>2022-02-03T15:05:20Z</time>
      </trkpt>
      <trkpt lat="49.50812" lon="-1.56856">
        <ele>42.4</ele>
        <time>2022-02-03T15:05:27Z</time>
      </trkpt>
      <trkpt lat="49.50807" lon="-1.56857">
        <ele>42.5</ele>
        <time>2022-02-03T15:05:32Z</time>
      </trkpt>
      <trkpt lat="49.50802" lon="-1.56858">
        <ele>42.5</ele>
        <time>2022-02-03T15:05:36Z</time>
      </trkpt>
      <trkpt lat="49.50797" lon="-1.56859">
        <ele>42.5</ele>
        <time>2022-02-03T15:05:41Z</time>
      </trkpt>
      <trkpt lat="49.50792" lon="-1.56857">
        <ele>43.3</ele>
        <time>2022-02-03T15:05:55Z</time>
      </trkpt>
      <trkpt lat="49.50788" lon="-1.56861">
        <ele>43.6</ele>
        <time>2022-02-03T15:05:59Z</time>
      </trkpt>
      <trkpt lat="49.50783" lon="-1.56864">
        <ele>43.9</ele>
        <time>2022-02-03T15:06:01Z</time>
      </trkpt>
      <trkpt lat="49.50779" lon="-1.56868">
        <ele>44.4</ele>
        <time>2022-02-03T15:06:06Z</time>
      </trkpt>
      <trkpt lat="49.50775" lon="-1.56871">
        <ele>44.7</ele>
        <time>2022-02-03T15:06:16Z</time>
      </trkpt>
      <trkpt lat="49.50771" lon="-1.56872">
        <ele>44.9</ele>
        <time>2022-02-03T15:06:23Z</time>
      </trkpt>
      <trkpt lat="49.50766" lon="-1.56875">
        <ele>45.6</ele>
        <time>2022-02-03T15:06:42Z</time>
      </trkpt>
      <trkpt lat="49.50761" lon="-1.56879">
        <ele>45.9</ele>
        <time>2022-02-03T15:06:49Z</time>
      </trkpt>
      <trkpt lat="49.50756" lon="-1.56882">
        <ele>46.1</ele>
        <time>2022-02-03T15:06:52Z</time>
      </trkpt>
      <trkpt lat="49.50738" lon="-1.56892">
        <ele>46.9</ele>
        <time>2022-02-03T15:06:58Z</time>
      </trkpt>
      <trkpt lat="49.50732" lon="-1.56895">
        <ele>47.2</ele>
        <time>2022-02-03T15:07:01Z</time>
      </trkpt>
      <trkpt lat="49.50726" lon="-1.56898">
        <ele>47.5</ele>
        <time>2022-02-03T15:07:04Z</time>
      </trkpt>
      <trkpt lat="49.50704" lon="-1.56907">
        <ele>49.1</ele>
        <time>2022-02-03T15:07:15Z</time>
      </trkpt>
      <trkpt lat="49.50699" lon="-1.56907">
        <ele>49.3</ele>
        <time>2022-02-03T15:07:19Z</time>
      </trkpt>
      <trkpt lat="49.50694" lon="-1.56907">
        <ele>49.6</ele>
        <time>2022-02-03T15:07:22Z</time>
      </trkpt>
      <trkpt lat="49.50689" lon="-1.56908">
        <ele>50.2</ele>
        <time>2022-02-03T15:07:27Z</time>
      </trkpt>
      <trkpt lat="49.50684" lon="-1.56905">
        <ele>51.8</ele>
        <time>2022-02-03T15:07:52Z</time>
      </trkpt>
      <trkpt lat="49.50678" lon="-1.569">
        <ele>51.8</ele>
        <time>2022-02-03T15:07:56Z</time>
      </trkpt>
      <trkpt lat="49.50674" lon="-1.56898">
        <ele>52.1</ele>
        <time>2022-02-03T15:07:59Z</time>
      </trkpt>
      <trkpt lat="49.50668" lon="-1.56897">
        <ele>52.8</ele>
        <time>2022-02-03T15:08:02Z</time>
      </trkpt>
      <trkpt lat="49.50664" lon="-1.56896">
        <ele>53.2</ele>
        <time>2022-02-03T15:08:05Z</time>
      </trkpt>
      <trkpt lat="49.50658" lon="-1.56895">
        <ele>53.5</ele>
        <time>2022-02-03T15:08:09Z</time>
      </trkpt>
      <trkpt lat="49.50654" lon="-1.56892">
        <ele>53.4</ele>
        <time>2022-02-03T15:08:12Z</time>
      </trkpt>
      <trkpt lat="49.50647" lon="-1.5689">
        <ele>53.8</ele>
        <time>2022-02-03T15:08:17Z</time>
      </trkpt>
      <trkpt lat="49.50642" lon="-1.56894">
        <ele>54.1</ele>
        <time>2022-02-03T15:08:22Z</time>
      </trkpt>
      <trkpt lat="49.50637" lon="-1.5689">
        <ele>54.4</ele>
        <time>2022-02-03T15:08:24Z</time>
      </trkpt>
      <trkpt lat="49.50632" lon="-1.56886">
        <ele>54.5</ele>
        <time>2022-02-03T15:08:27Z</time>
      </trkpt>
      <trkpt lat="49.50625" lon="-1.56883">
        <ele>54.5</ele>
        <time>2022-02-03T15:08:31Z</time>
      </trkpt>
      <trkpt lat="49.5062" lon="-1.56881">
        <ele>54.2</ele>
        <time>2022-02-03T15:08:34Z</time>
      </trkpt>
      <trkpt lat="49.50615" lon="-1.5688">
        <ele>53.4</ele>
        <time>2022-02-03T15:08:38Z</time>
      </trkpt>
      <trkpt lat="49.50609" lon="-1.56881">
        <ele>52.9</ele>
        <time>2022-02-03T15:08:43Z</time>
      </trkpt>
      <trkpt lat="49.50604" lon="-1.56882">
        <ele>52.7</ele>
        <time>2022-02-03T15:08:46Z</time>
      </trkpt>
      <trkpt lat="49.506" lon="-1.56885">
        <ele>52.6</ele>
        <time>2022-02-03T15:08:50Z</time>
      </trkpt>
      <trkpt lat="49.50595" lon="-1.56888">
        <ele>52.3</ele>
        <time>2022-02-03T15:08:54Z</time>
      </trkpt>
      <trkpt lat="49.5059" lon="-1.56893">
        <ele>51.7</ele>
        <time>2022-02-03T15:08:59Z</time>
      </trkpt>
      <trkpt lat="49.50585" lon="-1.56896">
        <ele>51.1</ele>
        <time>2022-02-03T15:09:02Z</time>
      </trkpt>
      <trkpt lat="49.50581" lon="-1.56899">
        <ele>50.7</ele>
        <time>2022-02-03T15:09:06Z</time>
      </trkpt>
      <trkpt lat="49.50568" lon="-1.56908">
        <ele>50.3</ele>
        <time>2022-02-03T15:09:16Z</time>
      </trkpt>
      <trkpt lat="49.50563" lon="-1.56908">
        <ele>49.9</ele>
        <time>2022-02-03T15:09:20Z</time>
      </trkpt>
      <trkpt lat="49.50559" lon="-1.56903">
        <ele>49.6</ele>
        <time>2022-02-03T15:09:25Z</time>
      </trkpt>
      <trkpt lat="49.50557" lon="-1.56909">
        <ele>49.1</ele>
        <time>2022-02-03T15:09:31Z</time>
      </trkpt>
      <trkpt lat="49.50557" lon="-1.56917">
        <ele>48.5</ele>
        <time>2022-02-03T15:09:37Z</time>
      </trkpt>
      <trkpt lat="49.50552" lon="-1.56922">
        <ele>48.1</ele>
        <time>2022-02-03T15:09:42Z</time>
      </trkpt>
      <trkpt lat="49.50548" lon="-1.56926">
        <ele>48</ele>
        <time>2022-02-03T15:09:45Z</time>
      </trkpt>
      <trkpt lat="49.50544" lon="-1.56931">
        <ele>47.7</ele>
        <time>2022-02-03T15:09:49Z</time>
      </trkpt>
      <trkpt lat="49.5054" lon="-1.56938">
        <ele>47.3</ele>
        <time>2022-02-03T15:09:54Z</time>
      </trkpt>
      <trkpt lat="49.50537" lon="-1.56946">
        <ele>47</ele>
        <time>2022-02-03T15:09:58Z</time>
      </trkpt>
      <trkpt lat="49.50532" lon="-1.56951">
        <ele>46.8</ele>
        <time>2022-02-03T15:10:01Z</time>
      </trkpt>
      <trkpt lat="49.50528" lon="-1.56955">
        <ele>46.2</ele>
        <time>2022-02-03T15:10:05Z</time>
      </trkpt>
      <trkpt lat="49.50524" lon="-1.56952">
        <ele>45.2</ele>
        <time>2022-02-03T15:10:11Z</time>
      </trkpt>
      <trkpt lat="49.50521" lon="-1.56945">
        <ele>44.6</ele>
        <time>2022-02-03T15:10:16Z</time>
      </trkpt>
      <trkpt lat="49.50516" lon="-1.56943">
        <ele>44.3</ele>
        <time>2022-02-03T15:10:20Z</time>
      </trkpt>
      <trkpt lat="49.50515" lon="-1.56934">
        <ele>44.1</ele>
        <time>2022-02-03T15:10:23Z</time>
      </trkpt>
      <trkpt lat="49.50515" lon="-1.56927">
        <ele>43.6</ele>
        <time>2022-02-03T15:10:29Z</time>
      </trkpt>
      <trkpt lat="49.50516" lon="-1.56919">
        <ele>43.3</ele>
        <time>2022-02-03T15:10:32Z</time>
      </trkpt>
      <trkpt lat="49.50514" lon="-1.56911">
        <ele>42.9</ele>
        <time>2022-02-03T15:10:37Z</time>
      </trkpt>
      <trkpt lat="49.50516" lon="-1.56903">
        <ele>42.3</ele>
        <time>2022-02-03T15:10:50Z</time>
      </trkpt>
      <trkpt lat="49.50514" lon="-1.56892">
        <ele>42.1</ele>
        <time>2022-02-03T15:10:53Z</time>
      </trkpt>
      <trkpt lat="49.50514" lon="-1.56885">
        <ele>42</ele>
        <time>2022-02-03T15:10:56Z</time>
      </trkpt>
      <trkpt lat="49.50513" lon="-1.56878">
        <ele>41.8</ele>
        <time>2022-02-03T15:10:59Z</time>
      </trkpt>
      <trkpt lat="49.50512" lon="-1.56868">
        <ele>41.7</ele>
        <time>2022-02-03T15:11:04Z</time>
      </trkpt>
      <trkpt lat="49.50511" lon="-1.56861">
        <ele>41.4</ele>
        <time>2022-02-03T15:11:07Z</time>
      </trkpt>
      <trkpt lat="49.50511" lon="-1.56854">
        <ele>41.1</ele>
        <time>2022-02-03T15:11:11Z</time>
      </trkpt>
      <trkpt lat="49.50509" lon="-1.56847">
        <ele>40.9</ele>
        <time>2022-02-03T15:11:15Z</time>
      </trkpt>
      <trkpt lat="49.50509" lon="-1.56838">
        <ele>40.8</ele>
        <time>2022-02-03T15:11:20Z</time>
      </trkpt>
      <trkpt lat="49.50507" lon="-1.5683">
        <ele>40.6</ele>
        <time>2022-02-03T15:11:24Z</time>
      </trkpt>
      <trkpt lat="49.50505" lon="-1.56823">
        <ele>40.4</ele>
        <time>2022-02-03T15:11:30Z</time>
      </trkpt>
      <trkpt lat="49.50504" lon="-1.56816">
        <ele>39.6</ele>
        <time>2022-02-03T15:11:35Z</time>
      </trkpt>
      <trkpt lat="49.50504" lon="-1.56809">
        <ele>40.9</ele>
        <time>2022-02-03T15:11:54Z</time>
      </trkpt>
      <trkpt lat="49.50504" lon="-1.56802">
        <ele>40.8</ele>
        <time>2022-02-03T15:11:57Z</time>
      </trkpt>
      <trkpt lat="49.50505" lon="-1.56783">
        <ele>40.5</ele>
        <time>2022-02-03T15:12:04Z</time>
      </trkpt>
      <trkpt lat="49.50504" lon="-1.56775">
        <ele>40.3</ele>
        <time>2022-02-03T15:12:08Z</time>
      </trkpt>
      <trkpt lat="49.50503" lon="-1.56767">
        <ele>40</ele>
        <time>2022-02-03T15:12:12Z</time>
      </trkpt>
      <trkpt lat="49.50501" lon="-1.56758">
        <ele>39.7</ele>
        <time>2022-02-03T15:12:17Z</time>
      </trkpt>
      <trkpt lat="49.505" lon="-1.5675">
        <ele>39.6</ele>
        <time>2022-02-03T15:12:21Z</time>
      </trkpt>
      <trkpt lat="49.50489" lon="-1.56698">
        <ele>39.2</ele>
        <time>2022-02-03T15:12:42Z</time>
      </trkpt>
      <trkpt lat="49.50488" lon="-1.56689">
        <ele>39.4</ele>
        <time>2022-02-03T15:12:46Z</time>
      </trkpt>
      <trkpt lat="49.50487" lon="-1.56681">
        <ele>39.5</ele>
        <time>2022-02-03T15:12:51Z</time>
      </trkpt>
      <trkpt lat="49.50487" lon="-1.56674">
        <ele>39.6</ele>
        <time>2022-02-03T15:12:56Z</time>
      </trkpt>
      <trkpt lat="49.50485" lon="-1.56667">
        <ele>39.5</ele>
        <time>2022-02-03T15:13:05Z</time>
      </trkpt>
      <trkpt lat="49.50483" lon="-1.56659">
        <ele>39.4</ele>
        <time>2022-02-03T15:13:08Z</time>
      </trkpt>
      <trkpt lat="49.50482" lon="-1.56652">
        <ele>39.2</ele>
        <time>2022-02-03T15:13:12Z</time>
      </trkpt>
      <trkpt lat="49.50479" lon="-1.56646">
        <ele>39.1</ele>
        <time>2022-02-03T15:13:21Z</time>
      </trkpt>
      <trkpt lat="49.50476" lon="-1.56639">
        <ele>39.6</ele>
        <time>2022-02-03T15:13:29Z</time>
      </trkpt>
      <trkpt lat="49.50472" lon="-1.56636">
        <ele>39.9</ele>
        <time>2022-02-03T15:13:33Z</time>
      </trkpt>
      <trkpt lat="49.50468" lon="-1.56632">
        <ele>40</ele>
        <time>2022-02-03T15:13:47Z</time>
      </trkpt>
      <trkpt lat="49.50464" lon="-1.56626">
        <ele>39.7</ele>
        <time>2022-02-03T15:13:55Z</time>
      </trkpt>
      <trkpt lat="49.5046" lon="-1.5662">
        <ele>39.4</ele>
        <time>2022-02-03T15:14:00Z</time>
      </trkpt>
      <trkpt lat="49.50457" lon="-1.56615">
        <ele>39.4</ele>
        <time>2022-02-03T15:14:06Z</time>
      </trkpt>
      <trkpt lat="49.50453" lon="-1.56609">
        <ele>39.2</ele>
        <time>2022-02-03T15:14:12Z</time>
      </trkpt>
      <trkpt lat="49.50449" lon="-1.56604">
        <ele>38.9</ele>
        <time>2022-02-03T15:14:21Z</time>
      </trkpt>
      <trkpt lat="49.50446" lon="-1.56599">
        <ele>38.9</ele>
        <time>2022-02-03T15:14:26Z</time>
      </trkpt>
      <trkpt lat="49.50443" lon="-1.56593">
        <ele>38.8</ele>
        <time>2022-02-03T15:14:34Z</time>
      </trkpt>
      <trkpt lat="49.50439" lon="-1.56586">
        <ele>38.2</ele>
        <time>2022-02-03T15:14:39Z</time>
      </trkpt>
      <trkpt lat="49.50434" lon="-1.5658">
        <ele>37.7</ele>
        <time>2022-02-03T15:14:42Z</time>
      </trkpt>
      <trkpt lat="49.5043" lon="-1.56577">
        <ele>37.3</ele>
        <time>2022-02-03T15:14:46Z</time>
      </trkpt>
      <trkpt lat="49.50424" lon="-1.56572">
        <ele>37.4</ele>
        <time>2022-02-03T15:14:57Z</time>
      </trkpt>
      <trkpt lat="49.50419" lon="-1.56566">
        <ele>37.3</ele>
        <time>2022-02-03T15:15:02Z</time>
      </trkpt>
      <trkpt lat="49.50416" lon="-1.56561">
        <ele>37.2</ele>
        <time>2022-02-03T15:15:06Z</time>
      </trkpt>
      <trkpt lat="49.50413" lon="-1.56554">
        <ele>37.1</ele>
        <time>2022-02-03T15:15:08Z</time>
      </trkpt>
      <trkpt lat="49.50408" lon="-1.5655">
        <ele>36.8</ele>
        <time>2022-02-03T15:15:12Z</time>
      </trkpt>
      <trkpt lat="49.50404" lon="-1.56546">
        <ele>36.7</ele>
        <time>2022-02-03T15:15:16Z</time>
      </trkpt>
      <trkpt lat="49.50399" lon="-1.56543">
        <ele>36.7</ele>
        <time>2022-02-03T15:15:20Z</time>
      </trkpt>
      <trkpt lat="49.50394" lon="-1.56537">
        <ele>36.6</ele>
        <time>2022-02-03T15:15:24Z</time>
      </trkpt>
      <trkpt lat="49.50389" lon="-1.56533">
        <ele>36.2</ele>
        <time>2022-02-03T15:15:28Z</time>
      </trkpt>
      <trkpt lat="49.50385" lon="-1.56531">
        <ele>35.8</ele>
        <time>2022-02-03T15:15:32Z</time>
      </trkpt>
      <trkpt lat="49.5038" lon="-1.56529">
        <ele>35.5</ele>
        <time>2022-02-03T15:15:38Z</time>
      </trkpt>
      <trkpt lat="49.50375" lon="-1.56527">
        <ele>35.2</ele>
        <time>2022-02-03T15:15:44Z</time>
      </trkpt>
      <trkpt lat="49.5037" lon="-1.5653">
        <ele>34.2</ele>
        <time>2022-02-03T15:15:59Z</time>
      </trkpt>
      <trkpt lat="49.50352" lon="-1.56533">
        <ele>33.4</ele>
        <time>2022-02-03T15:16:10Z</time>
      </trkpt>
      <trkpt lat="49.50347" lon="-1.56534">
        <ele>32.7</ele>
        <time>2022-02-03T15:16:20Z</time>
      </trkpt>
      <trkpt lat="49.50342" lon="-1.56537">
        <ele>32.3</ele>
        <time>2022-02-03T15:16:26Z</time>
      </trkpt>
      <trkpt lat="49.50336" lon="-1.56536">
        <ele>32</ele>
        <time>2022-02-03T15:16:30Z</time>
      </trkpt>
      <trkpt lat="49.5033" lon="-1.56533">
        <ele>31.6</ele>
        <time>2022-02-03T15:16:34Z</time>
      </trkpt>
      <trkpt lat="49.50258" lon="-1.56477">
        <ele>26</ele>
        <time>2022-02-03T15:17:23Z</time>
      </trkpt>
      <trkpt lat="49.50257" lon="-1.5647">
        <ele>26.1</ele>
        <time>2022-02-03T15:17:32Z</time>
      </trkpt>
      <trkpt lat="49.50255" lon="-1.56462">
        <ele>26.1</ele>
        <time>2022-02-03T15:17:35Z</time>
      </trkpt>
      <trkpt lat="49.50253" lon="-1.56455">
        <ele>26.1</ele>
        <time>2022-02-03T15:17:38Z</time>
      </trkpt>
      <trkpt lat="49.50252" lon="-1.56448">
        <ele>26.2</ele>
        <time>2022-02-03T15:17:42Z</time>
      </trkpt>
      <trkpt lat="49.50251" lon="-1.5644">
        <ele>26.3</ele>
        <time>2022-02-03T15:17:47Z</time>
      </trkpt>
      <trkpt lat="49.50247" lon="-1.56432">
        <ele>26.4</ele>
        <time>2022-02-03T15:17:52Z</time>
      </trkpt>
      <trkpt lat="49.50245" lon="-1.56426">
        <ele>26.7</ele>
        <time>2022-02-03T15:17:55Z</time>
      </trkpt>
      <trkpt lat="49.50244" lon="-1.56419">
        <ele>26.8</ele>
        <time>2022-02-03T15:17:59Z</time>
      </trkpt>
      <trkpt lat="49.50242" lon="-1.56411">
        <ele>26.9</ele>
        <time>2022-02-03T15:18:03Z</time>
      </trkpt>
      <trkpt lat="49.5024" lon="-1.56403">
        <ele>27</ele>
        <time>2022-02-03T15:18:07Z</time>
      </trkpt>
      <trkpt lat="49.50238" lon="-1.56396">
        <ele>27.3</ele>
        <time>2022-02-03T15:18:10Z</time>
      </trkpt>
      <trkpt lat="49.50236" lon="-1.5639">
        <ele>27.7</ele>
        <time>2022-02-03T15:18:14Z</time>
      </trkpt>
      <trkpt lat="49.50235" lon="-1.56383">
        <ele>27.9</ele>
        <time>2022-02-03T15:18:17Z</time>
      </trkpt>
      <trkpt lat="49.50234" lon="-1.56375">
        <ele>28.3</ele>
        <time>2022-02-03T15:18:21Z</time>
      </trkpt>
      <trkpt lat="49.50231" lon="-1.56368">
        <ele>29.1</ele>
        <time>2022-02-03T15:18:24Z</time>
      </trkpt>
      <trkpt lat="49.50229" lon="-1.5636">
        <ele>29.7</ele>
        <time>2022-02-03T15:18:28Z</time>
      </trkpt>
      <trkpt lat="49.50226" lon="-1.56353">
        <ele>29.7</ele>
        <time>2022-02-03T15:18:32Z</time>
      </trkpt>
      <trkpt lat="49.50224" lon="-1.56344">
        <ele>29.4</ele>
        <time>2022-02-03T15:18:36Z</time>
      </trkpt>
      <trkpt lat="49.50222" lon="-1.56337">
        <ele>29.3</ele>
        <time>2022-02-03T15:18:40Z</time>
      </trkpt>
      <trkpt lat="49.5022" lon="-1.56328">
        <ele>29.5</ele>
        <time>2022-02-03T15:18:45Z</time>
      </trkpt>
      <trkpt lat="49.50219" lon="-1.5632">
        <ele>30.2</ele>
        <time>2022-02-03T15:18:49Z</time>
      </trkpt>
      <trkpt lat="49.50217" lon="-1.56313">
        <ele>30.9</ele>
        <time>2022-02-03T15:18:52Z</time>
      </trkpt>
      <trkpt lat="49.50216" lon="-1.56304">
        <ele>31.4</ele>
        <time>2022-02-03T15:18:57Z</time>
      </trkpt>
      <trkpt lat="49.50213" lon="-1.56297">
        <ele>31.7</ele>
        <time>2022-02-03T15:19:01Z</time>
      </trkpt>
      <trkpt lat="49.50211" lon="-1.56289">
        <ele>31.7</ele>
        <time>2022-02-03T15:19:05Z</time>
      </trkpt>
      <trkpt lat="49.5021" lon="-1.56279">
        <ele>32</ele>
        <time>2022-02-03T15:19:10Z</time>
      </trkpt>
      <trkpt lat="49.5021" lon="-1.56269">
        <ele>32.2</ele>
        <time>2022-02-03T15:19:15Z</time>
      </trkpt>
      <trkpt lat="49.5021" lon="-1.56262">
        <ele>32.5</ele>
        <time>2022-02-03T15:19:19Z</time>
      </trkpt>
      <trkpt lat="49.50208" lon="-1.56253">
        <ele>32.7</ele>
        <time>2022-02-03T15:19:23Z</time>
      </trkpt>
      <trkpt lat="49.50207" lon="-1.56245">
        <ele>32.7</ele>
        <time>2022-02-03T15:19:27Z</time>
      </trkpt>
      <trkpt lat="49.50205" lon="-1.56237">
        <ele>32.8</ele>
        <time>2022-02-03T15:19:30Z</time>
      </trkpt>
      <trkpt lat="49.50203" lon="-1.56228">
        <ele>32.9</ele>
        <time>2022-02-03T15:19:35Z</time>
      </trkpt>
      <trkpt lat="49.50203" lon="-1.56219">
        <ele>32.6</ele>
        <time>2022-02-03T15:19:41Z</time>
      </trkpt>
      <trkpt lat="49.50203" lon="-1.56211">
        <ele>32.4</ele>
        <time>2022-02-03T15:19:45Z</time>
      </trkpt>
      <trkpt lat="49.50203" lon="-1.56203">
        <ele>32.1</ele>
        <time>2022-02-03T15:19:49Z</time>
      </trkpt>
      <trkpt lat="49.50203" lon="-1.56193">
        <ele>31.7</ele>
        <time>2022-02-03T15:19:54Z</time>
      </trkpt>
      <trkpt lat="49.50202" lon="-1.56186">
        <ele>31.2</ele>
        <time>2022-02-03T15:19:58Z</time>
      </trkpt>
      <trkpt lat="49.50203" lon="-1.56178">
        <ele>30.6</ele>
        <time>2022-02-03T15:20:01Z</time>
      </trkpt>
      <trkpt lat="49.50203" lon="-1.56169">
        <ele>29.7</ele>
        <time>2022-02-03T15:20:05Z</time>
      </trkpt>
      <trkpt lat="49.50198" lon="-1.56166">
        <ele>28.4</ele>
        <time>2022-02-03T15:20:11Z</time>
      </trkpt>
      <trkpt lat="49.50192" lon="-1.56166">
        <ele>27.6</ele>
        <time>2022-02-03T15:20:16Z</time>
      </trkpt>
      <trkpt lat="49.50188" lon="-1.56169">
        <ele>27.4</ele>
        <time>2022-02-03T15:20:20Z</time>
      </trkpt>
      <trkpt lat="49.50183" lon="-1.56172">
        <ele>27.6</ele>
        <time>2022-02-03T15:20:24Z</time>
      </trkpt>
      <trkpt lat="49.50179" lon="-1.56174">
        <ele>27.7</ele>
        <time>2022-02-03T15:20:27Z</time>
      </trkpt>
      <trkpt lat="49.50174" lon="-1.56171">
        <ele>28</ele>
        <time>2022-02-03T15:20:30Z</time>
      </trkpt>
      <trkpt lat="49.50169" lon="-1.56168">
        <ele>28.5</ele>
        <time>2022-02-03T15:20:33Z</time>
      </trkpt>
      <trkpt lat="49.50164" lon="-1.56165">
        <ele>29.1</ele>
        <time>2022-02-03T15:20:39Z</time>
      </trkpt>
      <trkpt lat="49.50159" lon="-1.5616">
        <ele>29</ele>
        <time>2022-02-03T15:20:44Z</time>
      </trkpt>
      <trkpt lat="49.50153" lon="-1.56159">
        <ele>28.9</ele>
        <time>2022-02-03T15:20:48Z</time>
      </trkpt>
      <trkpt lat="49.50149" lon="-1.56159">
        <ele>28.8</ele>
        <time>2022-02-03T15:20:52Z</time>
      </trkpt>
      <trkpt lat="49.50142" lon="-1.56157">
        <ele>29.1</ele>
        <time>2022-02-03T15:21:16Z</time>
      </trkpt>
      <trkpt lat="49.50137" lon="-1.56156">
        <ele>29.3</ele>
        <time>2022-02-03T15:21:20Z</time>
      </trkpt>
      <trkpt lat="49.50131" lon="-1.56155">
        <ele>29.4</ele>
        <time>2022-02-03T15:21:24Z</time>
      </trkpt>
      <trkpt lat="49.50126" lon="-1.56154">
        <ele>29.5</ele>
        <time>2022-02-03T15:21:27Z</time>
      </trkpt>
      <trkpt lat="49.5012" lon="-1.56153">
        <ele>29.6</ele>
        <time>2022-02-03T15:21:32Z</time>
      </trkpt>
      <trkpt lat="49.50095" lon="-1.56142">
        <ele>29.5</ele>
        <time>2022-02-03T15:21:51Z</time>
      </trkpt>
      <trkpt lat="49.5009" lon="-1.56138">
        <ele>29.3</ele>
        <time>2022-02-03T15:21:55Z</time>
      </trkpt>
      <trkpt lat="49.50087" lon="-1.56133">
        <ele>29.4</ele>
        <time>2022-02-03T15:21:59Z</time>
      </trkpt>
      <trkpt lat="49.50083" lon="-1.56125">
        <ele>29.6</ele>
        <time>2022-02-03T15:22:03Z</time>
      </trkpt>
      <trkpt lat="49.50081" lon="-1.56117">
        <ele>29.2</ele>
        <time>2022-02-03T15:22:08Z</time>
      </trkpt>
      <trkpt lat="49.50078" lon="-1.5611">
        <ele>27.8</ele>
        <time>2022-02-03T15:22:13Z</time>
      </trkpt>
      <trkpt lat="49.50076" lon="-1.56103">
        <ele>26.9</ele>
        <time>2022-02-03T15:22:18Z</time>
      </trkpt>
      <trkpt lat="49.50074" lon="-1.56095">
        <ele>27.7</ele>
        <time>2022-02-03T15:22:44Z</time>
      </trkpt>
      <trkpt lat="49.50073" lon="-1.56088">
        <ele>27.6</ele>
        <time>2022-02-03T15:22:47Z</time>
      </trkpt>
      <trkpt lat="49.50071" lon="-1.56079">
        <ele>27.3</ele>
        <time>2022-02-03T15:22:51Z</time>
      </trkpt>
      <trkpt lat="49.5007" lon="-1.56072">
        <ele>27.2</ele>
        <time>2022-02-03T15:22:53Z</time>
      </trkpt>
      <trkpt lat="49.50067" lon="-1.56065">
        <ele>26.8</ele>
        <time>2022-02-03T15:22:57Z</time>
      </trkpt>
      <trkpt lat="49.50064" lon="-1.56057">
        <ele>26.5</ele>
        <time>2022-02-03T15:23:00Z</time>
      </trkpt>
      <trkpt lat="49.50049" lon="-1.5601">
        <ele>26.1</ele>
        <time>2022-02-03T15:23:19Z</time>
      </trkpt>
      <trkpt lat="49.50047" lon="-1.55988">
        <ele>24.9</ele>
        <time>2022-02-03T15:23:30Z</time>
      </trkpt>
      <trkpt lat="49.50046" lon="-1.5598">
        <ele>24.7</ele>
        <time>2022-02-03T15:23:33Z</time>
      </trkpt>
      <trkpt lat="49.50046" lon="-1.55973">
        <ele>24.8</ele>
        <time>2022-02-03T15:23:36Z</time>
      </trkpt>
      <trkpt lat="49.50044" lon="-1.55965">
        <ele>24.8</ele>
        <time>2022-02-03T15:23:40Z</time>
      </trkpt>
      <trkpt lat="49.50042" lon="-1.55958">
        <ele>24.7</ele>
        <time>2022-02-03T15:23:45Z</time>
      </trkpt>
      <trkpt lat="49.5004" lon="-1.5595">
        <ele>24.3</ele>
        <time>2022-02-03T15:23:51Z</time>
      </trkpt>
      <trkpt lat="49.50038" lon="-1.55941">
        <ele>24.1</ele>
        <time>2022-02-03T15:23:55Z</time>
      </trkpt>
      <trkpt lat="49.50037" lon="-1.55931">
        <ele>24</ele>
        <time>2022-02-03T15:24:00Z</time>
      </trkpt>
      <trkpt lat="49.50035" lon="-1.55924">
        <ele>23.8</ele>
        <time>2022-02-03T15:24:06Z</time>
      </trkpt>
      <trkpt lat="49.50034" lon="-1.55916">
        <ele>23.7</ele>
        <time>2022-02-03T15:24:10Z</time>
      </trkpt>
      <trkpt lat="49.50033" lon="-1.55908">
        <ele>23.7</ele>
        <time>2022-02-03T15:24:14Z</time>
      </trkpt>
      <trkpt lat="49.5003" lon="-1.559">
        <ele>23.5</ele>
        <time>2022-02-03T15:24:18Z</time>
      </trkpt>
      <trkpt lat="49.50028" lon="-1.55894">
        <ele>23.3</ele>
        <time>2022-02-03T15:24:21Z</time>
      </trkpt>
      <trkpt lat="49.50025" lon="-1.55888">
        <ele>23.3</ele>
        <time>2022-02-03T15:24:24Z</time>
      </trkpt>
      <trkpt lat="49.50022" lon="-1.55881">
        <ele>23.3</ele>
        <time>2022-02-03T15:24:27Z</time>
      </trkpt>
      <trkpt lat="49.50008" lon="-1.5585">
        <ele>22.9</ele>
        <time>2022-02-03T15:24:43Z</time>
      </trkpt>
      <trkpt lat="49.50003" lon="-1.55845">
        <ele>23.1</ele>
        <time>2022-02-03T15:24:47Z</time>
      </trkpt>
      <trkpt lat="49.5" lon="-1.5584">
        <ele>23.2</ele>
        <time>2022-02-03T15:24:51Z</time>
      </trkpt>
      <trkpt lat="49.49997" lon="-1.55834">
        <ele>23.2</ele>
        <time>2022-02-03T15:24:54Z</time>
      </trkpt>
      <trkpt lat="49.49992" lon="-1.55829">
        <ele>23.2</ele>
        <time>2022-02-03T15:24:58Z</time>
      </trkpt>
      <trkpt lat="49.49988" lon="-1.55825">
        <ele>23.2</ele>
        <time>2022-02-03T15:25:02Z</time>
      </trkpt>
      <trkpt lat="49.49983" lon="-1.55821">
        <ele>23.1</ele>
        <time>2022-02-03T15:25:05Z</time>
      </trkpt>
      <trkpt lat="49.49978" lon="-1.55816">
        <ele>23</ele>
        <time>2022-02-03T15:25:09Z</time>
      </trkpt>
      <trkpt lat="49.49972" lon="-1.55811">
        <ele>23.1</ele>
        <time>2022-02-03T15:25:14Z</time>
      </trkpt>
      <trkpt lat="49.49967" lon="-1.55807">
        <ele>23.1</ele>
        <time>2022-02-03T15:25:19Z</time>
      </trkpt>
      <trkpt lat="49.49965" lon="-1.55801">
        <ele>23.2</ele>
        <time>2022-02-03T15:25:38Z</time>
      </trkpt>
      <trkpt lat="49.4996" lon="-1.55797">
        <ele>23.1</ele>
        <time>2022-02-03T15:25:41Z</time>
      </trkpt>
      <trkpt lat="49.49956" lon="-1.55792">
        <ele>23</ele>
        <time>2022-02-03T15:25:44Z</time>
      </trkpt>
      <trkpt lat="49.49951" lon="-1.55787">
        <ele>22.8</ele>
        <time>2022-02-03T15:25:47Z</time>
      </trkpt>
      <trkpt lat="49.49947" lon="-1.55782">
        <ele>22.7</ele>
        <time>2022-02-03T15:25:50Z</time>
      </trkpt>
      <trkpt lat="49.49937" lon="-1.55763">
        <ele>22.7</ele>
        <time>2022-02-03T15:25:59Z</time>
      </trkpt>
      <trkpt lat="49.49934" lon="-1.55757">
        <ele>22.9</ele>
        <time>2022-02-03T15:26:03Z</time>
      </trkpt>
      <trkpt lat="49.49931" lon="-1.55751">
        <ele>23.2</ele>
        <time>2022-02-03T15:26:06Z</time>
      </trkpt>
      <trkpt lat="49.49916" lon="-1.55702">
        <ele>22.6</ele>
        <time>2022-02-03T15:26:29Z</time>
      </trkpt>
      <trkpt lat="49.49914" lon="-1.55696">
        <ele>22.6</ele>
        <time>2022-02-03T15:26:32Z</time>
      </trkpt>
      <trkpt lat="49.49912" lon="-1.55689">
        <ele>22.7</ele>
        <time>2022-02-03T15:26:36Z</time>
      </trkpt>
      <trkpt lat="49.49911" lon="-1.55678">
        <ele>23.1</ele>
        <time>2022-02-03T15:26:40Z</time>
      </trkpt>
      <trkpt lat="49.49909" lon="-1.55669">
        <ele>23.2</ele>
        <time>2022-02-03T15:26:45Z</time>
      </trkpt>
      <trkpt lat="49.49907" lon="-1.55658">
        <ele>23.2</ele>
        <time>2022-02-03T15:26:50Z</time>
      </trkpt>
      <trkpt lat="49.49903" lon="-1.5565">
        <ele>23.3</ele>
        <time>2022-02-03T15:26:55Z</time>
      </trkpt>
      <trkpt lat="49.49902" lon="-1.55641">
        <ele>23.3</ele>
        <time>2022-02-03T15:27:00Z</time>
      </trkpt>
      <trkpt lat="49.499" lon="-1.55635">
        <ele>23.3</ele>
        <time>2022-02-03T15:27:04Z</time>
      </trkpt>
      <trkpt lat="49.49897" lon="-1.55627">
        <ele>23.3</ele>
        <time>2022-02-03T15:27:08Z</time>
      </trkpt>
      <trkpt lat="49.49895" lon="-1.5562">
        <ele>23.4</ele>
        <time>2022-02-03T15:27:12Z</time>
      </trkpt>
      <trkpt lat="49.49893" lon="-1.55613">
        <ele>23.3</ele>
        <time>2022-02-03T15:27:15Z</time>
      </trkpt>
      <trkpt lat="49.49891" lon="-1.55605">
        <ele>23.3</ele>
        <time>2022-02-03T15:27:30Z</time>
      </trkpt>
      <trkpt lat="49.49889" lon="-1.55598">
        <ele>23.3</ele>
        <time>2022-02-03T15:27:34Z</time>
      </trkpt>
      <trkpt lat="49.49887" lon="-1.5559">
        <ele>23.4</ele>
        <time>2022-02-03T15:27:37Z</time>
      </trkpt>
      <trkpt lat="49.49885" lon="-1.55583">
        <ele>23.5</ele>
        <time>2022-02-03T15:27:40Z</time>
      </trkpt>
      <trkpt lat="49.49882" lon="-1.55575">
        <ele>23.4</ele>
        <time>2022-02-03T15:27:45Z</time>
      </trkpt>
      <trkpt lat="49.49881" lon="-1.55567">
        <ele>23</ele>
        <time>2022-02-03T15:27:53Z</time>
      </trkpt>
      <trkpt lat="49.49879" lon="-1.5556">
        <ele>22.9</ele>
        <time>2022-02-03T15:27:56Z</time>
      </trkpt>
      <trkpt lat="49.49879" lon="-1.55553">
        <ele>22.7</ele>
        <time>2022-02-03T15:28:00Z</time>
      </trkpt>
      <trkpt lat="49.4988" lon="-1.55544">
        <ele>22.8</ele>
        <time>2022-02-03T15:28:03Z</time>
      </trkpt>
      <trkpt lat="49.49879" lon="-1.55536">
        <ele>23</ele>
        <time>2022-02-03T15:28:06Z</time>
      </trkpt>
      <trkpt lat="49.49878" lon="-1.55529">
        <ele>23.3</ele>
        <time>2022-02-03T15:28:10Z</time>
      </trkpt>
      <trkpt lat="49.49876" lon="-1.55521">
        <ele>23.2</ele>
        <time>2022-02-03T15:28:15Z</time>
      </trkpt>
      <trkpt lat="49.49872" lon="-1.55517">
        <ele>23.1</ele>
        <time>2022-02-03T15:28:25Z</time>
      </trkpt>
      <trkpt lat="49.49867" lon="-1.5552">
        <ele>24.1</ele>
        <time>2022-02-03T15:29:27Z</time>
      </trkpt>
      <trkpt lat="49.49862" lon="-1.55516">
        <ele>24.1</ele>
        <time>2022-02-03T15:29:33Z</time>
      </trkpt>
      <trkpt lat="49.49858" lon="-1.55511">
        <ele>23.8</ele>
        <time>2022-02-03T15:29:37Z</time>
      </trkpt>
      <trkpt lat="49.49852" lon="-1.5551">
        <ele>23.5</ele>
        <time>2022-02-03T15:29:42Z</time>
      </trkpt>
      <trkpt lat="49.49848" lon="-1.5551">
        <ele>23.8</ele>
        <time>2022-02-03T15:30:06Z</time>
      </trkpt>
      <trkpt lat="49.49842" lon="-1.55508">
        <ele>24</ele>
        <time>2022-02-03T15:30:15Z</time>
      </trkpt>
      <trkpt lat="49.49835" lon="-1.55507">
        <ele>24.1</ele>
        <time>2022-02-03T15:30:18Z</time>
      </trkpt>
      <trkpt lat="49.4983" lon="-1.55507">
        <ele>24.1</ele>
        <time>2022-02-03T15:30:20Z</time>
      </trkpt>
      <trkpt lat="49.49823" lon="-1.55505">
        <ele>24.1</ele>
        <time>2022-02-03T15:30:23Z</time>
      </trkpt>
      <trkpt lat="49.49818" lon="-1.55502">
        <ele>24</ele>
        <time>2022-02-03T15:30:28Z</time>
      </trkpt>
      <trkpt lat="49.49814" lon="-1.55498">
        <ele>24.6</ele>
        <time>2022-02-03T15:30:32Z</time>
      </trkpt>
      <trkpt lat="49.49809" lon="-1.55494">
        <ele>25</ele>
        <time>2022-02-03T15:30:35Z</time>
      </trkpt>
      <trkpt lat="49.49805" lon="-1.55491">
        <ele>25.1</ele>
        <time>2022-02-03T15:30:38Z</time>
      </trkpt>
      <trkpt lat="49.498" lon="-1.55488">
        <ele>25.1</ele>
        <time>2022-02-03T15:30:43Z</time>
      </trkpt>
      <trkpt lat="49.49796" lon="-1.55484">
        <ele>25.1</ele>
        <time>2022-02-03T15:30:48Z</time>
      </trkpt>
      <trkpt lat="49.49792" lon="-1.5548">
        <ele>24.9</ele>
        <time>2022-02-03T15:31:05Z</time>
      </trkpt>
      <trkpt lat="49.49789" lon="-1.55476">
        <ele>24.9</ele>
        <time>2022-02-03T15:31:09Z</time>
      </trkpt>
      <trkpt lat="49.49784" lon="-1.55471">
        <ele>25</ele>
        <time>2022-02-03T15:31:13Z</time>
      </trkpt>
      <trkpt lat="49.4978" lon="-1.55466">
        <ele>25</ele>
        <time>2022-02-03T15:31:17Z</time>
      </trkpt>
      <trkpt lat="49.49777" lon="-1.55458">
        <ele>25.1</ele>
        <time>2022-02-03T15:31:21Z</time>
      </trkpt>
      <trkpt lat="49.49777" lon="-1.55451">
        <ele>25.2</ele>
        <time>2022-02-03T15:31:26Z</time>
      </trkpt>
      <trkpt lat="49.49778" lon="-1.55442">
        <ele>25.5</ele>
        <time>2022-02-03T15:31:35Z</time>
      </trkpt>
      <trkpt lat="49.49772" lon="-1.55425">
        <ele>25.6</ele>
        <time>2022-02-03T15:31:40Z</time>
      </trkpt>
      <trkpt lat="49.49769" lon="-1.55419">
        <ele>25.7</ele>
        <time>2022-02-03T15:31:47Z</time>
      </trkpt>
      <trkpt lat="49.49766" lon="-1.55411">
        <ele>26.2</ele>
        <time>2022-02-03T15:31:51Z</time>
      </trkpt>
      <trkpt lat="49.49761" lon="-1.55405">
        <ele>26.6</ele>
        <time>2022-02-03T15:31:56Z</time>
      </trkpt>
      <trkpt lat="49.49756" lon="-1.55402">
        <ele>26.6</ele>
        <time>2022-02-03T15:32:00Z</time>
      </trkpt>
      <trkpt lat="49.4975" lon="-1.554">
        <ele>26.6</ele>
        <time>2022-02-03T15:32:04Z</time>
      </trkpt>
      <trkpt lat="49.49744" lon="-1.55399">
        <ele>26.7</ele>
        <time>2022-02-03T15:32:08Z</time>
      </trkpt>
      <trkpt lat="49.4974" lon="-1.55394">
        <ele>27.2</ele>
        <time>2022-02-03T15:32:12Z</time>
      </trkpt>
      <trkpt lat="49.49736" lon="-1.55387">
        <ele>28.3</ele>
        <time>2022-02-03T15:32:17Z</time>
      </trkpt>
      <trkpt lat="49.49731" lon="-1.55382">
        <ele>28.8</ele>
        <time>2022-02-03T15:32:22Z</time>
      </trkpt>
      <trkpt lat="49.49726" lon="-1.55379">
        <ele>28.5</ele>
        <time>2022-02-03T15:32:25Z</time>
      </trkpt>
      <trkpt lat="49.49721" lon="-1.55378">
        <ele>28.4</ele>
        <time>2022-02-03T15:32:29Z</time>
      </trkpt>
      <trkpt lat="49.49716" lon="-1.55376">
        <ele>28.3</ele>
        <time>2022-02-03T15:32:32Z</time>
      </trkpt>
      <trkpt lat="49.49712" lon="-1.55373">
        <ele>28.3</ele>
        <time>2022-02-03T15:32:40Z</time>
      </trkpt>
      <trkpt lat="49.49707" lon="-1.55372">
        <ele>28.2</ele>
        <time>2022-02-03T15:32:44Z</time>
      </trkpt>
      <trkpt lat="49.49702" lon="-1.55369">
        <ele>28.2</ele>
        <time>2022-02-03T15:32:54Z</time>
      </trkpt>
      <trkpt lat="49.49697" lon="-1.55366">
        <ele>28.2</ele>
        <time>2022-02-03T15:32:58Z</time>
      </trkpt>
      <trkpt lat="49.49692" lon="-1.55364">
        <ele>28.1</ele>
        <time>2022-02-03T15:33:01Z</time>
      </trkpt>
      <trkpt lat="49.49686" lon="-1.55363">
        <ele>28</ele>
        <time>2022-02-03T15:33:04Z</time>
      </trkpt>
      <trkpt lat="49.49681" lon="-1.55363">
        <ele>27.9</ele>
        <time>2022-02-03T15:33:08Z</time>
      </trkpt>
      <trkpt lat="49.49676" lon="-1.55364">
        <ele>28</ele>
        <time>2022-02-03T15:33:12Z</time>
      </trkpt>
      <trkpt lat="49.4967" lon="-1.55365">
        <ele>28.1</ele>
        <time>2022-02-03T15:33:17Z</time>
      </trkpt>
      <trkpt lat="49.49665" lon="-1.55366">
        <ele>28.2</ele>
        <time>2022-02-03T15:33:21Z</time>
      </trkpt>
      <trkpt lat="49.4966" lon="-1.55364">
        <ele>28.3</ele>
        <time>2022-02-03T15:33:27Z</time>
      </trkpt>
      <trkpt lat="49.49655" lon="-1.55362">
        <ele>28.7</ele>
        <time>2022-02-03T15:33:31Z</time>
      </trkpt>
      <trkpt lat="49.49651" lon="-1.55357">
        <ele>29.4</ele>
        <time>2022-02-03T15:33:35Z</time>
      </trkpt>
      <trkpt lat="49.49647" lon="-1.55352">
        <ele>29.7</ele>
        <time>2022-02-03T15:33:38Z</time>
      </trkpt>
      <trkpt lat="49.49644" lon="-1.55347">
        <ele>29.7</ele>
        <time>2022-02-03T15:33:42Z</time>
      </trkpt>
      <trkpt lat="49.49641" lon="-1.5534">
        <ele>29.7</ele>
        <time>2022-02-03T15:33:46Z</time>
      </trkpt>
      <trkpt lat="49.49637" lon="-1.55333">
        <ele>30.2</ele>
        <time>2022-02-03T15:33:51Z</time>
      </trkpt>
      <trkpt lat="49.49632" lon="-1.55325">
        <ele>30.6</ele>
        <time>2022-02-03T15:33:57Z</time>
      </trkpt>
      <trkpt lat="49.49629" lon="-1.55319">
        <ele>30.7</ele>
        <time>2022-02-03T15:34:01Z</time>
      </trkpt>
      <trkpt lat="49.49626" lon="-1.55314">
        <ele>30.7</ele>
        <time>2022-02-03T15:34:05Z</time>
      </trkpt>
      <trkpt lat="49.49621" lon="-1.55308">
        <ele>30.7</ele>
        <time>2022-02-03T15:34:09Z</time>
      </trkpt>
      <trkpt lat="49.49618" lon="-1.55302">
        <ele>30.7</ele>
        <time>2022-02-03T15:34:14Z</time>
      </trkpt>
      <trkpt lat="49.49614" lon="-1.55296">
        <ele>30.4</ele>
        <time>2022-02-03T15:34:19Z</time>
      </trkpt>
      <trkpt lat="49.4961" lon="-1.55291">
        <ele>30.2</ele>
        <time>2022-02-03T15:34:23Z</time>
      </trkpt>
      <trkpt lat="49.49606" lon="-1.5529">
        <ele>29.2</ele>
        <time>2022-02-03T15:35:23Z</time>
      </trkpt>
      <trkpt lat="49.49604" lon="-1.55283">
        <ele>28.9</ele>
        <time>2022-02-03T15:35:36Z</time>
      </trkpt>
      <trkpt lat="49.49601" lon="-1.55277">
        <ele>29.1</ele>
        <time>2022-02-03T15:35:44Z</time>
      </trkpt>
      <trkpt lat="49.49597" lon="-1.55272">
        <ele>29.4</ele>
        <time>2022-02-03T15:35:57Z</time>
      </trkpt>
      <trkpt lat="49.49595" lon="-1.55264">
        <ele>29.4</ele>
        <time>2022-02-03T15:36:02Z</time>
      </trkpt>
      <trkpt lat="49.49592" lon="-1.55259">
        <ele>29.4</ele>
        <time>2022-02-03T15:36:06Z</time>
      </trkpt>
      <trkpt lat="49.49588" lon="-1.55255">
        <ele>29.3</ele>
        <time>2022-02-03T15:36:10Z</time>
      </trkpt>
      <trkpt lat="49.49582" lon="-1.55253">
        <ele>28.9</ele>
        <time>2022-02-03T15:36:15Z</time>
      </trkpt>
      <trkpt lat="49.49579" lon="-1.55245">
        <ele>28.2</ele>
        <time>2022-02-03T15:36:37Z</time>
      </trkpt>
      <trkpt lat="49.49576" lon="-1.55239">
        <ele>28.2</ele>
        <time>2022-02-03T15:36:40Z</time>
      </trkpt>
      <trkpt lat="49.49574" lon="-1.55232">
        <ele>28.1</ele>
        <time>2022-02-03T15:36:44Z</time>
      </trkpt>
      <trkpt lat="49.49571" lon="-1.55226">
        <ele>28</ele>
        <time>2022-02-03T15:36:48Z</time>
      </trkpt>
      <trkpt lat="49.49566" lon="-1.5522">
        <ele>28</ele>
        <time>2022-02-03T15:36:57Z</time>
      </trkpt>
      <trkpt lat="49.49562" lon="-1.55214">
        <ele>27.9</ele>
        <time>2022-02-03T15:37:02Z</time>
      </trkpt>
      <trkpt lat="49.49559" lon="-1.55207">
        <ele>27.5</ele>
        <time>2022-02-03T15:37:06Z</time>
      </trkpt>
      <trkpt lat="49.49555" lon="-1.55201">
        <ele>26.9</ele>
        <time>2022-02-03T15:37:11Z</time>
      </trkpt>
      <trkpt lat="49.49551" lon="-1.55195">
        <ele>26.6</ele>
        <time>2022-02-03T15:37:15Z</time>
      </trkpt>
      <trkpt lat="49.49548" lon="-1.55188">
        <ele>26.3</ele>
        <time>2022-02-03T15:37:20Z</time>
      </trkpt>
      <trkpt lat="49.49544" lon="-1.55184">
        <ele>26.2</ele>
        <time>2022-02-03T15:37:24Z</time>
      </trkpt>
      <trkpt lat="49.49541" lon="-1.55179">
        <ele>25.8</ele>
        <time>2022-02-03T15:37:28Z</time>
      </trkpt>
      <trkpt lat="49.49538" lon="-1.55173">
        <ele>25.5</ele>
        <time>2022-02-03T15:37:31Z</time>
      </trkpt>
      <trkpt lat="49.49535" lon="-1.55164">
        <ele>25.4</ele>
        <time>2022-02-03T15:37:37Z</time>
      </trkpt>
      <trkpt lat="49.49532" lon="-1.55157">
        <ele>25.2</ele>
        <time>2022-02-03T15:37:41Z</time>
      </trkpt>
      <trkpt lat="49.49528" lon="-1.55152">
        <ele>25</ele>
        <time>2022-02-03T15:37:46Z</time>
      </trkpt>
      <trkpt lat="49.49524" lon="-1.55148">
        <ele>24.7</ele>
        <time>2022-02-03T15:37:50Z</time>
      </trkpt>
      <trkpt lat="49.49521" lon="-1.55143">
        <ele>24.5</ele>
        <time>2022-02-03T15:37:53Z</time>
      </trkpt>
      <trkpt lat="49.49517" lon="-1.55137">
        <ele>24.1</ele>
        <time>2022-02-03T15:37:58Z</time>
      </trkpt>
      <trkpt lat="49.49514" lon="-1.55132">
        <ele>23.4</ele>
        <time>2022-02-03T15:38:03Z</time>
      </trkpt>
      <trkpt lat="49.49508" lon="-1.55127">
        <ele>23.1</ele>
        <time>2022-02-03T15:38:11Z</time>
      </trkpt>
      <trkpt lat="49.49503" lon="-1.55125">
        <ele>22.8</ele>
        <time>2022-02-03T15:38:17Z</time>
      </trkpt>
      <trkpt lat="49.49497" lon="-1.55122">
        <ele>22.7</ele>
        <time>2022-02-03T15:38:22Z</time>
      </trkpt>
      <trkpt lat="49.49493" lon="-1.55121">
        <ele>22.5</ele>
        <time>2022-02-03T15:38:29Z</time>
      </trkpt>
      <trkpt lat="49.49488" lon="-1.55116">
        <ele>22.3</ele>
        <time>2022-02-03T15:38:33Z</time>
      </trkpt>
      <trkpt lat="49.49484" lon="-1.5511">
        <ele>22.2</ele>
        <time>2022-02-03T15:38:37Z</time>
      </trkpt>
      <trkpt lat="49.49479" lon="-1.55106">
        <ele>22.1</ele>
        <time>2022-02-03T15:38:40Z</time>
      </trkpt>
      <trkpt lat="49.49474" lon="-1.55103">
        <ele>22.1</ele>
        <time>2022-02-03T15:38:43Z</time>
      </trkpt>
      <trkpt lat="49.49469" lon="-1.55095">
        <ele>22.3</ele>
        <time>2022-02-03T15:38:48Z</time>
      </trkpt>
      <trkpt lat="49.49464" lon="-1.55089">
        <ele>22.4</ele>
        <time>2022-02-03T15:38:53Z</time>
      </trkpt>
      <trkpt lat="49.4946" lon="-1.55084">
        <ele>22</ele>
        <time>2022-02-03T15:38:59Z</time>
      </trkpt>
      <trkpt lat="49.49455" lon="-1.5508">
        <ele>22.2</ele>
        <time>2022-02-03T15:39:04Z</time>
      </trkpt>
      <trkpt lat="49.49451" lon="-1.55076">
        <ele>22.4</ele>
        <time>2022-02-03T15:39:07Z</time>
      </trkpt>
      <trkpt lat="49.49447" lon="-1.55071">
        <ele>22.4</ele>
        <time>2022-02-03T15:39:10Z</time>
      </trkpt>
      <trkpt lat="49.49444" lon="-1.55066">
        <ele>22.5</ele>
        <time>2022-02-03T15:39:15Z</time>
      </trkpt>
      <trkpt lat="49.4944" lon="-1.55061">
        <ele>22.2</ele>
        <time>2022-02-03T15:39:18Z</time>
      </trkpt>
      <trkpt lat="49.49436" lon="-1.55058">
        <ele>22.2</ele>
        <time>2022-02-03T15:39:24Z</time>
      </trkpt>
      <trkpt lat="49.49431" lon="-1.55055">
        <ele>22.1</ele>
        <time>2022-02-03T15:39:28Z</time>
      </trkpt>
      <trkpt lat="49.49427" lon="-1.55052">
        <ele>22.4</ele>
        <time>2022-02-03T15:39:39Z</time>
      </trkpt>
      <trkpt lat="49.49423" lon="-1.55047">
        <ele>22.4</ele>
        <time>2022-02-03T15:39:47Z</time>
      </trkpt>
      <trkpt lat="49.49418" lon="-1.5504">
        <ele>22.3</ele>
        <time>2022-02-03T15:39:51Z</time>
      </trkpt>
      <trkpt lat="49.49414" lon="-1.55036">
        <ele>22.2</ele>
        <time>2022-02-03T15:39:54Z</time>
      </trkpt>
      <trkpt lat="49.49402" lon="-1.55024">
        <ele>22.1</ele>
        <time>2022-02-03T15:40:03Z</time>
      </trkpt>
      <trkpt lat="49.49397" lon="-1.55021">
        <ele>22.7</ele>
        <time>2022-02-03T15:40:16Z</time>
      </trkpt>
      <trkpt lat="49.49393" lon="-1.55017">
        <ele>22.8</ele>
        <time>2022-02-03T15:40:19Z</time>
      </trkpt>
      <trkpt lat="49.49389" lon="-1.55013">
        <ele>22.8</ele>
        <time>2022-02-03T15:40:23Z</time>
      </trkpt>
      <trkpt lat="49.49384" lon="-1.55008">
        <ele>22.9</ele>
        <time>2022-02-03T15:40:26Z</time>
      </trkpt>
      <trkpt lat="49.49379" lon="-1.55003">
        <ele>22.8</ele>
        <time>2022-02-03T15:40:30Z</time>
      </trkpt>
      <trkpt lat="49.49374" lon="-1.55">
        <ele>22.7</ele>
        <time>2022-02-03T15:40:33Z</time>
      </trkpt>
      <trkpt lat="49.49368" lon="-1.54996">
        <ele>22.6</ele>
        <time>2022-02-03T15:40:36Z</time>
      </trkpt>
      <trkpt lat="49.49363" lon="-1.54993">
        <ele>22.5</ele>
        <time>2022-02-03T15:40:40Z</time>
      </trkpt>
      <trkpt lat="49.49359" lon="-1.54988">
        <ele>22.6</ele>
        <time>2022-02-03T15:40:44Z</time>
      </trkpt>
      <trkpt lat="49.49353" lon="-1.54984">
        <ele>22.7</ele>
        <time>2022-02-03T15:40:49Z</time>
      </trkpt>
      <trkpt lat="49.49348" lon="-1.54981">
        <ele>22.7</ele>
        <time>2022-02-03T15:40:52Z</time>
      </trkpt>
      <trkpt lat="49.49334" lon="-1.54973">
        <ele>22.4</ele>
        <time>2022-02-03T15:41:02Z</time>
      </trkpt>
      <trkpt lat="49.4933" lon="-1.54971">
        <ele>22</ele>
        <time>2022-02-03T15:41:14Z</time>
      </trkpt>
      <trkpt lat="49.49325" lon="-1.54968">
        <ele>22.7</ele>
        <time>2022-02-03T15:41:29Z</time>
      </trkpt>
      <trkpt lat="49.49321" lon="-1.54966">
        <ele>22.9</ele>
        <time>2022-02-03T15:41:37Z</time>
      </trkpt>
      <trkpt lat="49.49316" lon="-1.54965">
        <ele>22.8</ele>
        <time>2022-02-03T15:41:40Z</time>
      </trkpt>
      <trkpt lat="49.49311" lon="-1.54963">
        <ele>22.7</ele>
        <time>2022-02-03T15:41:54Z</time>
      </trkpt>
      <trkpt lat="49.49308" lon="-1.54969">
        <ele>23</ele>
        <time>2022-02-03T15:42:22Z</time>
      </trkpt>
      <trkpt lat="49.49313" lon="-1.54972">
        <ele>22.7</ele>
        <time>2022-02-03T15:42:38Z</time>
      </trkpt>
      <trkpt lat="49.49317" lon="-1.54976">
        <ele>22.8</ele>
        <time>2022-02-03T15:42:41Z</time>
      </trkpt>
      <trkpt lat="49.49322" lon="-1.54977">
        <ele>23.3</ele>
        <time>2022-02-03T15:42:59Z</time>
      </trkpt>
      <trkpt lat="49.49326" lon="-1.54978">
        <ele>22.2</ele>
        <time>2022-02-03T15:44:10Z</time>
      </trkpt>
      <trkpt lat="49.49329" lon="-1.54973">
        <ele>21.9</ele>
        <time>2022-02-03T15:44:38Z</time>
      </trkpt>
      <trkpt lat="49.49327" lon="-1.54968">
        <ele>21.8</ele>
        <time>2022-02-03T15:44:52Z</time>
      </trkpt>
      <trkpt lat="49.49321" lon="-1.54961">
        <ele>21.8</ele>
        <time>2022-02-03T15:44:55Z</time>
      </trkpt>
      <trkpt lat="49.49314" lon="-1.54956">
        <ele>21.8</ele>
        <time>2022-02-03T15:44:58Z</time>
      </trkpt>
      <trkpt lat="49.49303" lon="-1.5495">
        <ele>21.6</ele>
        <time>2022-02-03T15:45:02Z</time>
      </trkpt>
      <trkpt lat="49.49298" lon="-1.54948">
        <ele>21.5</ele>
        <time>2022-02-03T15:45:05Z</time>
      </trkpt>
      <trkpt lat="49.49288" lon="-1.54943">
        <ele>21.5</ele>
        <time>2022-02-03T15:45:14Z</time>
      </trkpt>
      <trkpt lat="49.49286" lon="-1.54936">
        <ele>21.7</ele>
        <time>2022-02-03T15:45:20Z</time>
      </trkpt>
      <trkpt lat="49.49291" lon="-1.54927">
        <ele>21.7</ele>
        <time>2022-02-03T15:45:22Z</time>
      </trkpt>
      <trkpt lat="49.49294" lon="-1.54921">
        <ele>22</ele>
        <time>2022-02-03T15:45:25Z</time>
      </trkpt>
      <trkpt lat="49.49297" lon="-1.54913">
        <ele>22.2</ele>
        <time>2022-02-03T15:45:29Z</time>
      </trkpt>
      <trkpt lat="49.49299" lon="-1.54907">
        <ele>22.3</ele>
        <time>2022-02-03T15:45:33Z</time>
      </trkpt>
      <trkpt lat="49.49302" lon="-1.54901">
        <ele>22.7</ele>
        <time>2022-02-03T15:45:46Z</time>
      </trkpt>
      <trkpt lat="49.49305" lon="-1.54893">
        <ele>23</ele>
        <time>2022-02-03T15:45:51Z</time>
      </trkpt>
      <trkpt lat="49.49308" lon="-1.54888">
        <ele>23.1</ele>
        <time>2022-02-03T15:45:54Z</time>
      </trkpt>
      <trkpt lat="49.4931" lon="-1.54882">
        <ele>23.1</ele>
        <time>2022-02-03T15:45:57Z</time>
      </trkpt>
      <trkpt lat="49.49312" lon="-1.54875">
        <ele>23.2</ele>
        <time>2022-02-03T15:46:00Z</time>
      </trkpt>
      <trkpt lat="49.49314" lon="-1.54867">
        <ele>23.2</ele>
        <time>2022-02-03T15:46:04Z</time>
      </trkpt>
      <trkpt lat="49.49316" lon="-1.54859">
        <ele>23.4</ele>
        <time>2022-02-03T15:46:08Z</time>
      </trkpt>
      <trkpt lat="49.49319" lon="-1.54851">
        <ele>23.6</ele>
        <time>2022-02-03T15:46:12Z</time>
      </trkpt>
      <trkpt lat="49.4932" lon="-1.54843">
        <ele>24</ele>
        <time>2022-02-03T15:46:16Z</time>
      </trkpt>
      <trkpt lat="49.49323" lon="-1.54836">
        <ele>24.7</ele>
        <time>2022-02-03T15:46:21Z</time>
      </trkpt>
      <trkpt lat="49.49326" lon="-1.54831">
        <ele>24.9</ele>
        <time>2022-02-03T15:46:25Z</time>
      </trkpt>
      <trkpt lat="49.49329" lon="-1.54825">
        <ele>25.1</ele>
        <time>2022-02-03T15:46:29Z</time>
      </trkpt>
      <trkpt lat="49.49332" lon="-1.54818">
        <ele>25.3</ele>
        <time>2022-02-03T15:46:33Z</time>
      </trkpt>
      <trkpt lat="49.49335" lon="-1.54812">
        <ele>25.7</ele>
        <time>2022-02-03T15:46:37Z</time>
      </trkpt>
      <trkpt lat="49.49339" lon="-1.54806">
        <ele>26.1</ele>
        <time>2022-02-03T15:46:43Z</time>
      </trkpt>
      <trkpt lat="49.49343" lon="-1.54804">
        <ele>26.1</ele>
        <time>2022-02-03T15:46:48Z</time>
      </trkpt>
      <trkpt lat="49.49348" lon="-1.54804">
        <ele>26.3</ele>
        <time>2022-02-03T15:46:53Z</time>
      </trkpt>
      <trkpt lat="49.49353" lon="-1.54804">
        <ele>26.6</ele>
        <time>2022-02-03T15:46:56Z</time>
      </trkpt>
      <trkpt lat="49.49359" lon="-1.54806">
        <ele>27.2</ele>
        <time>2022-02-03T15:47:00Z</time>
      </trkpt>
      <trkpt lat="49.49364" lon="-1.54807">
        <ele>28</ele>
        <time>2022-02-03T15:47:05Z</time>
      </trkpt>
      <trkpt lat="49.49369" lon="-1.54808">
        <ele>28.6</ele>
        <time>2022-02-03T15:47:08Z</time>
      </trkpt>
      <trkpt lat="49.49375" lon="-1.5481">
        <ele>28.9</ele>
        <time>2022-02-03T15:47:12Z</time>
      </trkpt>
      <trkpt lat="49.49387" lon="-1.54813">
        <ele>28.9</ele>
        <time>2022-02-03T15:47:21Z</time>
      </trkpt>
      <trkpt lat="49.49392" lon="-1.54813">
        <ele>29.2</ele>
        <time>2022-02-03T15:47:24Z</time>
      </trkpt>
      <trkpt lat="49.49397" lon="-1.54814">
        <ele>29.5</ele>
        <time>2022-02-03T15:47:27Z</time>
      </trkpt>
      <trkpt lat="49.49403" lon="-1.54817">
        <ele>29.9</ele>
        <time>2022-02-03T15:47:32Z</time>
      </trkpt>
      <trkpt lat="49.49407" lon="-1.54818">
        <ele>30</ele>
        <time>2022-02-03T15:47:35Z</time>
      </trkpt>
      <trkpt lat="49.49413" lon="-1.5482">
        <ele>30.2</ele>
        <time>2022-02-03T15:47:39Z</time>
      </trkpt>
      <trkpt lat="49.49419" lon="-1.54821">
        <ele>30.6</ele>
        <time>2022-02-03T15:47:43Z</time>
      </trkpt>
      <trkpt lat="49.49425" lon="-1.54821">
        <ele>32.3</ele>
        <time>2022-02-03T15:47:55Z</time>
      </trkpt>
      <trkpt lat="49.49429" lon="-1.54822">
        <ele>32.4</ele>
        <time>2022-02-03T15:48:00Z</time>
      </trkpt>
      <trkpt lat="49.49434" lon="-1.54824">
        <ele>32.6</ele>
        <time>2022-02-03T15:48:04Z</time>
      </trkpt>
      <trkpt lat="49.49439" lon="-1.54829">
        <ele>33.1</ele>
        <time>2022-02-03T15:48:07Z</time>
      </trkpt>
      <trkpt lat="49.49443" lon="-1.54832">
        <ele>33.6</ele>
        <time>2022-02-03T15:48:10Z</time>
      </trkpt>
      <trkpt lat="49.49449" lon="-1.54834">
        <ele>34.1</ele>
        <time>2022-02-03T15:48:14Z</time>
      </trkpt>
      <trkpt lat="49.49454" lon="-1.54834">
        <ele>34.7</ele>
        <time>2022-02-03T15:48:26Z</time>
      </trkpt>
      <trkpt lat="49.49459" lon="-1.54835">
        <ele>34.8</ele>
        <time>2022-02-03T15:48:29Z</time>
      </trkpt>
      <trkpt lat="49.49475" lon="-1.54837">
        <ele>35.2</ele>
        <time>2022-02-03T15:48:38Z</time>
      </trkpt>
      <trkpt lat="49.49479" lon="-1.54836">
        <ele>35.4</ele>
        <time>2022-02-03T15:48:42Z</time>
      </trkpt>
      <trkpt lat="49.49484" lon="-1.54837">
        <ele>35.5</ele>
        <time>2022-02-03T15:48:45Z</time>
      </trkpt>
      <trkpt lat="49.49489" lon="-1.54839">
        <ele>35.6</ele>
        <time>2022-02-03T15:48:48Z</time>
      </trkpt>
      <trkpt lat="49.49493" lon="-1.5484">
        <ele>35.8</ele>
        <time>2022-02-03T15:48:52Z</time>
      </trkpt>
      <trkpt lat="49.49498" lon="-1.54842">
        <ele>36.1</ele>
        <time>2022-02-03T15:48:55Z</time>
      </trkpt>
      <trkpt lat="49.4953" lon="-1.54847">
        <ele>37.5</ele>
        <time>2022-02-03T15:49:16Z</time>
      </trkpt>
      <trkpt lat="49.49538" lon="-1.54851">
        <ele>37.8</ele>
        <time>2022-02-03T15:49:22Z</time>
      </trkpt>
      <trkpt lat="49.49543" lon="-1.54852">
        <ele>37.9</ele>
        <time>2022-02-03T15:49:25Z</time>
      </trkpt>
      <trkpt lat="49.49548" lon="-1.54854">
        <ele>38</ele>
        <time>2022-02-03T15:49:29Z</time>
      </trkpt>
      <trkpt lat="49.49553" lon="-1.54856">
        <ele>38.1</ele>
        <time>2022-02-03T15:49:33Z</time>
      </trkpt>
      <trkpt lat="49.49558" lon="-1.54856">
        <ele>38</ele>
        <time>2022-02-03T15:49:37Z</time>
      </trkpt>
      <trkpt lat="49.49563" lon="-1.54856">
        <ele>37.9</ele>
        <time>2022-02-03T15:49:40Z</time>
      </trkpt>
      <trkpt lat="49.49569" lon="-1.54853">
        <ele>37.9</ele>
        <time>2022-02-03T15:49:44Z</time>
      </trkpt>
      <trkpt lat="49.49574" lon="-1.54854">
        <ele>38</ele>
        <time>2022-02-03T15:49:48Z</time>
      </trkpt>
      <trkpt lat="49.49579" lon="-1.54855">
        <ele>38.3</ele>
        <time>2022-02-03T15:49:52Z</time>
      </trkpt>
      <trkpt lat="49.49585" lon="-1.54856">
        <ele>38.5</ele>
        <time>2022-02-03T15:49:56Z</time>
      </trkpt>
      <trkpt lat="49.4959" lon="-1.54857">
        <ele>38.6</ele>
        <time>2022-02-03T15:50:00Z</time>
      </trkpt>
      <trkpt lat="49.49596" lon="-1.54858">
        <ele>38.9</ele>
        <time>2022-02-03T15:50:04Z</time>
      </trkpt>
      <trkpt lat="49.49601" lon="-1.54859">
        <ele>39.2</ele>
        <time>2022-02-03T15:50:07Z</time>
      </trkpt>
      <trkpt lat="49.49605" lon="-1.54859">
        <ele>39.6</ele>
        <time>2022-02-03T15:50:10Z</time>
      </trkpt>
      <trkpt lat="49.4961" lon="-1.5486">
        <ele>39.7</ele>
        <time>2022-02-03T15:50:13Z</time>
      </trkpt>
      <trkpt lat="49.49614" lon="-1.54859">
        <ele>39.8</ele>
        <time>2022-02-03T15:50:16Z</time>
      </trkpt>
      <trkpt lat="49.4962" lon="-1.5486">
        <ele>39.9</ele>
        <time>2022-02-03T15:50:20Z</time>
      </trkpt>
      <trkpt lat="49.49624" lon="-1.54861">
        <ele>39.9</ele>
        <time>2022-02-03T15:50:24Z</time>
      </trkpt>
      <trkpt lat="49.4963" lon="-1.54862">
        <ele>40.2</ele>
        <time>2022-02-03T15:50:29Z</time>
      </trkpt>
      <trkpt lat="49.49635" lon="-1.54864">
        <ele>40.6</ele>
        <time>2022-02-03T15:50:34Z</time>
      </trkpt>
      <trkpt lat="49.49639" lon="-1.54867">
        <ele>40.5</ele>
        <time>2022-02-03T15:50:39Z</time>
      </trkpt>
      <trkpt lat="49.49643" lon="-1.54872">
        <ele>40.2</ele>
        <time>2022-02-03T15:50:45Z</time>
      </trkpt>
      <trkpt lat="49.49648" lon="-1.54874">
        <ele>40.2</ele>
        <time>2022-02-03T15:50:48Z</time>
      </trkpt>
      <trkpt lat="49.49653" lon="-1.54875">
        <ele>40.4</ele>
        <time>2022-02-03T15:50:52Z</time>
      </trkpt>
      <trkpt lat="49.49658" lon="-1.54878">
        <ele>40.6</ele>
        <time>2022-02-03T15:50:56Z</time>
      </trkpt>
      <trkpt lat="49.49663" lon="-1.54882">
        <ele>40.9</ele>
        <time>2022-02-03T15:50:59Z</time>
      </trkpt>
      <trkpt lat="49.49668" lon="-1.54883">
        <ele>40.9</ele>
        <time>2022-02-03T15:51:03Z</time>
      </trkpt>
      <trkpt lat="49.49673" lon="-1.54883">
        <ele>40.9</ele>
        <time>2022-02-03T15:51:06Z</time>
      </trkpt>
      <trkpt lat="49.49719" lon="-1.54914">
        <ele>43.9</ele>
        <time>2022-02-03T15:51:38Z</time>
      </trkpt>
      <trkpt lat="49.49723" lon="-1.5491">
        <ele>45.1</ele>
        <time>2022-02-03T15:51:57Z</time>
      </trkpt>
      <trkpt lat="49.49728" lon="-1.54909">
        <ele>45.2</ele>
        <time>2022-02-03T15:52:00Z</time>
      </trkpt>
      <trkpt lat="49.49734" lon="-1.5491">
        <ele>45.2</ele>
        <time>2022-02-03T15:52:03Z</time>
      </trkpt>
      <trkpt lat="49.49738" lon="-1.54915">
        <ele>45.2</ele>
        <time>2022-02-03T15:52:06Z</time>
      </trkpt>
      <trkpt lat="49.49742" lon="-1.5492">
        <ele>45.2</ele>
        <time>2022-02-03T15:52:08Z</time>
      </trkpt>
      <trkpt lat="49.49746" lon="-1.54925">
        <ele>45.1</ele>
        <time>2022-02-03T15:52:11Z</time>
      </trkpt>
      <trkpt lat="49.4975" lon="-1.54929">
        <ele>44.9</ele>
        <time>2022-02-03T15:52:14Z</time>
      </trkpt>
      <trkpt lat="49.49755" lon="-1.54936">
        <ele>44.9</ele>
        <time>2022-02-03T15:52:19Z</time>
      </trkpt>
      <trkpt lat="49.49759" lon="-1.54941">
        <ele>44.9</ele>
        <time>2022-02-03T15:52:23Z</time>
      </trkpt>
      <trkpt lat="49.49761" lon="-1.54947">
        <ele>44.9</ele>
        <time>2022-02-03T15:52:27Z</time>
      </trkpt>
      <trkpt lat="49.49763" lon="-1.54954">
        <ele>44.8</ele>
        <time>2022-02-03T15:52:30Z</time>
      </trkpt>
      <trkpt lat="49.49765" lon="-1.54962">
        <ele>44.7</ele>
        <time>2022-02-03T15:52:34Z</time>
      </trkpt>
      <trkpt lat="49.49769" lon="-1.54967">
        <ele>44.7</ele>
        <time>2022-02-03T15:52:38Z</time>
      </trkpt>
      <trkpt lat="49.49769" lon="-1.54974">
        <ele>45.4</ele>
        <time>2022-02-03T15:53:05Z</time>
      </trkpt>
      <trkpt lat="49.49773" lon="-1.54979">
        <ele>45.3</ele>
        <time>2022-02-03T15:53:08Z</time>
      </trkpt>
      <trkpt lat="49.49777" lon="-1.54987">
        <ele>45.2</ele>
        <time>2022-02-03T15:53:12Z</time>
      </trkpt>
      <trkpt lat="49.49781" lon="-1.54991">
        <ele>45.1</ele>
        <time>2022-02-03T15:53:16Z</time>
      </trkpt>
      <trkpt lat="49.49784" lon="-1.54999">
        <ele>45.3</ele>
        <time>2022-02-03T15:53:26Z</time>
      </trkpt>
      <trkpt lat="49.49788" lon="-1.55005">
        <ele>45.2</ele>
        <time>2022-02-03T15:53:29Z</time>
      </trkpt>
      <trkpt lat="49.49792" lon="-1.55013">
        <ele>44.6</ele>
        <time>2022-02-03T15:53:33Z</time>
      </trkpt>
      <trkpt lat="49.49795" lon="-1.55017">
        <ele>44.2</ele>
        <time>2022-02-03T15:53:37Z</time>
      </trkpt>
      <trkpt lat="49.49799" lon="-1.55023">
        <ele>44.2</ele>
        <time>2022-02-03T15:53:40Z</time>
      </trkpt>
      <trkpt lat="49.49808" lon="-1.55035">
        <ele>44.5</ele>
        <time>2022-02-03T15:53:48Z</time>
      </trkpt>
      <trkpt lat="49.49811" lon="-1.55041">
        <ele>44.6</ele>
        <time>2022-02-03T15:53:55Z</time>
      </trkpt>
      <trkpt lat="49.49815" lon="-1.55047">
        <ele>44.8</ele>
        <time>2022-02-03T15:54:08Z</time>
      </trkpt>
      <trkpt lat="49.49816" lon="-1.55055">
        <ele>44.8</ele>
        <time>2022-02-03T15:54:11Z</time>
      </trkpt>
      <trkpt lat="49.4982" lon="-1.55062">
        <ele>44.7</ele>
        <time>2022-02-03T15:54:15Z</time>
      </trkpt>
      <trkpt lat="49.49824" lon="-1.55066">
        <ele>44.6</ele>
        <time>2022-02-03T15:54:19Z</time>
      </trkpt>
      <trkpt lat="49.49828" lon="-1.55069">
        <ele>44.4</ele>
        <time>2022-02-03T15:54:22Z</time>
      </trkpt>
      <trkpt lat="49.49833" lon="-1.55075">
        <ele>44.2</ele>
        <time>2022-02-03T15:54:27Z</time>
      </trkpt>
      <trkpt lat="49.49839" lon="-1.55076">
        <ele>44.1</ele>
        <time>2022-02-03T15:54:31Z</time>
      </trkpt>
      <trkpt lat="49.49844" lon="-1.55076">
        <ele>43.9</ele>
        <time>2022-02-03T15:54:35Z</time>
      </trkpt>
      <trkpt lat="49.49849" lon="-1.55073">
        <ele>43.6</ele>
        <time>2022-02-03T15:54:39Z</time>
      </trkpt>
      <trkpt lat="49.49854" lon="-1.55071">
        <ele>43.3</ele>
        <time>2022-02-03T15:54:55Z</time>
      </trkpt>
      <trkpt lat="49.49859" lon="-1.55074">
        <ele>43.2</ele>
        <time>2022-02-03T15:54:58Z</time>
      </trkpt>
      <trkpt lat="49.49865" lon="-1.55078">
        <ele>43.3</ele>
        <time>2022-02-03T15:55:02Z</time>
      </trkpt>
      <trkpt lat="49.4987" lon="-1.55085">
        <ele>43.5</ele>
        <time>2022-02-03T15:55:07Z</time>
      </trkpt>
      <trkpt lat="49.49873" lon="-1.5509">
        <ele>43.6</ele>
        <time>2022-02-03T15:55:11Z</time>
      </trkpt>
      <trkpt lat="49.49878" lon="-1.55097">
        <ele>43.6</ele>
        <time>2022-02-03T15:55:14Z</time>
      </trkpt>
      <trkpt lat="49.49882" lon="-1.55102">
        <ele>43.5</ele>
        <time>2022-02-03T15:55:18Z</time>
      </trkpt>
      <trkpt lat="49.49886" lon="-1.55107">
        <ele>43.3</ele>
        <time>2022-02-03T15:55:22Z</time>
      </trkpt>
      <trkpt lat="49.4989" lon="-1.55113">
        <ele>43</ele>
        <time>2022-02-03T15:55:26Z</time>
      </trkpt>
      <trkpt lat="49.49893" lon="-1.55118">
        <ele>42.8</ele>
        <time>2022-02-03T15:55:30Z</time>
      </trkpt>
      <trkpt lat="49.49897" lon="-1.55125">
        <ele>42.5</ele>
        <time>2022-02-03T15:55:34Z</time>
      </trkpt>
      <trkpt lat="49.49899" lon="-1.55133">
        <ele>42.4</ele>
        <time>2022-02-03T15:55:38Z</time>
      </trkpt>
      <trkpt lat="49.49902" lon="-1.5514">
        <ele>42.3</ele>
        <time>2022-02-03T15:55:42Z</time>
      </trkpt>
      <trkpt lat="49.49903" lon="-1.55148">
        <ele>41.8</ele>
        <time>2022-02-03T15:55:46Z</time>
      </trkpt>
      <trkpt lat="49.49902" lon="-1.55156">
        <ele>41.3</ele>
        <time>2022-02-03T15:56:06Z</time>
      </trkpt>
      <trkpt lat="49.49903" lon="-1.55164">
        <ele>41.3</ele>
        <time>2022-02-03T15:56:09Z</time>
      </trkpt>
      <trkpt lat="49.49904" lon="-1.55171">
        <ele>40.9</ele>
        <time>2022-02-03T15:56:13Z</time>
      </trkpt>
      <trkpt lat="49.49905" lon="-1.5518">
        <ele>40.4</ele>
        <time>2022-02-03T15:56:17Z</time>
      </trkpt>
      <trkpt lat="49.49907" lon="-1.55187">
        <ele>39.9</ele>
        <time>2022-02-03T15:56:21Z</time>
      </trkpt>
      <trkpt lat="49.49908" lon="-1.55198">
        <ele>39.6</ele>
        <time>2022-02-03T15:56:24Z</time>
      </trkpt>
      <trkpt lat="49.49909" lon="-1.55208">
        <ele>39.3</ele>
        <time>2022-02-03T15:56:26Z</time>
      </trkpt>
      <trkpt lat="49.4991" lon="-1.55216">
        <ele>38.9</ele>
        <time>2022-02-03T15:56:29Z</time>
      </trkpt>
      <trkpt lat="49.49911" lon="-1.55224">
        <ele>37.5</ele>
        <time>2022-02-03T15:56:48Z</time>
      </trkpt>
      <trkpt lat="49.49911" lon="-1.55232">
        <ele>37.1</ele>
        <time>2022-02-03T15:56:51Z</time>
      </trkpt>
      <trkpt lat="49.49912" lon="-1.5524">
        <ele>36.8</ele>
        <time>2022-02-03T15:56:54Z</time>
      </trkpt>
      <trkpt lat="49.49912" lon="-1.5525">
        <ele>36.5</ele>
        <time>2022-02-03T15:56:58Z</time>
      </trkpt>
      <trkpt lat="49.49912" lon="-1.55259">
        <ele>36.2</ele>
        <time>2022-02-03T15:57:01Z</time>
      </trkpt>
      <trkpt lat="49.49913" lon="-1.55268">
        <ele>35.9</ele>
        <time>2022-02-03T15:57:06Z</time>
      </trkpt>
      <trkpt lat="49.49914" lon="-1.55276">
        <ele>35.4</ele>
        <time>2022-02-03T15:57:09Z</time>
      </trkpt>
      <trkpt lat="49.49915" lon="-1.55285">
        <ele>34.9</ele>
        <time>2022-02-03T15:57:13Z</time>
      </trkpt>
      <trkpt lat="49.49915" lon="-1.55293">
        <ele>34.3</ele>
        <time>2022-02-03T15:57:17Z</time>
      </trkpt>
      <trkpt lat="49.49915" lon="-1.55301">
        <ele>33.7</ele>
        <time>2022-02-03T15:57:21Z</time>
      </trkpt>
      <trkpt lat="49.49917" lon="-1.55312">
        <ele>32.9</ele>
        <time>2022-02-03T15:57:26Z</time>
      </trkpt>
      <trkpt lat="49.49918" lon="-1.5532">
        <ele>32.3</ele>
        <time>2022-02-03T15:57:29Z</time>
      </trkpt>
      <trkpt lat="49.4992" lon="-1.55327">
        <ele>31.7</ele>
        <time>2022-02-03T15:57:32Z</time>
      </trkpt>
      <trkpt lat="49.4992" lon="-1.55334">
        <ele>31.4</ele>
        <time>2022-02-03T15:57:35Z</time>
      </trkpt>
      <trkpt lat="49.49921" lon="-1.55343">
        <ele>31.1</ele>
        <time>2022-02-03T15:57:39Z</time>
      </trkpt>
      <trkpt lat="49.49923" lon="-1.55351">
        <ele>30.8</ele>
        <time>2022-02-03T15:57:43Z</time>
      </trkpt>
      <trkpt lat="49.49925" lon="-1.55359">
        <ele>30.7</ele>
        <time>2022-02-03T15:57:46Z</time>
      </trkpt>
      <trkpt lat="49.49926" lon="-1.55367">
        <ele>30.5</ele>
        <time>2022-02-03T15:57:50Z</time>
      </trkpt>
      <trkpt lat="49.49927" lon="-1.55375">
        <ele>30.3</ele>
        <time>2022-02-03T15:57:54Z</time>
      </trkpt>
      <trkpt lat="49.4993" lon="-1.55382">
        <ele>29.8</ele>
        <time>2022-02-03T15:57:58Z</time>
      </trkpt>
      <trkpt lat="49.49931" lon="-1.5539">
        <ele>29.7</ele>
        <time>2022-02-03T15:58:01Z</time>
      </trkpt>
      <trkpt lat="49.49933" lon="-1.55397">
        <ele>29.4</ele>
        <time>2022-02-03T15:58:04Z</time>
      </trkpt>
      <trkpt lat="49.49935" lon="-1.55405">
        <ele>29.1</ele>
        <time>2022-02-03T15:58:08Z</time>
      </trkpt>
      <trkpt lat="49.49936" lon="-1.55414">
        <ele>28.5</ele>
        <time>2022-02-03T15:58:11Z</time>
      </trkpt>
      <trkpt lat="49.49937" lon="-1.55421">
        <ele>28.2</ele>
        <time>2022-02-03T15:58:15Z</time>
      </trkpt>
      <trkpt lat="49.49938" lon="-1.55428">
        <ele>27.8</ele>
        <time>2022-02-03T15:58:18Z</time>
      </trkpt>
      <trkpt lat="49.49939" lon="-1.55435">
        <ele>27.4</ele>
        <time>2022-02-03T15:58:22Z</time>
      </trkpt>
      <trkpt lat="49.4994" lon="-1.55443">
        <ele>27.1</ele>
        <time>2022-02-03T15:58:25Z</time>
      </trkpt>
      <trkpt lat="49.49941" lon="-1.55451">
        <ele>26.8</ele>
        <time>2022-02-03T15:58:28Z</time>
      </trkpt>
      <trkpt lat="49.49943" lon="-1.5546">
        <ele>26.5</ele>
        <time>2022-02-03T15:58:32Z</time>
      </trkpt>
      <trkpt lat="49.49944" lon="-1.55469">
        <ele>26.1</ele>
        <time>2022-02-03T15:58:36Z</time>
      </trkpt>
      <trkpt lat="49.49948" lon="-1.55473">
        <ele>26</ele>
        <time>2022-02-03T15:58:40Z</time>
      </trkpt>
      <trkpt lat="49.49953" lon="-1.5547">
        <ele>26.1</ele>
        <time>2022-02-03T15:58:45Z</time>
      </trkpt>
      <trkpt lat="49.49958" lon="-1.55468">
        <ele>26.2</ele>
        <time>2022-02-03T15:58:51Z</time>
      </trkpt>
      <trkpt lat="49.49962" lon="-1.55466">
        <ele>26.2</ele>
        <time>2022-02-03T15:58:57Z</time>
      </trkpt>
      <trkpt lat="49.49967" lon="-1.5546">
        <ele>26.4</ele>
        <time>2022-02-03T15:59:03Z</time>
      </trkpt>
      <trkpt lat="49.49971" lon="-1.55457">
        <ele>26.1</ele>
        <time>2022-02-03T15:59:13Z</time>
      </trkpt>
      <trkpt lat="49.49977" lon="-1.55455">
        <ele>27.4</ele>
        <time>2022-02-03T15:59:28Z</time>
      </trkpt>
      <trkpt lat="49.49983" lon="-1.55455">
        <ele>27.6</ele>
        <time>2022-02-03T15:59:31Z</time>
      </trkpt>
      <trkpt lat="49.49988" lon="-1.55454">
        <ele>27.8</ele>
        <time>2022-02-03T15:59:35Z</time>
      </trkpt>
      <trkpt lat="49.49995" lon="-1.55451">
        <ele>27.9</ele>
        <time>2022-02-03T15:59:37Z</time>
      </trkpt>
      <trkpt lat="49.5" lon="-1.55448">
        <ele>28</ele>
        <time>2022-02-03T15:59:40Z</time>
      </trkpt>
      <trkpt lat="49.50026" lon="-1.55444">
        <ele>29.9</ele>
        <time>2022-02-03T15:59:52Z</time>
      </trkpt>
      <trkpt lat="49.5003" lon="-1.55441">
        <ele>30.3</ele>
        <time>2022-02-03T15:59:55Z</time>
      </trkpt>
      <trkpt lat="49.50035" lon="-1.55439">
        <ele>30.5</ele>
        <time>2022-02-03T15:59:59Z</time>
      </trkpt>
      <trkpt lat="49.5004" lon="-1.55437">
        <ele>30.5</ele>
        <time>2022-02-03T16:00:02Z</time>
      </trkpt>
      <trkpt lat="49.50045" lon="-1.55435">
        <ele>30.7</ele>
        <time>2022-02-03T16:00:06Z</time>
      </trkpt>
      <trkpt lat="49.5005" lon="-1.55433">
        <ele>31</ele>
        <time>2022-02-03T16:00:10Z</time>
      </trkpt>
      <trkpt lat="49.50055" lon="-1.55432">
        <ele>31.3</ele>
        <time>2022-02-03T16:00:12Z</time>
      </trkpt>
      <trkpt lat="49.50059" lon="-1.55431">
        <ele>31.9</ele>
        <time>2022-02-03T16:00:25Z</time>
      </trkpt>
      <trkpt lat="49.50064" lon="-1.55429">
        <ele>31.8</ele>
        <time>2022-02-03T16:00:29Z</time>
      </trkpt>
      <trkpt lat="49.50071" lon="-1.55427">
        <ele>31.7</ele>
        <time>2022-02-03T16:00:33Z</time>
      </trkpt>
      <trkpt lat="49.50076" lon="-1.55425">
        <ele>31.6</ele>
        <time>2022-02-03T16:00:37Z</time>
      </trkpt>
      <trkpt lat="49.50081" lon="-1.55422">
        <ele>31.6</ele>
        <time>2022-02-03T16:00:41Z</time>
      </trkpt>
      <trkpt lat="49.50085" lon="-1.55419">
        <ele>31.6</ele>
        <time>2022-02-03T16:00:43Z</time>
      </trkpt>
      <trkpt lat="49.5009" lon="-1.55414">
        <ele>31.6</ele>
        <time>2022-02-03T16:00:47Z</time>
      </trkpt>
      <trkpt lat="49.50105" lon="-1.55395">
        <ele>32.3</ele>
        <time>2022-02-03T16:00:56Z</time>
      </trkpt>
      <trkpt lat="49.50105" lon="-1.55386">
        <ele>32.6</ele>
        <time>2022-02-03T16:01:00Z</time>
      </trkpt>
      <trkpt lat="49.50106" lon="-1.55376">
        <ele>33</ele>
        <time>2022-02-03T16:01:04Z</time>
      </trkpt>
      <trkpt lat="49.50106" lon="-1.55368">
        <ele>33.4</ele>
        <time>2022-02-03T16:01:08Z</time>
      </trkpt>
      <trkpt lat="49.50105" lon="-1.55361">
        <ele>33.4</ele>
        <time>2022-02-03T16:01:11Z</time>
      </trkpt>
      <trkpt lat="49.50105" lon="-1.55352">
        <ele>33.2</ele>
        <time>2022-02-03T16:01:15Z</time>
      </trkpt>
      <trkpt lat="49.50105" lon="-1.55344">
        <ele>32.9</ele>
        <time>2022-02-03T16:01:19Z</time>
      </trkpt>
      <trkpt lat="49.50105" lon="-1.55337">
        <ele>33</ele>
        <time>2022-02-03T16:01:24Z</time>
      </trkpt>
      <trkpt lat="49.50105" lon="-1.55329">
        <ele>33.1</ele>
        <time>2022-02-03T16:01:28Z</time>
      </trkpt>
      <trkpt lat="49.50105" lon="-1.55321">
        <ele>33.4</ele>
        <time>2022-02-03T16:01:33Z</time>
      </trkpt>
      <trkpt lat="49.50105" lon="-1.55313">
        <ele>33.8</ele>
        <time>2022-02-03T16:01:38Z</time>
      </trkpt>
      <trkpt lat="49.50104" lon="-1.55305">
        <ele>34.1</ele>
        <time>2022-02-03T16:01:42Z</time>
      </trkpt>
      <trkpt lat="49.50103" lon="-1.55297">
        <ele>34.3</ele>
        <time>2022-02-03T16:01:45Z</time>
      </trkpt>
      <trkpt lat="49.50102" lon="-1.55289">
        <ele>34.5</ele>
        <time>2022-02-03T16:01:48Z</time>
      </trkpt>
      <trkpt lat="49.50101" lon="-1.55282">
        <ele>34.6</ele>
        <time>2022-02-03T16:01:51Z</time>
      </trkpt>
      <trkpt lat="49.50101" lon="-1.55273">
        <ele>34.7</ele>
        <time>2022-02-03T16:01:54Z</time>
      </trkpt>
      <trkpt lat="49.50101" lon="-1.55265">
        <ele>35.1</ele>
        <time>2022-02-03T16:01:58Z</time>
      </trkpt>
      <trkpt lat="49.501" lon="-1.55258">
        <ele>35.6</ele>
        <time>2022-02-03T16:02:02Z</time>
      </trkpt>
      <trkpt lat="49.501" lon="-1.5525">
        <ele>35.8</ele>
        <time>2022-02-03T16:02:05Z</time>
      </trkpt>
      <trkpt lat="49.501" lon="-1.55243">
        <ele>36.1</ele>
        <time>2022-02-03T16:02:10Z</time>
      </trkpt>
      <trkpt lat="49.50099" lon="-1.55235">
        <ele>36.3</ele>
        <time>2022-02-03T16:02:16Z</time>
      </trkpt>
      <trkpt lat="49.50098" lon="-1.55229">
        <ele>36.1</ele>
        <time>2022-02-03T16:02:20Z</time>
      </trkpt>
      <trkpt lat="49.50096" lon="-1.55219">
        <ele>35.7</ele>
        <time>2022-02-03T16:02:24Z</time>
      </trkpt>
      <trkpt lat="49.50095" lon="-1.55211">
        <ele>35.5</ele>
        <time>2022-02-03T16:02:28Z</time>
      </trkpt>
      <trkpt lat="49.50094" lon="-1.55204">
        <ele>35.5</ele>
        <time>2022-02-03T16:02:31Z</time>
      </trkpt>
      <trkpt lat="49.50094" lon="-1.55196">
        <ele>36.2</ele>
        <time>2022-02-03T16:02:36Z</time>
      </trkpt>
      <trkpt lat="49.50094" lon="-1.55187">
        <ele>37.7</ele>
        <time>2022-02-03T16:02:46Z</time>
      </trkpt>
      <trkpt lat="49.50093" lon="-1.55177">
        <ele>37.7</ele>
        <time>2022-02-03T16:02:50Z</time>
      </trkpt>
      <trkpt lat="49.50092" lon="-1.5517">
        <ele>37.7</ele>
        <time>2022-02-03T16:02:52Z</time>
      </trkpt>
      <trkpt lat="49.5009" lon="-1.5516">
        <ele>37.5</ele>
        <time>2022-02-03T16:02:55Z</time>
      </trkpt>
      <trkpt lat="49.50087" lon="-1.55137">
        <ele>36.9</ele>
        <time>2022-02-03T16:03:04Z</time>
      </trkpt>
      <trkpt lat="49.50086" lon="-1.5513">
        <ele>37.2</ele>
        <time>2022-02-03T16:03:08Z</time>
      </trkpt>
      <trkpt lat="49.50084" lon="-1.55122">
        <ele>37.3</ele>
        <time>2022-02-03T16:03:11Z</time>
      </trkpt>
      <trkpt lat="49.50084" lon="-1.55114">
        <ele>37.5</ele>
        <time>2022-02-03T16:03:16Z</time>
      </trkpt>
      <trkpt lat="49.50085" lon="-1.55107">
        <ele>37.6</ele>
        <time>2022-02-03T16:03:21Z</time>
      </trkpt>
      <trkpt lat="49.50084" lon="-1.55099">
        <ele>37.7</ele>
        <time>2022-02-03T16:03:25Z</time>
      </trkpt>
      <trkpt lat="49.50083" lon="-1.55091">
        <ele>37.7</ele>
        <time>2022-02-03T16:03:30Z</time>
      </trkpt>
      <trkpt lat="49.50082" lon="-1.55081">
        <ele>37.6</ele>
        <time>2022-02-03T16:03:35Z</time>
      </trkpt>
      <trkpt lat="49.50082" lon="-1.55073">
        <ele>37.2</ele>
        <time>2022-02-03T16:03:38Z</time>
      </trkpt>
      <trkpt lat="49.50082" lon="-1.55066">
        <ele>36.8</ele>
        <time>2022-02-03T16:03:41Z</time>
      </trkpt>
      <trkpt lat="49.50082" lon="-1.55059">
        <ele>36.5</ele>
        <time>2022-02-03T16:03:43Z</time>
      </trkpt>
      <trkpt lat="49.50081" lon="-1.55051">
        <ele>36.4</ele>
        <time>2022-02-03T16:03:46Z</time>
      </trkpt>
      <trkpt lat="49.50081" lon="-1.55043">
        <ele>36.5</ele>
        <time>2022-02-03T16:03:49Z</time>
      </trkpt>
      <trkpt lat="49.5008" lon="-1.55034">
        <ele>37.1</ele>
        <time>2022-02-03T16:03:54Z</time>
      </trkpt>
      <trkpt lat="49.5008" lon="-1.55026">
        <ele>37.6</ele>
        <time>2022-02-03T16:03:59Z</time>
      </trkpt>
      <trkpt lat="49.5008" lon="-1.55018">
        <ele>37.7</ele>
        <time>2022-02-03T16:04:03Z</time>
      </trkpt>
      <trkpt lat="49.50081" lon="-1.55011">
        <ele>37.8</ele>
        <time>2022-02-03T16:04:06Z</time>
      </trkpt>
      <trkpt lat="49.50081" lon="-1.55003">
        <ele>38</ele>
        <time>2022-02-03T16:04:11Z</time>
      </trkpt>
      <trkpt lat="49.50081" lon="-1.54995">
        <ele>38.3</ele>
        <time>2022-02-03T16:04:15Z</time>
      </trkpt>
      <trkpt lat="49.5008" lon="-1.54988">
        <ele>38.6</ele>
        <time>2022-02-03T16:04:18Z</time>
      </trkpt>
      <trkpt lat="49.50079" lon="-1.54976">
        <ele>39.1</ele>
        <time>2022-02-03T16:04:22Z</time>
      </trkpt>
      <trkpt lat="49.50078" lon="-1.54969">
        <ele>39.8</ele>
        <time>2022-02-03T16:04:29Z</time>
      </trkpt>
      <trkpt lat="49.50078" lon="-1.54961">
        <ele>40.4</ele>
        <time>2022-02-03T16:04:35Z</time>
      </trkpt>
      <trkpt lat="49.50078" lon="-1.54954">
        <ele>41.5</ele>
        <time>2022-02-03T16:04:55Z</time>
      </trkpt>
      <trkpt lat="49.50077" lon="-1.54945">
        <ele>41.6</ele>
        <time>2022-02-03T16:04:58Z</time>
      </trkpt>
      <trkpt lat="49.50075" lon="-1.54937">
        <ele>41.7</ele>
        <time>2022-02-03T16:05:02Z</time>
      </trkpt>
      <trkpt lat="49.50066" lon="-1.54875">
        <ele>44.3</ele>
        <time>2022-02-03T16:05:24Z</time>
      </trkpt>
      <trkpt lat="49.50062" lon="-1.54869">
        <ele>45</ele>
        <time>2022-02-03T16:05:30Z</time>
      </trkpt>
      <trkpt lat="49.5006" lon="-1.54861">
        <ele>45.3</ele>
        <time>2022-02-03T16:05:34Z</time>
      </trkpt>
      <trkpt lat="49.5006" lon="-1.54853">
        <ele>45.4</ele>
        <time>2022-02-03T16:05:36Z</time>
      </trkpt>
      <trkpt lat="49.50061" lon="-1.54845">
        <ele>45.5</ele>
        <time>2022-02-03T16:05:38Z</time>
      </trkpt>
      <trkpt lat="49.5006" lon="-1.54836">
        <ele>45.8</ele>
        <time>2022-02-03T16:05:41Z</time>
      </trkpt>
      <trkpt lat="49.50059" lon="-1.54823">
        <ele>46.1</ele>
        <time>2022-02-03T16:05:44Z</time>
      </trkpt>
      <trkpt lat="49.50059" lon="-1.54814">
        <ele>46.2</ele>
        <time>2022-02-03T16:05:46Z</time>
      </trkpt>
      <trkpt lat="49.5006" lon="-1.54806">
        <ele>45.9</ele>
        <time>2022-02-03T16:05:49Z</time>
      </trkpt>
      <trkpt lat="49.50062" lon="-1.54799">
        <ele>46.1</ele>
        <time>2022-02-03T16:06:20Z</time>
      </trkpt>
      <trkpt lat="49.50061" lon="-1.54788">
        <ele>46.4</ele>
        <time>2022-02-03T16:06:25Z</time>
      </trkpt>
      <trkpt lat="49.50058" lon="-1.54779">
        <ele>46.7</ele>
        <time>2022-02-03T16:06:30Z</time>
      </trkpt>
      <trkpt lat="49.50055" lon="-1.54772">
        <ele>47.1</ele>
        <time>2022-02-03T16:06:36Z</time>
      </trkpt>
      <trkpt lat="49.50054" lon="-1.54764">
        <ele>47.4</ele>
        <time>2022-02-03T16:06:40Z</time>
      </trkpt>
      <trkpt lat="49.50053" lon="-1.54755">
        <ele>47.9</ele>
        <time>2022-02-03T16:06:51Z</time>
      </trkpt>
      <trkpt lat="49.50055" lon="-1.54762">
        <ele>50.1</ele>
        <time>2022-02-03T16:07:36Z</time>
      </trkpt>
      <trkpt lat="49.50056" lon="-1.5477">
        <ele>49.7</ele>
        <time>2022-02-03T16:07:38Z</time>
      </trkpt>
      <trkpt lat="49.50057" lon="-1.5478">
        <ele>49.4</ele>
        <time>2022-02-03T16:07:41Z</time>
      </trkpt>
      <trkpt lat="49.5006" lon="-1.54787">
        <ele>49.2</ele>
        <time>2022-02-03T16:07:43Z</time>
      </trkpt>
      <trkpt lat="49.50066" lon="-1.54788">
        <ele>49.2</ele>
        <time>2022-02-03T16:07:47Z</time>
      </trkpt>
      <trkpt lat="49.50071" lon="-1.54785">
        <ele>49</ele>
        <time>2022-02-03T16:07:51Z</time>
      </trkpt>
      <trkpt lat="49.50076" lon="-1.5478">
        <ele>48.7</ele>
        <time>2022-02-03T16:07:54Z</time>
      </trkpt>
      <trkpt lat="49.50079" lon="-1.54773">
        <ele>48.6</ele>
        <time>2022-02-03T16:08:10Z</time>
      </trkpt>
      <trkpt lat="49.50084" lon="-1.54766">
        <ele>48.5</ele>
        <time>2022-02-03T16:08:15Z</time>
      </trkpt>
      <trkpt lat="49.50087" lon="-1.5476">
        <ele>48.5</ele>
        <time>2022-02-03T16:08:18Z</time>
      </trkpt>
      <trkpt lat="49.50091" lon="-1.54755">
        <ele>48.5</ele>
        <time>2022-02-03T16:08:22Z</time>
      </trkpt>
      <trkpt lat="49.50094" lon="-1.54749">
        <ele>48.5</ele>
        <time>2022-02-03T16:08:25Z</time>
      </trkpt>
      <trkpt lat="49.50097" lon="-1.54745">
        <ele>48.7</ele>
        <time>2022-02-03T16:08:28Z</time>
      </trkpt>
      <trkpt lat="49.50101" lon="-1.54738">
        <ele>48.6</ele>
        <time>2022-02-03T16:08:33Z</time>
      </trkpt>
      <trkpt lat="49.50104" lon="-1.54732">
        <ele>48.6</ele>
        <time>2022-02-03T16:08:37Z</time>
      </trkpt>
      <trkpt lat="49.50108" lon="-1.5473">
        <ele>48.3</ele>
        <time>2022-02-03T16:08:48Z</time>
      </trkpt>
      <trkpt lat="49.50112" lon="-1.54724">
        <ele>48</ele>
        <time>2022-02-03T16:08:52Z</time>
      </trkpt>
      <trkpt lat="49.50116" lon="-1.5472">
        <ele>47.6</ele>
        <time>2022-02-03T16:08:57Z</time>
      </trkpt>
      <trkpt lat="49.50122" lon="-1.54717">
        <ele>47.4</ele>
        <time>2022-02-03T16:09:00Z</time>
      </trkpt>
      <trkpt lat="49.50126" lon="-1.54718">
        <ele>47.4</ele>
        <time>2022-02-03T16:09:03Z</time>
      </trkpt>
      <trkpt lat="49.50129" lon="-1.54724">
        <ele>47.4</ele>
        <time>2022-02-03T16:09:06Z</time>
      </trkpt>
      <trkpt lat="49.50128" lon="-1.54733">
        <ele>47.5</ele>
        <time>2022-02-03T16:09:09Z</time>
      </trkpt>
      <trkpt lat="49.50127" lon="-1.5474">
        <ele>47.6</ele>
        <time>2022-02-03T16:09:12Z</time>
      </trkpt>
      <trkpt lat="49.50125" lon="-1.54747">
        <ele>47.7</ele>
        <time>2022-02-03T16:09:16Z</time>
      </trkpt>
      <trkpt lat="49.50123" lon="-1.54754">
        <ele>47.6</ele>
        <time>2022-02-03T16:09:20Z</time>
      </trkpt>
      <trkpt lat="49.5012" lon="-1.5476">
        <ele>47.6</ele>
        <time>2022-02-03T16:09:23Z</time>
      </trkpt>
      <trkpt lat="49.50117" lon="-1.54767">
        <ele>47.4</ele>
        <time>2022-02-03T16:09:27Z</time>
      </trkpt>
      <trkpt lat="49.50114" lon="-1.54773">
        <ele>47.2</ele>
        <time>2022-02-03T16:09:30Z</time>
      </trkpt>
      <trkpt lat="49.50111" lon="-1.5478">
        <ele>47</ele>
        <time>2022-02-03T16:09:34Z</time>
      </trkpt>
      <trkpt lat="49.50108" lon="-1.54786">
        <ele>47.3</ele>
        <time>2022-02-03T16:09:38Z</time>
      </trkpt>
      <trkpt lat="49.50104" lon="-1.5479">
        <ele>47.5</ele>
        <time>2022-02-03T16:09:42Z</time>
      </trkpt>
      <trkpt lat="49.50102" lon="-1.54797">
        <ele>48.1</ele>
        <time>2022-02-03T16:10:01Z</time>
      </trkpt>
      <trkpt lat="49.50098" lon="-1.54805">
        <ele>47.7</ele>
        <time>2022-02-03T16:10:05Z</time>
      </trkpt>
      <trkpt lat="49.50097" lon="-1.54814">
        <ele>47.4</ele>
        <time>2022-02-03T16:10:09Z</time>
      </trkpt>
      <trkpt lat="49.50097" lon="-1.54821">
        <ele>47.2</ele>
        <time>2022-02-03T16:10:12Z</time>
      </trkpt>
      <trkpt lat="49.50096" lon="-1.54829">
        <ele>46.8</ele>
        <time>2022-02-03T16:10:15Z</time>
      </trkpt>
      <trkpt lat="49.50096" lon="-1.54837">
        <ele>46.5</ele>
        <time>2022-02-03T16:10:20Z</time>
      </trkpt>
      <trkpt lat="49.50096" lon="-1.54846">
        <ele>46.1</ele>
        <time>2022-02-03T16:10:24Z</time>
      </trkpt>
      <trkpt lat="49.50095" lon="-1.54853">
        <ele>45.5</ele>
        <time>2022-02-03T16:10:27Z</time>
      </trkpt>
      <trkpt lat="49.50097" lon="-1.54862">
        <ele>44.9</ele>
        <time>2022-02-03T16:10:31Z</time>
      </trkpt>
      <trkpt lat="49.50098" lon="-1.5487">
        <ele>44.4</ele>
        <time>2022-02-03T16:10:37Z</time>
      </trkpt>
      <trkpt lat="49.501" lon="-1.54878">
        <ele>43.9</ele>
        <time>2022-02-03T16:10:41Z</time>
      </trkpt>
      <trkpt lat="49.50101" lon="-1.54887">
        <ele>43</ele>
        <time>2022-02-03T16:10:46Z</time>
      </trkpt>
      <trkpt lat="49.50105" lon="-1.54894">
        <ele>42.1</ele>
        <time>2022-02-03T16:10:52Z</time>
      </trkpt>
      <trkpt lat="49.50109" lon="-1.54897">
        <ele>41.6</ele>
        <time>2022-02-03T16:10:56Z</time>
      </trkpt>
      <trkpt lat="49.50114" lon="-1.54903">
        <ele>41.4</ele>
        <time>2022-02-03T16:11:00Z</time>
      </trkpt>
      <trkpt lat="49.50117" lon="-1.54908">
        <ele>41.2</ele>
        <time>2022-02-03T16:11:03Z</time>
      </trkpt>
      <trkpt lat="49.50135" lon="-1.54939">
        <ele>40.7</ele>
        <time>2022-02-03T16:11:19Z</time>
      </trkpt>
      <trkpt lat="49.50138" lon="-1.54945">
        <ele>40.8</ele>
        <time>2022-02-03T16:11:23Z</time>
      </trkpt>
      <trkpt lat="49.50142" lon="-1.54949">
        <ele>41</ele>
        <time>2022-02-03T16:11:27Z</time>
      </trkpt>
      <trkpt lat="49.50145" lon="-1.54954">
        <ele>41.4</ele>
        <time>2022-02-03T16:11:31Z</time>
      </trkpt>
      <trkpt lat="49.50149" lon="-1.54961">
        <ele>42.7</ele>
        <time>2022-02-03T16:11:44Z</time>
      </trkpt>
      <trkpt lat="49.50154" lon="-1.54967">
        <ele>42.8</ele>
        <time>2022-02-03T16:11:48Z</time>
      </trkpt>
      <trkpt lat="49.50158" lon="-1.54973">
        <ele>42.8</ele>
        <time>2022-02-03T16:11:53Z</time>
      </trkpt>
      <trkpt lat="49.50162" lon="-1.54977">
        <ele>42.8</ele>
        <time>2022-02-03T16:11:57Z</time>
      </trkpt>
      <trkpt lat="49.50166" lon="-1.54982">
        <ele>43.1</ele>
        <time>2022-02-03T16:12:01Z</time>
      </trkpt>
      <trkpt lat="49.50171" lon="-1.54985">
        <ele>44.6</ele>
        <time>2022-02-03T16:12:18Z</time>
      </trkpt>
      <trkpt lat="49.50175" lon="-1.5499">
        <ele>44.7</ele>
        <time>2022-02-03T16:12:23Z</time>
      </trkpt>
      <trkpt lat="49.50178" lon="-1.54995">
        <ele>44.7</ele>
        <time>2022-02-03T16:12:26Z</time>
      </trkpt>
      <trkpt lat="49.50182" lon="-1.54999">
        <ele>44.3</ele>
        <time>2022-02-03T16:12:29Z</time>
      </trkpt>
      <trkpt lat="49.50187" lon="-1.55005">
        <ele>44.1</ele>
        <time>2022-02-03T16:12:34Z</time>
      </trkpt>
      <trkpt lat="49.50191" lon="-1.55009">
        <ele>44.9</ele>
        <time>2022-02-03T16:12:43Z</time>
      </trkpt>
      <trkpt lat="49.50195" lon="-1.55014">
        <ele>44.9</ele>
        <time>2022-02-03T16:12:49Z</time>
      </trkpt>
      <trkpt lat="49.50199" lon="-1.5502">
        <ele>45</ele>
        <time>2022-02-03T16:12:54Z</time>
      </trkpt>
      <trkpt lat="49.50202" lon="-1.55026">
        <ele>44.9</ele>
        <time>2022-02-03T16:12:58Z</time>
      </trkpt>
      <trkpt lat="49.50206" lon="-1.55031">
        <ele>45.1</ele>
        <time>2022-02-03T16:13:03Z</time>
      </trkpt>
      <trkpt lat="49.5021" lon="-1.55035">
        <ele>45.4</ele>
        <time>2022-02-03T16:13:06Z</time>
      </trkpt>
      <trkpt lat="49.50213" lon="-1.55041">
        <ele>46.2</ele>
        <time>2022-02-03T16:13:23Z</time>
      </trkpt>
      <trkpt lat="49.50218" lon="-1.55045">
        <ele>46.3</ele>
        <time>2022-02-03T16:13:26Z</time>
      </trkpt>
      <trkpt lat="49.50222" lon="-1.5505">
        <ele>46.2</ele>
        <time>2022-02-03T16:13:29Z</time>
      </trkpt>
      <trkpt lat="49.50226" lon="-1.55055">
        <ele>46.6</ele>
        <time>2022-02-03T16:13:47Z</time>
      </trkpt>
      <trkpt lat="49.50231" lon="-1.55059">
        <ele>46.3</ele>
        <time>2022-02-03T16:13:54Z</time>
      </trkpt>
      <trkpt lat="49.50236" lon="-1.55065">
        <ele>46.1</ele>
        <time>2022-02-03T16:13:58Z</time>
      </trkpt>
      <trkpt lat="49.50239" lon="-1.55071">
        <ele>46</ele>
        <time>2022-02-03T16:14:00Z</time>
      </trkpt>
      <trkpt lat="49.50243" lon="-1.55077">
        <ele>45.8</ele>
        <time>2022-02-03T16:14:04Z</time>
      </trkpt>
      <trkpt lat="49.50247" lon="-1.55082">
        <ele>45.8</ele>
        <time>2022-02-03T16:14:07Z</time>
      </trkpt>
      <trkpt lat="49.50252" lon="-1.55087">
        <ele>45.9</ele>
        <time>2022-02-03T16:14:11Z</time>
      </trkpt>
      <trkpt lat="49.50256" lon="-1.55092">
        <ele>45.9</ele>
        <time>2022-02-03T16:14:16Z</time>
      </trkpt>
      <trkpt lat="49.5026" lon="-1.55098">
        <ele>45.9</ele>
        <time>2022-02-03T16:14:20Z</time>
      </trkpt>
      <trkpt lat="49.50264" lon="-1.55106">
        <ele>45.8</ele>
        <time>2022-02-03T16:14:24Z</time>
      </trkpt>
      <trkpt lat="49.50268" lon="-1.5511">
        <ele>45.8</ele>
        <time>2022-02-03T16:14:28Z</time>
      </trkpt>
      <trkpt lat="49.50273" lon="-1.55112">
        <ele>46.3</ele>
        <time>2022-02-03T16:14:40Z</time>
      </trkpt>
      <trkpt lat="49.50277" lon="-1.55117">
        <ele>46.6</ele>
        <time>2022-02-03T16:14:45Z</time>
      </trkpt>
      <trkpt lat="49.50279" lon="-1.55124">
        <ele>46.6</ele>
        <time>2022-02-03T16:14:49Z</time>
      </trkpt>
      <trkpt lat="49.50282" lon="-1.55131">
        <ele>46.5</ele>
        <time>2022-02-03T16:14:53Z</time>
      </trkpt>
      <trkpt lat="49.50286" lon="-1.55134">
        <ele>46.3</ele>
        <time>2022-02-03T16:14:57Z</time>
      </trkpt>
      <trkpt lat="49.50291" lon="-1.55138">
        <ele>47</ele>
        <time>2022-02-03T16:15:08Z</time>
      </trkpt>
      <trkpt lat="49.50295" lon="-1.55141">
        <ele>47.1</ele>
        <time>2022-02-03T16:15:12Z</time>
      </trkpt>
      <trkpt lat="49.50298" lon="-1.55147">
        <ele>46.7</ele>
        <time>2022-02-03T16:15:16Z</time>
      </trkpt>
      <trkpt lat="49.50302" lon="-1.55153">
        <ele>46.2</ele>
        <time>2022-02-03T16:15:27Z</time>
      </trkpt>
      <trkpt lat="49.50305" lon="-1.55158">
        <ele>46.1</ele>
        <time>2022-02-03T16:15:30Z</time>
      </trkpt>
      <trkpt lat="49.50309" lon="-1.55163">
        <ele>45.9</ele>
        <time>2022-02-03T16:15:33Z</time>
      </trkpt>
      <trkpt lat="49.50313" lon="-1.55166">
        <ele>45.6</ele>
        <time>2022-02-03T16:15:35Z</time>
      </trkpt>
      <trkpt lat="49.50317" lon="-1.5517">
        <ele>45.3</ele>
        <time>2022-02-03T16:15:39Z</time>
      </trkpt>
      <trkpt lat="49.50321" lon="-1.55175">
        <ele>45.5</ele>
        <time>2022-02-03T16:15:58Z</time>
      </trkpt>
      <trkpt lat="49.50325" lon="-1.5518">
        <ele>45.2</ele>
        <time>2022-02-03T16:16:02Z</time>
      </trkpt>
      <trkpt lat="49.50329" lon="-1.55183">
        <ele>45.1</ele>
        <time>2022-02-03T16:16:06Z</time>
      </trkpt>
      <trkpt lat="49.50334" lon="-1.55187">
        <ele>44.9</ele>
        <time>2022-02-03T16:16:17Z</time>
      </trkpt>
      <trkpt lat="49.50351" lon="-1.55203">
        <ele>44.1</ele>
        <time>2022-02-03T16:16:28Z</time>
      </trkpt>
      <trkpt lat="49.50355" lon="-1.5521">
        <ele>44.1</ele>
        <time>2022-02-03T16:16:34Z</time>
      </trkpt>
      <trkpt lat="49.50358" lon="-1.55218">
        <ele>44.1</ele>
        <time>2022-02-03T16:16:36Z</time>
      </trkpt>
      <trkpt lat="49.5037" lon="-1.5524">
        <ele>43.4</ele>
        <time>2022-02-03T16:16:45Z</time>
      </trkpt>
      <trkpt lat="49.50374" lon="-1.55243">
        <ele>43.1</ele>
        <time>2022-02-03T16:16:50Z</time>
      </trkpt>
      <trkpt lat="49.50378" lon="-1.55249">
        <ele>42.1</ele>
        <time>2022-02-03T16:17:12Z</time>
      </trkpt>
      <trkpt lat="49.50382" lon="-1.55254">
        <ele>41.4</ele>
        <time>2022-02-03T16:17:17Z</time>
      </trkpt>
      <trkpt lat="49.50386" lon="-1.5526">
        <ele>41</ele>
        <time>2022-02-03T16:17:22Z</time>
      </trkpt>
      <trkpt lat="49.50391" lon="-1.55265">
        <ele>40.6</ele>
        <time>2022-02-03T16:17:27Z</time>
      </trkpt>
      <trkpt lat="49.50396" lon="-1.55271">
        <ele>40.1</ele>
        <time>2022-02-03T16:17:33Z</time>
      </trkpt>
      <trkpt lat="49.50402" lon="-1.55269">
        <ele>39.2</ele>
        <time>2022-02-03T16:17:37Z</time>
      </trkpt>
      <trkpt lat="49.50405" lon="-1.55264">
        <ele>38.7</ele>
        <time>2022-02-03T16:17:41Z</time>
      </trkpt>
      <trkpt lat="49.50406" lon="-1.55257">
        <ele>38.6</ele>
        <time>2022-02-03T16:17:44Z</time>
      </trkpt>
      <trkpt lat="49.5041" lon="-1.55251">
        <ele>38.8</ele>
        <time>2022-02-03T16:17:49Z</time>
      </trkpt>
      <trkpt lat="49.50412" lon="-1.55245">
        <ele>38.8</ele>
        <time>2022-02-03T16:17:56Z</time>
      </trkpt>
      <trkpt lat="49.50415" lon="-1.55239">
        <ele>38.7</ele>
        <time>2022-02-03T16:17:59Z</time>
      </trkpt>
      <trkpt lat="49.50419" lon="-1.55234">
        <ele>38.5</ele>
        <time>2022-02-03T16:18:03Z</time>
      </trkpt>
      <trkpt lat="49.50424" lon="-1.55232">
        <ele>38.1</ele>
        <time>2022-02-03T16:18:08Z</time>
      </trkpt>
      <trkpt lat="49.5043" lon="-1.55232">
        <ele>37.8</ele>
        <time>2022-02-03T16:18:12Z</time>
      </trkpt>
      <trkpt lat="49.50434" lon="-1.55234">
        <ele>37.6</ele>
        <time>2022-02-03T16:18:15Z</time>
      </trkpt>
      <trkpt lat="49.50439" lon="-1.55236">
        <ele>37.1</ele>
        <time>2022-02-03T16:18:20Z</time>
      </trkpt>
      <trkpt lat="49.50444" lon="-1.55237">
        <ele>37</ele>
        <time>2022-02-03T16:18:40Z</time>
      </trkpt>
      <trkpt lat="49.50449" lon="-1.55235">
        <ele>37.1</ele>
        <time>2022-02-03T16:18:45Z</time>
      </trkpt>
      <trkpt lat="49.50454" lon="-1.55231">
        <ele>37.3</ele>
        <time>2022-02-03T16:18:49Z</time>
      </trkpt>
      <trkpt lat="49.50459" lon="-1.55225">
        <ele>37.6</ele>
        <time>2022-02-03T16:18:52Z</time>
      </trkpt>
      <trkpt lat="49.50482" lon="-1.55206">
        <ele>39.1</ele>
        <time>2022-02-03T16:19:02Z</time>
      </trkpt>
      <trkpt lat="49.50487" lon="-1.55201">
        <ele>39.2</ele>
        <time>2022-02-03T16:19:06Z</time>
      </trkpt>
      <trkpt lat="49.50494" lon="-1.55192">
        <ele>39.8</ele>
        <time>2022-02-03T16:19:11Z</time>
      </trkpt>
      <trkpt lat="49.50498" lon="-1.55188">
        <ele>40.9</ele>
        <time>2022-02-03T16:19:16Z</time>
      </trkpt>
      <trkpt lat="49.50502" lon="-1.55182">
        <ele>41.3</ele>
        <time>2022-02-03T16:19:21Z</time>
      </trkpt>
      <trkpt lat="49.50505" lon="-1.55176">
        <ele>41.8</ele>
        <time>2022-02-03T16:19:26Z</time>
      </trkpt>
      <trkpt lat="49.50509" lon="-1.55172">
        <ele>42.3</ele>
        <time>2022-02-03T16:19:29Z</time>
      </trkpt>
      <trkpt lat="49.50512" lon="-1.55166">
        <ele>42.8</ele>
        <time>2022-02-03T16:19:34Z</time>
      </trkpt>
      <trkpt lat="49.50516" lon="-1.55159">
        <ele>43.1</ele>
        <time>2022-02-03T16:19:38Z</time>
      </trkpt>
      <trkpt lat="49.5052" lon="-1.55152">
        <ele>43.3</ele>
        <time>2022-02-03T16:19:43Z</time>
      </trkpt>
      <trkpt lat="49.50523" lon="-1.55147">
        <ele>43.2</ele>
        <time>2022-02-03T16:19:46Z</time>
      </trkpt>
      <trkpt lat="49.50526" lon="-1.55142">
        <ele>43.3</ele>
        <time>2022-02-03T16:19:49Z</time>
      </trkpt>
      <trkpt lat="49.5053" lon="-1.55136">
        <ele>43.8</ele>
        <time>2022-02-03T16:19:54Z</time>
      </trkpt>
      <trkpt lat="49.50534" lon="-1.55132">
        <ele>44</ele>
        <time>2022-02-03T16:19:59Z</time>
      </trkpt>
      <trkpt lat="49.50538" lon="-1.55127">
        <ele>44.2</ele>
        <time>2022-02-03T16:20:04Z</time>
      </trkpt>
      <trkpt lat="49.50543" lon="-1.55122">
        <ele>44.6</ele>
        <time>2022-02-03T16:20:10Z</time>
      </trkpt>
      <trkpt lat="49.50546" lon="-1.55116">
        <ele>44.8</ele>
        <time>2022-02-03T16:20:14Z</time>
      </trkpt>
      <trkpt lat="49.50549" lon="-1.55108">
        <ele>45.2</ele>
        <time>2022-02-03T16:20:18Z</time>
      </trkpt>
      <trkpt lat="49.50552" lon="-1.55102">
        <ele>45.6</ele>
        <time>2022-02-03T16:20:21Z</time>
      </trkpt>
      <trkpt lat="49.50555" lon="-1.55095">
        <ele>45.9</ele>
        <time>2022-02-03T16:20:25Z</time>
      </trkpt>
      <trkpt lat="49.50558" lon="-1.5509">
        <ele>46.3</ele>
        <time>2022-02-03T16:20:28Z</time>
      </trkpt>
      <trkpt lat="49.50561" lon="-1.55085">
        <ele>46.6</ele>
        <time>2022-02-03T16:20:31Z</time>
      </trkpt>
      <trkpt lat="49.50565" lon="-1.55079">
        <ele>46.9</ele>
        <time>2022-02-03T16:20:36Z</time>
      </trkpt>
      <trkpt lat="49.50569" lon="-1.55073">
        <ele>47.1</ele>
        <time>2022-02-03T16:20:41Z</time>
      </trkpt>
      <trkpt lat="49.50572" lon="-1.55067">
        <ele>47.3</ele>
        <time>2022-02-03T16:20:45Z</time>
      </trkpt>
      <trkpt lat="49.50575" lon="-1.55061">
        <ele>47.5</ele>
        <time>2022-02-03T16:20:49Z</time>
      </trkpt>
      <trkpt lat="49.50578" lon="-1.55054">
        <ele>48</ele>
        <time>2022-02-03T16:20:54Z</time>
      </trkpt>
      <trkpt lat="49.50581" lon="-1.55047">
        <ele>48.4</ele>
        <time>2022-02-03T16:20:59Z</time>
      </trkpt>
      <trkpt lat="49.50585" lon="-1.55041">
        <ele>48.7</ele>
        <time>2022-02-03T16:21:02Z</time>
      </trkpt>
      <trkpt lat="49.50588" lon="-1.55037">
        <ele>48.9</ele>
        <time>2022-02-03T16:21:05Z</time>
      </trkpt>
      <trkpt lat="49.50592" lon="-1.55032">
        <ele>49.3</ele>
        <time>2022-02-03T16:21:09Z</time>
      </trkpt>
      <trkpt lat="49.50596" lon="-1.55026">
        <ele>49.5</ele>
        <time>2022-02-03T16:21:14Z</time>
      </trkpt>
      <trkpt lat="49.506" lon="-1.5502">
        <ele>49.6</ele>
        <time>2022-02-03T16:21:18Z</time>
      </trkpt>
      <trkpt lat="49.50604" lon="-1.55014">
        <ele>49.9</ele>
        <time>2022-02-03T16:21:21Z</time>
      </trkpt>
      <trkpt lat="49.50608" lon="-1.55008">
        <ele>50.4</ele>
        <time>2022-02-03T16:21:24Z</time>
      </trkpt>
      <trkpt lat="49.50611" lon="-1.55002">
        <ele>50.7</ele>
        <time>2022-02-03T16:21:28Z</time>
      </trkpt>
      <trkpt lat="49.50614" lon="-1.54996">
        <ele>50.8</ele>
        <time>2022-02-03T16:21:31Z</time>
      </trkpt>
      <trkpt lat="49.50617" lon="-1.54992">
        <ele>50.7</ele>
        <time>2022-02-03T16:21:34Z</time>
      </trkpt>
      <trkpt lat="49.50621" lon="-1.54987">
        <ele>50.7</ele>
        <time>2022-02-03T16:21:39Z</time>
      </trkpt>
      <trkpt lat="49.50625" lon="-1.54981">
        <ele>50.7</ele>
        <time>2022-02-03T16:21:43Z</time>
      </trkpt>
      <trkpt lat="49.50629" lon="-1.54974">
        <ele>50.5</ele>
        <time>2022-02-03T16:21:47Z</time>
      </trkpt>
      <trkpt lat="49.50632" lon="-1.54968">
        <ele>50.6</ele>
        <time>2022-02-03T16:21:51Z</time>
      </trkpt>
      <trkpt lat="49.50637" lon="-1.54962">
        <ele>50.8</ele>
        <time>2022-02-03T16:21:55Z</time>
      </trkpt>
      <trkpt lat="49.50641" lon="-1.54956">
        <ele>51</ele>
        <time>2022-02-03T16:22:00Z</time>
      </trkpt>
      <trkpt lat="49.50644" lon="-1.5495">
        <ele>51.3</ele>
        <time>2022-02-03T16:22:04Z</time>
      </trkpt>
      <trkpt lat="49.50646" lon="-1.54943">
        <ele>51.7</ele>
        <time>2022-02-03T16:22:07Z</time>
      </trkpt>
      <trkpt lat="49.50649" lon="-1.54937">
        <ele>52</ele>
        <time>2022-02-03T16:22:10Z</time>
      </trkpt>
      <trkpt lat="49.50652" lon="-1.54932">
        <ele>52.3</ele>
        <time>2022-02-03T16:22:15Z</time>
      </trkpt>
      <trkpt lat="49.50655" lon="-1.54925">
        <ele>52.5</ele>
        <time>2022-02-03T16:22:19Z</time>
      </trkpt>
      <trkpt lat="49.50658" lon="-1.54919">
        <ele>52.8</ele>
        <time>2022-02-03T16:22:23Z</time>
      </trkpt>
      <trkpt lat="49.50662" lon="-1.54913">
        <ele>52.8</ele>
        <time>2022-02-03T16:22:27Z</time>
      </trkpt>
      <trkpt lat="49.50665" lon="-1.54908">
        <ele>52.9</ele>
        <time>2022-02-03T16:22:33Z</time>
      </trkpt>
      <trkpt lat="49.50667" lon="-1.54901">
        <ele>53.4</ele>
        <time>2022-02-03T16:22:46Z</time>
      </trkpt>
      <trkpt lat="49.50672" lon="-1.54893">
        <ele>53.3</ele>
        <time>2022-02-03T16:22:50Z</time>
      </trkpt>
      <trkpt lat="49.50674" lon="-1.54884">
        <ele>53</ele>
        <time>2022-02-03T16:22:53Z</time>
      </trkpt>
      <trkpt lat="49.50678" lon="-1.54871">
        <ele>51.7</ele>
        <time>2022-02-03T16:22:59Z</time>
      </trkpt>
      <trkpt lat="49.5068" lon="-1.54863">
        <ele>50.7</ele>
        <time>2022-02-03T16:23:03Z</time>
      </trkpt>
      <trkpt lat="49.50683" lon="-1.54857">
        <ele>50.7</ele>
        <time>2022-02-03T16:23:07Z</time>
      </trkpt>
      <trkpt lat="49.50683" lon="-1.54849">
        <ele>50.9</ele>
        <time>2022-02-03T16:23:10Z</time>
      </trkpt>
      <trkpt lat="49.50685" lon="-1.54842">
        <ele>51.4</ele>
        <time>2022-02-03T16:23:14Z</time>
      </trkpt>
      <trkpt lat="49.50687" lon="-1.54834">
        <ele>51.6</ele>
        <time>2022-02-03T16:23:17Z</time>
      </trkpt>
      <trkpt lat="49.50689" lon="-1.54827">
        <ele>51.6</ele>
        <time>2022-02-03T16:23:20Z</time>
      </trkpt>
      <trkpt lat="49.5069" lon="-1.5482">
        <ele>51.5</ele>
        <time>2022-02-03T16:23:24Z</time>
      </trkpt>
      <trkpt lat="49.50692" lon="-1.54812">
        <ele>51.3</ele>
        <time>2022-02-03T16:23:27Z</time>
      </trkpt>
      <trkpt lat="49.50695" lon="-1.54806">
        <ele>51.1</ele>
        <time>2022-02-03T16:23:30Z</time>
      </trkpt>
      <trkpt lat="49.50697" lon="-1.54799">
        <ele>50.6</ele>
        <time>2022-02-03T16:23:34Z</time>
      </trkpt>
      <trkpt lat="49.507" lon="-1.54791">
        <ele>50.3</ele>
        <time>2022-02-03T16:23:38Z</time>
      </trkpt>
      <trkpt lat="49.50702" lon="-1.54784">
        <ele>50.1</ele>
        <time>2022-02-03T16:23:40Z</time>
      </trkpt>
      <trkpt lat="49.50706" lon="-1.54778">
        <ele>49.9</ele>
        <time>2022-02-03T16:23:44Z</time>
      </trkpt>
      <trkpt lat="49.50711" lon="-1.54776">
        <ele>49.5</ele>
        <time>2022-02-03T16:23:47Z</time>
      </trkpt>
      <trkpt lat="49.50716" lon="-1.54777">
        <ele>49</ele>
        <time>2022-02-03T16:23:50Z</time>
      </trkpt>
      <trkpt lat="49.5072" lon="-1.5478">
        <ele>48.5</ele>
        <time>2022-02-03T16:23:54Z</time>
      </trkpt>
      <trkpt lat="49.50724" lon="-1.54783">
        <ele>48.3</ele>
        <time>2022-02-03T16:23:58Z</time>
      </trkpt>
      <trkpt lat="49.50729" lon="-1.54786">
        <ele>48.1</ele>
        <time>2022-02-03T16:24:01Z</time>
      </trkpt>
      <trkpt lat="49.50734" lon="-1.54787">
        <ele>47.9</ele>
        <time>2022-02-03T16:24:05Z</time>
      </trkpt>
      <trkpt lat="49.5074" lon="-1.5479">
        <ele>47.8</ele>
        <time>2022-02-03T16:24:09Z</time>
      </trkpt>
      <trkpt lat="49.50744" lon="-1.54796">
        <ele>47.7</ele>
        <time>2022-02-03T16:24:12Z</time>
      </trkpt>
      <trkpt lat="49.50749" lon="-1.54798">
        <ele>47.6</ele>
        <time>2022-02-03T16:24:16Z</time>
      </trkpt>
      <trkpt lat="49.50754" lon="-1.548">
        <ele>47.3</ele>
        <time>2022-02-03T16:24:20Z</time>
      </trkpt>
      <trkpt lat="49.50758" lon="-1.54803">
        <ele>47</ele>
        <time>2022-02-03T16:24:23Z</time>
      </trkpt>
      <trkpt lat="49.50764" lon="-1.54805">
        <ele>46.5</ele>
        <time>2022-02-03T16:24:27Z</time>
      </trkpt>
      <trkpt lat="49.5077" lon="-1.54807">
        <ele>46.3</ele>
        <time>2022-02-03T16:24:32Z</time>
      </trkpt>
      <trkpt lat="49.50775" lon="-1.5481">
        <ele>46</ele>
        <time>2022-02-03T16:24:35Z</time>
      </trkpt>
      <trkpt lat="49.5078" lon="-1.54812">
        <ele>45.6</ele>
        <time>2022-02-03T16:24:39Z</time>
      </trkpt>
      <trkpt lat="49.50785" lon="-1.54814">
        <ele>45.2</ele>
        <time>2022-02-03T16:24:43Z</time>
      </trkpt>
      <trkpt lat="49.5079" lon="-1.54816">
        <ele>44.6</ele>
        <time>2022-02-03T16:24:47Z</time>
      </trkpt>
      <trkpt lat="49.50795" lon="-1.54819">
        <ele>44</ele>
        <time>2022-02-03T16:24:50Z</time>
      </trkpt>
      <trkpt lat="49.508" lon="-1.54822">
        <ele>43.4</ele>
        <time>2022-02-03T16:24:54Z</time>
      </trkpt>
      <trkpt lat="49.50806" lon="-1.54825">
        <ele>43.3</ele>
        <time>2022-02-03T16:24:58Z</time>
      </trkpt>
      <trkpt lat="49.50811" lon="-1.54826">
        <ele>43</ele>
        <time>2022-02-03T16:25:02Z</time>
      </trkpt>
      <trkpt lat="49.50816" lon="-1.54827">
        <ele>42.3</ele>
        <time>2022-02-03T16:25:06Z</time>
      </trkpt>
      <trkpt lat="49.50821" lon="-1.54829">
        <ele>41.4</ele>
        <time>2022-02-03T16:25:09Z</time>
      </trkpt>
      <trkpt lat="49.50826" lon="-1.54831">
        <ele>40.5</ele>
        <time>2022-02-03T16:25:12Z</time>
      </trkpt>
      <trkpt lat="49.5083" lon="-1.54833">
        <ele>39.7</ele>
        <time>2022-02-03T16:25:15Z</time>
      </trkpt>
      <trkpt lat="49.50835" lon="-1.54836">
        <ele>39</ele>
        <time>2022-02-03T16:25:19Z</time>
      </trkpt>
      <trkpt lat="49.50841" lon="-1.5484">
        <ele>38.4</ele>
        <time>2022-02-03T16:25:23Z</time>
      </trkpt>
      <trkpt lat="49.50845" lon="-1.54841">
        <ele>38.2</ele>
        <time>2022-02-03T16:25:26Z</time>
      </trkpt>
      <trkpt lat="49.5085" lon="-1.54841">
        <ele>37.9</ele>
        <time>2022-02-03T16:25:30Z</time>
      </trkpt>
      <trkpt lat="49.50855" lon="-1.5484">
        <ele>37.6</ele>
        <time>2022-02-03T16:25:34Z</time>
      </trkpt>
      <trkpt lat="49.50858" lon="-1.54834">
        <ele>37.7</ele>
        <time>2022-02-03T16:25:38Z</time>
      </trkpt>
      <trkpt lat="49.50862" lon="-1.54831">
        <ele>37.4</ele>
        <time>2022-02-03T16:25:54Z</time>
      </trkpt>
      <trkpt lat="49.50864" lon="-1.54825">
        <ele>37.3</ele>
        <time>2022-02-03T16:25:56Z</time>
      </trkpt>
      <trkpt lat="49.50866" lon="-1.54818">
        <ele>36.9</ele>
        <time>2022-02-03T16:25:59Z</time>
      </trkpt>
      <trkpt lat="49.50868" lon="-1.54808">
        <ele>36.5</ele>
        <time>2022-02-03T16:26:02Z</time>
      </trkpt>
      <trkpt lat="49.5086" lon="-1.5479">
        <ele>35.8</ele>
        <time>2022-02-03T16:26:13Z</time>
      </trkpt>
      <trkpt lat="49.50854" lon="-1.54787">
        <ele>35.8</ele>
        <time>2022-02-03T16:26:17Z</time>
      </trkpt>
      <trkpt lat="49.50849" lon="-1.54786">
        <ele>35.9</ele>
        <time>2022-02-03T16:26:20Z</time>
      </trkpt>
      <trkpt lat="49.50844" lon="-1.54785">
        <ele>36.2</ele>
        <time>2022-02-03T16:26:24Z</time>
      </trkpt>
      <trkpt lat="49.50839" lon="-1.54786">
        <ele>36.4</ele>
        <time>2022-02-03T16:26:28Z</time>
      </trkpt>
      <trkpt lat="49.50834" lon="-1.54786">
        <ele>36.6</ele>
        <time>2022-02-03T16:26:31Z</time>
      </trkpt>
      <trkpt lat="49.50828" lon="-1.54784">
        <ele>36.7</ele>
        <time>2022-02-03T16:26:35Z</time>
      </trkpt>
      <trkpt lat="49.50824" lon="-1.54783">
        <ele>36.8</ele>
        <time>2022-02-03T16:26:38Z</time>
      </trkpt>
      <trkpt lat="49.50818" lon="-1.54781">
        <ele>36.8</ele>
        <time>2022-02-03T16:26:42Z</time>
      </trkpt>
      <trkpt lat="49.50811" lon="-1.54779">
        <ele>36.8</ele>
        <time>2022-02-03T16:26:48Z</time>
      </trkpt>
      <trkpt lat="49.50806" lon="-1.54778">
        <ele>36.9</ele>
        <time>2022-02-03T16:26:51Z</time>
      </trkpt>
      <trkpt lat="49.50801" lon="-1.54778">
        <ele>37.2</ele>
        <time>2022-02-03T16:26:54Z</time>
      </trkpt>
      <trkpt lat="49.50796" lon="-1.54779">
        <ele>37.9</ele>
        <time>2022-02-03T16:26:58Z</time>
      </trkpt>
      <trkpt lat="49.5079" lon="-1.54778">
        <ele>38.9</ele>
        <time>2022-02-03T16:27:03Z</time>
      </trkpt>
      <trkpt lat="49.50785" lon="-1.54777">
        <ele>39.7</ele>
        <time>2022-02-03T16:27:07Z</time>
      </trkpt>
      <trkpt lat="49.50779" lon="-1.54776">
        <ele>40.4</ele>
        <time>2022-02-03T16:27:11Z</time>
      </trkpt>
      <trkpt lat="49.50775" lon="-1.54775">
        <ele>40.8</ele>
        <time>2022-02-03T16:27:14Z</time>
      </trkpt>
      <trkpt lat="49.5077" lon="-1.54772">
        <ele>41.1</ele>
        <time>2022-02-03T16:27:18Z</time>
      </trkpt>
      <trkpt lat="49.50765" lon="-1.5477">
        <ele>41.4</ele>
        <time>2022-02-03T16:27:21Z</time>
      </trkpt>
      <trkpt lat="49.50757" lon="-1.54764">
        <ele>41.6</ele>
        <time>2022-02-03T16:27:26Z</time>
      </trkpt>
      <trkpt lat="49.50752" lon="-1.54762">
        <ele>41.6</ele>
        <time>2022-02-03T16:27:30Z</time>
      </trkpt>
      <trkpt lat="49.50747" lon="-1.54761">
        <ele>41.8</ele>
        <time>2022-02-03T16:27:34Z</time>
      </trkpt>
      <trkpt lat="49.50741" lon="-1.54759">
        <ele>42</ele>
        <time>2022-02-03T16:27:38Z</time>
      </trkpt>
      <trkpt lat="49.50736" lon="-1.54756">
        <ele>42.2</ele>
        <time>2022-02-03T16:27:43Z</time>
      </trkpt>
      <trkpt lat="49.50729" lon="-1.54753">
        <ele>42.6</ele>
        <time>2022-02-03T16:27:48Z</time>
      </trkpt>
      <trkpt lat="49.50724" lon="-1.54753">
        <ele>43.1</ele>
        <time>2022-02-03T16:27:53Z</time>
      </trkpt>
      <trkpt lat="49.50719" lon="-1.54752">
        <ele>43.6</ele>
        <time>2022-02-03T16:27:57Z</time>
      </trkpt>
      <trkpt lat="49.50715" lon="-1.54746">
        <ele>44.7</ele>
        <time>2022-02-03T16:28:02Z</time>
      </trkpt>
      <trkpt lat="49.50716" lon="-1.54739">
        <ele>45.3</ele>
        <time>2022-02-03T16:28:06Z</time>
      </trkpt>
      <trkpt lat="49.50719" lon="-1.54733">
        <ele>45.5</ele>
        <time>2022-02-03T16:28:08Z</time>
      </trkpt>
      <trkpt lat="49.50727" lon="-1.5471">
        <ele>45.5</ele>
        <time>2022-02-03T16:28:19Z</time>
      </trkpt>
      <trkpt lat="49.5073" lon="-1.54702">
        <ele>45.2</ele>
        <time>2022-02-03T16:28:24Z</time>
      </trkpt>
      <trkpt lat="49.50733" lon="-1.54696">
        <ele>44.5</ele>
        <time>2022-02-03T16:28:28Z</time>
      </trkpt>
      <trkpt lat="49.50736" lon="-1.5469">
        <ele>43.8</ele>
        <time>2022-02-03T16:28:32Z</time>
      </trkpt>
      <trkpt lat="49.5074" lon="-1.54684">
        <ele>42.7</ele>
        <time>2022-02-03T16:28:36Z</time>
      </trkpt>
      <trkpt lat="49.50744" lon="-1.54678">
        <ele>42</ele>
        <time>2022-02-03T16:28:41Z</time>
      </trkpt>
      <trkpt lat="49.50748" lon="-1.5467">
        <ele>41.6</ele>
        <time>2022-02-03T16:28:46Z</time>
      </trkpt>
      <trkpt lat="49.50751" lon="-1.54666">
        <ele>41</ele>
        <time>2022-02-03T16:28:49Z</time>
      </trkpt>
      <trkpt lat="49.50755" lon="-1.54661">
        <ele>40.5</ele>
        <time>2022-02-03T16:28:52Z</time>
      </trkpt>
      <trkpt lat="49.50761" lon="-1.54655">
        <ele>40</ele>
        <time>2022-02-03T16:28:57Z</time>
      </trkpt>
      <trkpt lat="49.50765" lon="-1.54651">
        <ele>39.4</ele>
        <time>2022-02-03T16:29:00Z</time>
      </trkpt>
      <trkpt lat="49.50769" lon="-1.54646">
        <ele>38.9</ele>
        <time>2022-02-03T16:29:03Z</time>
      </trkpt>
      <trkpt lat="49.50771" lon="-1.54639">
        <ele>38.6</ele>
        <time>2022-02-03T16:29:06Z</time>
      </trkpt>
      <trkpt lat="49.50775" lon="-1.5463">
        <ele>38.3</ele>
        <time>2022-02-03T16:29:11Z</time>
      </trkpt>
      <trkpt lat="49.50777" lon="-1.54624">
        <ele>37.7</ele>
        <time>2022-02-03T16:29:15Z</time>
      </trkpt>
      <trkpt lat="49.5078" lon="-1.54617">
        <ele>37.5</ele>
        <time>2022-02-03T16:29:20Z</time>
      </trkpt>
      <trkpt lat="49.50784" lon="-1.54611">
        <ele>37.6</ele>
        <time>2022-02-03T16:29:24Z</time>
      </trkpt>
      <trkpt lat="49.50788" lon="-1.54605">
        <ele>37.7</ele>
        <time>2022-02-03T16:29:28Z</time>
      </trkpt>
      <trkpt lat="49.50791" lon="-1.546">
        <ele>37.8</ele>
        <time>2022-02-03T16:29:31Z</time>
      </trkpt>
      <trkpt lat="49.50795" lon="-1.54595">
        <ele>37.8</ele>
        <time>2022-02-03T16:29:34Z</time>
      </trkpt>
      <trkpt lat="49.50798" lon="-1.5459">
        <ele>37.9</ele>
        <time>2022-02-03T16:29:38Z</time>
      </trkpt>
      <trkpt lat="49.50802" lon="-1.54586">
        <ele>38.4</ele>
        <time>2022-02-03T16:29:43Z</time>
      </trkpt>
      <trkpt lat="49.50805" lon="-1.54579">
        <ele>39</ele>
        <time>2022-02-03T16:29:49Z</time>
      </trkpt>
      <trkpt lat="49.50808" lon="-1.54573">
        <ele>39.2</ele>
        <time>2022-02-03T16:29:53Z</time>
      </trkpt>
      <trkpt lat="49.5081" lon="-1.54567">
        <ele>39.6</ele>
        <time>2022-02-03T16:29:58Z</time>
      </trkpt>
      <trkpt lat="49.50813" lon="-1.54562">
        <ele>42</ele>
        <time>2022-02-03T16:30:18Z</time>
      </trkpt>
      <trkpt lat="49.50815" lon="-1.54555">
        <ele>42.4</ele>
        <time>2022-02-03T16:30:24Z</time>
      </trkpt>
      <trkpt lat="49.50818" lon="-1.54547">
        <ele>42.7</ele>
        <time>2022-02-03T16:30:28Z</time>
      </trkpt>
      <trkpt lat="49.50829" lon="-1.54525">
        <ele>44.1</ele>
        <time>2022-02-03T16:30:36Z</time>
      </trkpt>
      <trkpt lat="49.50833" lon="-1.54518">
        <ele>44.4</ele>
        <time>2022-02-03T16:30:39Z</time>
      </trkpt>
      <trkpt lat="49.50836" lon="-1.54512">
        <ele>44.6</ele>
        <time>2022-02-03T16:30:42Z</time>
      </trkpt>
      <trkpt lat="49.50841" lon="-1.54506">
        <ele>45.1</ele>
        <time>2022-02-03T16:30:47Z</time>
      </trkpt>
      <trkpt lat="49.50845" lon="-1.54502">
        <ele>45.4</ele>
        <time>2022-02-03T16:30:50Z</time>
      </trkpt>
      <trkpt lat="49.50849" lon="-1.54497">
        <ele>45.5</ele>
        <time>2022-02-03T16:30:54Z</time>
      </trkpt>
      <trkpt lat="49.50853" lon="-1.54493">
        <ele>45.6</ele>
        <time>2022-02-03T16:30:57Z</time>
      </trkpt>
      <trkpt lat="49.50857" lon="-1.54489">
        <ele>45.8</ele>
        <time>2022-02-03T16:31:01Z</time>
      </trkpt>
      <trkpt lat="49.50861" lon="-1.54485">
        <ele>46.1</ele>
        <time>2022-02-03T16:31:04Z</time>
      </trkpt>
      <trkpt lat="49.50865" lon="-1.5448">
        <ele>46.4</ele>
        <time>2022-02-03T16:31:07Z</time>
      </trkpt>
      <trkpt lat="49.50868" lon="-1.54474">
        <ele>46.7</ele>
        <time>2022-02-03T16:31:11Z</time>
      </trkpt>
      <trkpt lat="49.50872" lon="-1.54469">
        <ele>46.9</ele>
        <time>2022-02-03T16:31:15Z</time>
      </trkpt>
      <trkpt lat="49.50876" lon="-1.54464">
        <ele>47.2</ele>
        <time>2022-02-03T16:31:19Z</time>
      </trkpt>
      <trkpt lat="49.50879" lon="-1.54459">
        <ele>47.5</ele>
        <time>2022-02-03T16:31:22Z</time>
      </trkpt>
      <trkpt lat="49.50882" lon="-1.54453">
        <ele>47.7</ele>
        <time>2022-02-03T16:31:25Z</time>
      </trkpt>
      <trkpt lat="49.50884" lon="-1.54446">
        <ele>47.8</ele>
        <time>2022-02-03T16:31:27Z</time>
      </trkpt>
      <trkpt lat="49.50887" lon="-1.54439">
        <ele>47.2</ele>
        <time>2022-02-03T16:31:30Z</time>
      </trkpt>
      <trkpt lat="49.50891" lon="-1.54434">
        <ele>46.8</ele>
        <time>2022-02-03T16:31:34Z</time>
      </trkpt>
      <trkpt lat="49.50895" lon="-1.5443">
        <ele>46.7</ele>
        <time>2022-02-03T16:31:38Z</time>
      </trkpt>
      <trkpt lat="49.50899" lon="-1.54424">
        <ele>47.4</ele>
        <time>2022-02-03T16:31:42Z</time>
      </trkpt>
      <trkpt lat="49.50901" lon="-1.54417">
        <ele>47.7</ele>
        <time>2022-02-03T16:31:47Z</time>
      </trkpt>
      <trkpt lat="49.50903" lon="-1.54411">
        <ele>47.4</ele>
        <time>2022-02-03T16:31:53Z</time>
      </trkpt>
      <trkpt lat="49.50908" lon="-1.54405">
        <ele>46.9</ele>
        <time>2022-02-03T16:31:57Z</time>
      </trkpt>
      <trkpt lat="49.50912" lon="-1.544">
        <ele>46.7</ele>
        <time>2022-02-03T16:32:00Z</time>
      </trkpt>
      <trkpt lat="49.50915" lon="-1.54395">
        <ele>46.8</ele>
        <time>2022-02-03T16:32:03Z</time>
      </trkpt>
      <trkpt lat="49.50921" lon="-1.54387">
        <ele>47.3</ele>
        <time>2022-02-03T16:32:08Z</time>
      </trkpt>
      <trkpt lat="49.50926" lon="-1.54381">
        <ele>47.8</ele>
        <time>2022-02-03T16:32:12Z</time>
      </trkpt>
      <trkpt lat="49.50929" lon="-1.54376">
        <ele>47.9</ele>
        <time>2022-02-03T16:32:16Z</time>
      </trkpt>
      <trkpt lat="49.50932" lon="-1.5437">
        <ele>47.9</ele>
        <time>2022-02-03T16:32:19Z</time>
      </trkpt>
      <trkpt lat="49.50934" lon="-1.54364">
        <ele>47.9</ele>
        <time>2022-02-03T16:32:23Z</time>
      </trkpt>
      <trkpt lat="49.50937" lon="-1.54358">
        <ele>48.1</ele>
        <time>2022-02-03T16:32:28Z</time>
      </trkpt>
      <trkpt lat="49.50941" lon="-1.54351">
        <ele>48.4</ele>
        <time>2022-02-03T16:32:32Z</time>
      </trkpt>
      <trkpt lat="49.50945" lon="-1.54346">
        <ele>48.3</ele>
        <time>2022-02-03T16:32:35Z</time>
      </trkpt>
      <trkpt lat="49.50948" lon="-1.5434">
        <ele>48.2</ele>
        <time>2022-02-03T16:32:39Z</time>
      </trkpt>
      <trkpt lat="49.50952" lon="-1.54335">
        <ele>48.2</ele>
        <time>2022-02-03T16:32:42Z</time>
      </trkpt>
      <trkpt lat="49.50955" lon="-1.5433">
        <ele>48.3</ele>
        <time>2022-02-03T16:32:47Z</time>
      </trkpt>
      <trkpt lat="49.50959" lon="-1.54324">
        <ele>48.4</ele>
        <time>2022-02-03T16:32:50Z</time>
      </trkpt>
      <trkpt lat="49.50964" lon="-1.54316">
        <ele>48.7</ele>
        <time>2022-02-03T16:32:55Z</time>
      </trkpt>
      <trkpt lat="49.50967" lon="-1.54312">
        <ele>48.9</ele>
        <time>2022-02-03T16:33:00Z</time>
      </trkpt>
      <trkpt lat="49.5097" lon="-1.54307">
        <ele>49</ele>
        <time>2022-02-03T16:33:05Z</time>
      </trkpt>
      <trkpt lat="49.50974" lon="-1.54302">
        <ele>49</ele>
        <time>2022-02-03T16:33:15Z</time>
      </trkpt>
      <trkpt lat="49.50978" lon="-1.54305">
        <ele>49.8</ele>
        <time>2022-02-03T16:33:28Z</time>
      </trkpt>
      <trkpt lat="49.50982" lon="-1.54309">
        <ele>49.6</ele>
        <time>2022-02-03T16:33:34Z</time>
      </trkpt>
      <trkpt lat="49.50987" lon="-1.54313">
        <ele>49.4</ele>
        <time>2022-02-03T16:33:37Z</time>
      </trkpt>
      <trkpt lat="49.50992" lon="-1.54318">
        <ele>48.9</ele>
        <time>2022-02-03T16:33:41Z</time>
      </trkpt>
      <trkpt lat="49.50998" lon="-1.54325">
        <ele>48.5</ele>
        <time>2022-02-03T16:33:46Z</time>
      </trkpt>
      <trkpt lat="49.51003" lon="-1.54328">
        <ele>48.4</ele>
        <time>2022-02-03T16:33:49Z</time>
      </trkpt>
      <trkpt lat="49.51007" lon="-1.54331">
        <ele>48.3</ele>
        <time>2022-02-03T16:33:51Z</time>
      </trkpt>
      <trkpt lat="49.51012" lon="-1.54335">
        <ele>47.7</ele>
        <time>2022-02-03T16:33:55Z</time>
      </trkpt>
      <trkpt lat="49.51019" lon="-1.54338">
        <ele>47.1</ele>
        <time>2022-02-03T16:33:58Z</time>
      </trkpt>
      <trkpt lat="49.51025" lon="-1.54339">
        <ele>46.6</ele>
        <time>2022-02-03T16:34:01Z</time>
      </trkpt>
      <trkpt lat="49.51036" lon="-1.54337">
        <ele>46.4</ele>
        <time>2022-02-03T16:34:06Z</time>
      </trkpt>
      <trkpt lat="49.51042" lon="-1.54335">
        <ele>46</ele>
        <time>2022-02-03T16:34:10Z</time>
      </trkpt>
      <trkpt lat="49.51047" lon="-1.54338">
        <ele>45.3</ele>
        <time>2022-02-03T16:34:15Z</time>
      </trkpt>
      <trkpt lat="49.51052" lon="-1.5434">
        <ele>45.1</ele>
        <time>2022-02-03T16:34:27Z</time>
      </trkpt>
      <trkpt lat="49.51057" lon="-1.54337">
        <ele>44.7</ele>
        <time>2022-02-03T16:34:30Z</time>
      </trkpt>
      <trkpt lat="49.51061" lon="-1.54334">
        <ele>44.5</ele>
        <time>2022-02-03T16:34:37Z</time>
      </trkpt>
      <trkpt lat="49.51066" lon="-1.54327">
        <ele>44.3</ele>
        <time>2022-02-03T16:34:44Z</time>
      </trkpt>
      <trkpt lat="49.51069" lon="-1.54322">
        <ele>44</ele>
        <time>2022-02-03T16:34:47Z</time>
      </trkpt>
      <trkpt lat="49.51072" lon="-1.54317">
        <ele>43.9</ele>
        <time>2022-02-03T16:34:49Z</time>
      </trkpt>
      <trkpt lat="49.51076" lon="-1.54312">
        <ele>43.6</ele>
        <time>2022-02-03T16:34:54Z</time>
      </trkpt>
      <trkpt lat="49.51081" lon="-1.54307">
        <ele>43.4</ele>
        <time>2022-02-03T16:34:57Z</time>
      </trkpt>
      <trkpt lat="49.51086" lon="-1.54302">
        <ele>43.2</ele>
        <time>2022-02-03T16:35:01Z</time>
      </trkpt>
      <trkpt lat="49.5109" lon="-1.54296">
        <ele>42.9</ele>
        <time>2022-02-03T16:35:05Z</time>
      </trkpt>
      <trkpt lat="49.51094" lon="-1.54291">
        <ele>42.6</ele>
        <time>2022-02-03T16:35:08Z</time>
      </trkpt>
      <trkpt lat="49.51098" lon="-1.54287">
        <ele>42.2</ele>
        <time>2022-02-03T16:35:11Z</time>
      </trkpt>
      <trkpt lat="49.51103" lon="-1.54282">
        <ele>42.1</ele>
        <time>2022-02-03T16:35:16Z</time>
      </trkpt>
      <trkpt lat="49.51106" lon="-1.54277">
        <ele>42</ele>
        <time>2022-02-03T16:35:19Z</time>
      </trkpt>
      <trkpt lat="49.5111" lon="-1.54272">
        <ele>41.8</ele>
        <time>2022-02-03T16:35:22Z</time>
      </trkpt>
      <trkpt lat="49.51115" lon="-1.54265">
        <ele>41.3</ele>
        <time>2022-02-03T16:35:26Z</time>
      </trkpt>
      <trkpt lat="49.5112" lon="-1.5426">
        <ele>40.9</ele>
        <time>2022-02-03T16:35:30Z</time>
      </trkpt>
      <trkpt lat="49.51124" lon="-1.54254">
        <ele>40.6</ele>
        <time>2022-02-03T16:35:34Z</time>
      </trkpt>
      <trkpt lat="49.51128" lon="-1.54249">
        <ele>40.4</ele>
        <time>2022-02-03T16:35:39Z</time>
      </trkpt>
      <trkpt lat="49.51133" lon="-1.54246">
        <ele>40.1</ele>
        <time>2022-02-03T16:35:43Z</time>
      </trkpt>
      <trkpt lat="49.51137" lon="-1.54241">
        <ele>39.8</ele>
        <time>2022-02-03T16:35:47Z</time>
      </trkpt>
      <trkpt lat="49.51141" lon="-1.54237">
        <ele>39.4</ele>
        <time>2022-02-03T16:35:51Z</time>
      </trkpt>
      <trkpt lat="49.51144" lon="-1.54232">
        <ele>38.9</ele>
        <time>2022-02-03T16:35:57Z</time>
      </trkpt>
      <trkpt lat="49.51148" lon="-1.54226">
        <ele>38.4</ele>
        <time>2022-02-03T16:36:01Z</time>
      </trkpt>
      <trkpt lat="49.51152" lon="-1.5422">
        <ele>37.8</ele>
        <time>2022-02-03T16:36:06Z</time>
      </trkpt>
      <trkpt lat="49.51156" lon="-1.54213">
        <ele>37.1</ele>
        <time>2022-02-03T16:36:10Z</time>
      </trkpt>
      <trkpt lat="49.5116" lon="-1.54206">
        <ele>36.7</ele>
        <time>2022-02-03T16:36:14Z</time>
      </trkpt>
      <trkpt lat="49.51162" lon="-1.54199">
        <ele>36.1</ele>
        <time>2022-02-03T16:36:21Z</time>
      </trkpt>
      <trkpt lat="49.51165" lon="-1.54194">
        <ele>35.7</ele>
        <time>2022-02-03T16:36:26Z</time>
      </trkpt>
      <trkpt lat="49.5117" lon="-1.54191">
        <ele>35.4</ele>
        <time>2022-02-03T16:36:29Z</time>
      </trkpt>
      <trkpt lat="49.51174" lon="-1.54191">
        <ele>34.2</ele>
        <time>2022-02-03T16:36:35Z</time>
      </trkpt>
      <trkpt lat="49.51178" lon="-1.54194">
        <ele>33.3</ele>
        <time>2022-02-03T16:36:46Z</time>
      </trkpt>
      <trkpt lat="49.51183" lon="-1.54198">
        <ele>33.6</ele>
        <time>2022-02-03T16:36:50Z</time>
      </trkpt>
      <trkpt lat="49.51188" lon="-1.54203">
        <ele>33.4</ele>
        <time>2022-02-03T16:36:54Z</time>
      </trkpt>
      <trkpt lat="49.51193" lon="-1.54206">
        <ele>33.2</ele>
        <time>2022-02-03T16:36:58Z</time>
      </trkpt>
      <trkpt lat="49.51197" lon="-1.5421">
        <ele>32.7</ele>
        <time>2022-02-03T16:37:10Z</time>
      </trkpt>
      <trkpt lat="49.51201" lon="-1.54215">
        <ele>32.6</ele>
        <time>2022-02-03T16:37:14Z</time>
      </trkpt>
      <trkpt lat="49.51205" lon="-1.54219">
        <ele>32.5</ele>
        <time>2022-02-03T16:37:17Z</time>
      </trkpt>
      <trkpt lat="49.5121" lon="-1.54222">
        <ele>32.5</ele>
        <time>2022-02-03T16:37:20Z</time>
      </trkpt>
      <trkpt lat="49.51214" lon="-1.54227">
        <ele>32.5</ele>
        <time>2022-02-03T16:37:23Z</time>
      </trkpt>
      <trkpt lat="49.5122" lon="-1.5423">
        <ele>32.6</ele>
        <time>2022-02-03T16:37:27Z</time>
      </trkpt>
      <trkpt lat="49.51235" lon="-1.54235">
        <ele>32.4</ele>
        <time>2022-02-03T16:37:36Z</time>
      </trkpt>
      <trkpt lat="49.5124" lon="-1.54238">
        <ele>32.6</ele>
        <time>2022-02-03T16:37:50Z</time>
      </trkpt>
      <trkpt lat="49.51245" lon="-1.5424">
        <ele>34.9</ele>
        <time>2022-02-03T16:38:07Z</time>
      </trkpt>
      <trkpt lat="49.51249" lon="-1.54243">
        <ele>34.5</ele>
        <time>2022-02-03T16:38:11Z</time>
      </trkpt>
      <trkpt lat="49.51254" lon="-1.54246">
        <ele>34.2</ele>
        <time>2022-02-03T16:38:15Z</time>
      </trkpt>
      <trkpt lat="49.51259" lon="-1.54249">
        <ele>33.8</ele>
        <time>2022-02-03T16:38:19Z</time>
      </trkpt>
      <trkpt lat="49.51263" lon="-1.54253">
        <ele>33.1</ele>
        <time>2022-02-03T16:38:24Z</time>
      </trkpt>
      <trkpt lat="49.51267" lon="-1.54258">
        <ele>32.7</ele>
        <time>2022-02-03T16:38:29Z</time>
      </trkpt>
      <trkpt lat="49.51272" lon="-1.5426">
        <ele>32.6</ele>
        <time>2022-02-03T16:38:33Z</time>
      </trkpt>
      <trkpt lat="49.51277" lon="-1.54263">
        <ele>32.6</ele>
        <time>2022-02-03T16:38:39Z</time>
      </trkpt>
      <trkpt lat="49.51281" lon="-1.54267">
        <ele>33.4</ele>
        <time>2022-02-03T16:38:53Z</time>
      </trkpt>
      <trkpt lat="49.51287" lon="-1.54269">
        <ele>33.3</ele>
        <time>2022-02-03T16:38:57Z</time>
      </trkpt>
      <trkpt lat="49.51292" lon="-1.54273">
        <ele>33.3</ele>
        <time>2022-02-03T16:39:01Z</time>
      </trkpt>
      <trkpt lat="49.51296" lon="-1.54277">
        <ele>33.3</ele>
        <time>2022-02-03T16:39:05Z</time>
      </trkpt>
      <trkpt lat="49.513" lon="-1.54282">
        <ele>33.5</ele>
        <time>2022-02-03T16:39:19Z</time>
      </trkpt>
      <trkpt lat="49.51304" lon="-1.54285">
        <ele>33.4</ele>
        <time>2022-02-03T16:39:26Z</time>
      </trkpt>
      <trkpt lat="49.51308" lon="-1.54291">
        <ele>34.1</ele>
        <time>2022-02-03T16:39:31Z</time>
      </trkpt>
      <trkpt lat="49.51313" lon="-1.54296">
        <ele>34.7</ele>
        <time>2022-02-03T16:39:35Z</time>
      </trkpt>
      <trkpt lat="49.51318" lon="-1.543">
        <ele>34.8</ele>
        <time>2022-02-03T16:39:38Z</time>
      </trkpt>
      <trkpt lat="49.51322" lon="-1.54304">
        <ele>34.8</ele>
        <time>2022-02-03T16:39:41Z</time>
      </trkpt>
      <trkpt lat="49.51328" lon="-1.54309">
        <ele>34.7</ele>
        <time>2022-02-03T16:39:46Z</time>
      </trkpt>
      <trkpt lat="49.51333" lon="-1.54311">
        <ele>34.8</ele>
        <time>2022-02-03T16:39:50Z</time>
      </trkpt>
      <trkpt lat="49.51337" lon="-1.54314">
        <ele>34.9</ele>
        <time>2022-02-03T16:39:53Z</time>
      </trkpt>
      <trkpt lat="49.51348" lon="-1.54319">
        <ele>35.2</ele>
        <time>2022-02-03T16:39:59Z</time>
      </trkpt>
      <trkpt lat="49.51352" lon="-1.54322">
        <ele>35.6</ele>
        <time>2022-02-03T16:40:06Z</time>
      </trkpt>
      <trkpt lat="49.51356" lon="-1.54327">
        <ele>36</ele>
        <time>2022-02-03T16:40:12Z</time>
      </trkpt>
      <trkpt lat="49.5136" lon="-1.54333">
        <ele>36.3</ele>
        <time>2022-02-03T16:40:16Z</time>
      </trkpt>
      <trkpt lat="49.51363" lon="-1.5434">
        <ele>36.5</ele>
        <time>2022-02-03T16:40:20Z</time>
      </trkpt>
      <trkpt lat="49.51367" lon="-1.54347">
        <ele>36.7</ele>
        <time>2022-02-03T16:40:23Z</time>
      </trkpt>
      <trkpt lat="49.5137" lon="-1.54353">
        <ele>37</ele>
        <time>2022-02-03T16:40:27Z</time>
      </trkpt>
      <trkpt lat="49.51374" lon="-1.54357">
        <ele>37.1</ele>
        <time>2022-02-03T16:40:31Z</time>
      </trkpt>
      <trkpt lat="49.51381" lon="-1.5436">
        <ele>37.4</ele>
        <time>2022-02-03T16:40:36Z</time>
      </trkpt>
      <trkpt lat="49.51384" lon="-1.54364">
        <ele>38.1</ele>
        <time>2022-02-03T16:40:44Z</time>
      </trkpt>
      <trkpt lat="49.51389" lon="-1.54368">
        <ele>38.3</ele>
        <time>2022-02-03T16:40:48Z</time>
      </trkpt>
      <trkpt lat="49.51393" lon="-1.54371">
        <ele>38.3</ele>
        <time>2022-02-03T16:40:50Z</time>
      </trkpt>
      <trkpt lat="49.51398" lon="-1.54375">
        <ele>38.4</ele>
        <time>2022-02-03T16:40:55Z</time>
      </trkpt>
      <trkpt lat="49.51403" lon="-1.54379">
        <ele>38.6</ele>
        <time>2022-02-03T16:41:03Z</time>
      </trkpt>
      <trkpt lat="49.51408" lon="-1.54382">
        <ele>38.7</ele>
        <time>2022-02-03T16:41:08Z</time>
      </trkpt>
      <trkpt lat="49.51412" lon="-1.54387">
        <ele>38.9</ele>
        <time>2022-02-03T16:41:12Z</time>
      </trkpt>
      <trkpt lat="49.51418" lon="-1.54393">
        <ele>38.9</ele>
        <time>2022-02-03T16:41:15Z</time>
      </trkpt>
      <trkpt lat="49.51423" lon="-1.54397">
        <ele>38.8</ele>
        <time>2022-02-03T16:41:18Z</time>
      </trkpt>
      <trkpt lat="49.51441" lon="-1.5441">
        <ele>38.9</ele>
        <time>2022-02-03T16:41:28Z</time>
      </trkpt>
      <trkpt lat="49.51445" lon="-1.54414">
        <ele>39.2</ele>
        <time>2022-02-03T16:41:32Z</time>
      </trkpt>
      <trkpt lat="49.5145" lon="-1.54418">
        <ele>39.5</ele>
        <time>2022-02-03T16:41:37Z</time>
      </trkpt>
      <trkpt lat="49.51453" lon="-1.54423">
        <ele>39.6</ele>
        <time>2022-02-03T16:41:40Z</time>
      </trkpt>
      <trkpt lat="49.51458" lon="-1.54428">
        <ele>39.7</ele>
        <time>2022-02-03T16:41:44Z</time>
      </trkpt>
      <trkpt lat="49.51462" lon="-1.54433">
        <ele>39.6</ele>
        <time>2022-02-03T16:41:47Z</time>
      </trkpt>
      <trkpt lat="49.51466" lon="-1.54437">
        <ele>39.7</ele>
        <time>2022-02-03T16:41:51Z</time>
      </trkpt>
      <trkpt lat="49.51471" lon="-1.54441">
        <ele>39.7</ele>
        <time>2022-02-03T16:41:55Z</time>
      </trkpt>
      <trkpt lat="49.51475" lon="-1.54445">
        <ele>39.9</ele>
        <time>2022-02-03T16:42:03Z</time>
      </trkpt>
      <trkpt lat="49.51479" lon="-1.54451">
        <ele>39.9</ele>
        <time>2022-02-03T16:42:13Z</time>
      </trkpt>
      <trkpt lat="49.51483" lon="-1.54457">
        <ele>40</ele>
        <time>2022-02-03T16:42:18Z</time>
      </trkpt>
      <trkpt lat="49.51487" lon="-1.54462">
        <ele>40</ele>
        <time>2022-02-03T16:42:22Z</time>
      </trkpt>
      <trkpt lat="49.51491" lon="-1.54465">
        <ele>40.1</ele>
        <time>2022-02-03T16:42:26Z</time>
      </trkpt>
      <trkpt lat="49.51496" lon="-1.5447">
        <ele>40.1</ele>
        <time>2022-02-03T16:42:30Z</time>
      </trkpt>
      <trkpt lat="49.51499" lon="-1.54473">
        <ele>40.1</ele>
        <time>2022-02-03T16:42:33Z</time>
      </trkpt>
      <trkpt lat="49.51503" lon="-1.54478">
        <ele>40</ele>
        <time>2022-02-03T16:42:36Z</time>
      </trkpt>
      <trkpt lat="49.51508" lon="-1.54483">
        <ele>39.9</ele>
        <time>2022-02-03T16:42:39Z</time>
      </trkpt>
      <trkpt lat="49.51513" lon="-1.54486">
        <ele>40</ele>
        <time>2022-02-03T16:42:43Z</time>
      </trkpt>
      <trkpt lat="49.51517" lon="-1.5449">
        <ele>40.1</ele>
        <time>2022-02-03T16:42:47Z</time>
      </trkpt>
      <trkpt lat="49.51522" lon="-1.54493">
        <ele>40.3</ele>
        <time>2022-02-03T16:42:50Z</time>
      </trkpt>
      <trkpt lat="49.51527" lon="-1.54496">
        <ele>40.2</ele>
        <time>2022-02-03T16:42:53Z</time>
      </trkpt>
      <trkpt lat="49.51531" lon="-1.54499">
        <ele>40.1</ele>
        <time>2022-02-03T16:42:56Z</time>
      </trkpt>
      <trkpt lat="49.51537" lon="-1.54502">
        <ele>39.8</ele>
        <time>2022-02-03T16:43:00Z</time>
      </trkpt>
      <trkpt lat="49.51541" lon="-1.54505">
        <ele>39.7</ele>
        <time>2022-02-03T16:43:03Z</time>
      </trkpt>
      <trkpt lat="49.51545" lon="-1.54509">
        <ele>40</ele>
        <time>2022-02-03T16:43:08Z</time>
      </trkpt>
      <trkpt lat="49.5155" lon="-1.54512">
        <ele>40.4</ele>
        <time>2022-02-03T16:43:12Z</time>
      </trkpt>
      <trkpt lat="49.51566" lon="-1.54519">
        <ele>40.4</ele>
        <time>2022-02-03T16:43:22Z</time>
      </trkpt>
      <trkpt lat="49.51571" lon="-1.54522">
        <ele>40.4</ele>
        <time>2022-02-03T16:43:25Z</time>
      </trkpt>
      <trkpt lat="49.51576" lon="-1.54525">
        <ele>40.4</ele>
        <time>2022-02-03T16:43:29Z</time>
      </trkpt>
      <trkpt lat="49.51581" lon="-1.54525">
        <ele>40.5</ele>
        <time>2022-02-03T16:43:34Z</time>
      </trkpt>
      <trkpt lat="49.51586" lon="-1.54522">
        <ele>40.7</ele>
        <time>2022-02-03T16:43:37Z</time>
      </trkpt>
      <trkpt lat="49.51591" lon="-1.54517">
        <ele>40.8</ele>
        <time>2022-02-03T16:43:41Z</time>
      </trkpt>
      <trkpt lat="49.51602" lon="-1.54504">
        <ele>40.3</ele>
        <time>2022-02-03T16:43:48Z</time>
      </trkpt>
      <trkpt lat="49.51608" lon="-1.54486">
        <ele>39.5</ele>
        <time>2022-02-03T16:43:54Z</time>
      </trkpt>
      <trkpt lat="49.5161" lon="-1.54478">
        <ele>39.2</ele>
        <time>2022-02-03T16:43:59Z</time>
      </trkpt>
      <trkpt lat="49.51612" lon="-1.54469">
        <ele>39.1</ele>
        <time>2022-02-03T16:44:04Z</time>
      </trkpt>
      <trkpt lat="49.51614" lon="-1.54463">
        <ele>39.1</ele>
        <time>2022-02-03T16:44:09Z</time>
      </trkpt>
      <trkpt lat="49.51616" lon="-1.54454">
        <ele>39.3</ele>
        <time>2022-02-03T16:44:14Z</time>
      </trkpt>
      <trkpt lat="49.51619" lon="-1.54446">
        <ele>39.6</ele>
        <time>2022-02-03T16:44:18Z</time>
      </trkpt>
      <trkpt lat="49.51627" lon="-1.54399">
        <ele>40.2</ele>
        <time>2022-02-03T16:44:38Z</time>
      </trkpt>
      <trkpt lat="49.5163" lon="-1.54391">
        <ele>40.8</ele>
        <time>2022-02-03T16:44:42Z</time>
      </trkpt>
      <trkpt lat="49.51633" lon="-1.54384">
        <ele>41.3</ele>
        <time>2022-02-03T16:44:47Z</time>
      </trkpt>
      <trkpt lat="49.51636" lon="-1.54377">
        <ele>41.9</ele>
        <time>2022-02-03T16:44:52Z</time>
      </trkpt>
      <trkpt lat="49.51639" lon="-1.54371">
        <ele>42.7</ele>
        <time>2022-02-03T16:44:56Z</time>
      </trkpt>
      <trkpt lat="49.51642" lon="-1.54363">
        <ele>43.3</ele>
        <time>2022-02-03T16:45:01Z</time>
      </trkpt>
      <trkpt lat="49.51646" lon="-1.54359">
        <ele>43.4</ele>
        <time>2022-02-03T16:45:05Z</time>
      </trkpt>
      <trkpt lat="49.5165" lon="-1.54352">
        <ele>43.8</ele>
        <time>2022-02-03T16:45:10Z</time>
      </trkpt>
      <trkpt lat="49.51652" lon="-1.54346">
        <ele>44.8</ele>
        <time>2022-02-03T16:45:16Z</time>
      </trkpt>
      <trkpt lat="49.51656" lon="-1.5434">
        <ele>45.6</ele>
        <time>2022-02-03T16:45:20Z</time>
      </trkpt>
      <trkpt lat="49.51659" lon="-1.54334">
        <ele>45.9</ele>
        <time>2022-02-03T16:45:24Z</time>
      </trkpt>
      <trkpt lat="49.51662" lon="-1.54327">
        <ele>46.2</ele>
        <time>2022-02-03T16:45:28Z</time>
      </trkpt>
      <trkpt lat="49.51666" lon="-1.5432">
        <ele>46.6</ele>
        <time>2022-02-03T16:45:32Z</time>
      </trkpt>
      <trkpt lat="49.51668" lon="-1.54313">
        <ele>47.1</ele>
        <time>2022-02-03T16:45:36Z</time>
      </trkpt>
      <trkpt lat="49.51671" lon="-1.54306">
        <ele>47.6</ele>
        <time>2022-02-03T16:45:40Z</time>
      </trkpt>
      <trkpt lat="49.51673" lon="-1.54298">
        <ele>48.2</ele>
        <time>2022-02-03T16:45:45Z</time>
      </trkpt>
      <trkpt lat="49.51676" lon="-1.54292">
        <ele>48.6</ele>
        <time>2022-02-03T16:45:49Z</time>
      </trkpt>
      <trkpt lat="49.5168" lon="-1.54286">
        <ele>49</ele>
        <time>2022-02-03T16:45:53Z</time>
      </trkpt>
      <trkpt lat="49.51684" lon="-1.54279">
        <ele>49.2</ele>
        <time>2022-02-03T16:45:57Z</time>
      </trkpt>
      <trkpt lat="49.51689" lon="-1.54273">
        <ele>49.4</ele>
        <time>2022-02-03T16:46:02Z</time>
      </trkpt>
      <trkpt lat="49.51693" lon="-1.54267">
        <ele>49.6</ele>
        <time>2022-02-03T16:46:06Z</time>
      </trkpt>
      <trkpt lat="49.51696" lon="-1.54261">
        <ele>49.7</ele>
        <time>2022-02-03T16:46:11Z</time>
      </trkpt>
      <trkpt lat="49.517" lon="-1.54255">
        <ele>49.8</ele>
        <time>2022-02-03T16:46:15Z</time>
      </trkpt>
      <trkpt lat="49.51703" lon="-1.5425">
        <ele>49.9</ele>
        <time>2022-02-03T16:46:18Z</time>
      </trkpt>
      <trkpt lat="49.51707" lon="-1.54245">
        <ele>50.1</ele>
        <time>2022-02-03T16:46:22Z</time>
      </trkpt>
      <trkpt lat="49.51711" lon="-1.54239">
        <ele>50.4</ele>
        <time>2022-02-03T16:46:26Z</time>
      </trkpt>
      <trkpt lat="49.51714" lon="-1.54232">
        <ele>50.6</ele>
        <time>2022-02-03T16:46:30Z</time>
      </trkpt>
      <trkpt lat="49.51717" lon="-1.54227">
        <ele>50.8</ele>
        <time>2022-02-03T16:46:33Z</time>
      </trkpt>
      <trkpt lat="49.51721" lon="-1.5422">
        <ele>51.2</ele>
        <time>2022-02-03T16:46:37Z</time>
      </trkpt>
      <trkpt lat="49.51724" lon="-1.54213">
        <ele>51.3</ele>
        <time>2022-02-03T16:46:41Z</time>
      </trkpt>
      <trkpt lat="49.51727" lon="-1.54207">
        <ele>51.5</ele>
        <time>2022-02-03T16:46:44Z</time>
      </trkpt>
      <trkpt lat="49.51731" lon="-1.542">
        <ele>52</ele>
        <time>2022-02-03T16:46:49Z</time>
      </trkpt>
      <trkpt lat="49.51734" lon="-1.54193">
        <ele>52.3</ele>
        <time>2022-02-03T16:46:53Z</time>
      </trkpt>
      <trkpt lat="49.51737" lon="-1.54185">
        <ele>52.7</ele>
        <time>2022-02-03T16:46:58Z</time>
      </trkpt>
      <trkpt lat="49.5174" lon="-1.54179">
        <ele>53.1</ele>
        <time>2022-02-03T16:47:02Z</time>
      </trkpt>
      <trkpt lat="49.51744" lon="-1.54174">
        <ele>53.2</ele>
        <time>2022-02-03T16:47:06Z</time>
      </trkpt>
      <trkpt lat="49.51748" lon="-1.54169">
        <ele>53.2</ele>
        <time>2022-02-03T16:47:08Z</time>
      </trkpt>
      <trkpt lat="49.51753" lon="-1.54164">
        <ele>53.6</ele>
        <time>2022-02-03T16:47:13Z</time>
      </trkpt>
      <trkpt lat="49.51758" lon="-1.54158">
        <ele>54</ele>
        <time>2022-02-03T16:47:17Z</time>
      </trkpt>
      <trkpt lat="49.51761" lon="-1.54153">
        <ele>54.1</ele>
        <time>2022-02-03T16:47:21Z</time>
      </trkpt>
      <trkpt lat="49.51765" lon="-1.54146">
        <ele>54.3</ele>
        <time>2022-02-03T16:47:26Z</time>
      </trkpt>
      <trkpt lat="49.51769" lon="-1.54141">
        <ele>54.4</ele>
        <time>2022-02-03T16:47:30Z</time>
      </trkpt>
      <trkpt lat="49.51773" lon="-1.54134">
        <ele>54.7</ele>
        <time>2022-02-03T16:47:34Z</time>
      </trkpt>
      <trkpt lat="49.51777" lon="-1.54126">
        <ele>55.2</ele>
        <time>2022-02-03T16:47:38Z</time>
      </trkpt>
      <trkpt lat="49.5178" lon="-1.5412">
        <ele>55.4</ele>
        <time>2022-02-03T16:47:42Z</time>
      </trkpt>
      <trkpt lat="49.51783" lon="-1.54113">
        <ele>55.5</ele>
        <time>2022-02-03T16:47:46Z</time>
      </trkpt>
      <trkpt lat="49.51787" lon="-1.54107">
        <ele>55.7</ele>
        <time>2022-02-03T16:47:51Z</time>
      </trkpt>
      <trkpt lat="49.5179" lon="-1.54101">
        <ele>56.1</ele>
        <time>2022-02-03T16:47:54Z</time>
      </trkpt>
      <trkpt lat="49.51793" lon="-1.54094">
        <ele>56.4</ele>
        <time>2022-02-03T16:47:58Z</time>
      </trkpt>
      <trkpt lat="49.51795" lon="-1.54088">
        <ele>56.5</ele>
        <time>2022-02-03T16:48:02Z</time>
      </trkpt>
      <trkpt lat="49.51798" lon="-1.54081">
        <ele>56.5</ele>
        <time>2022-02-03T16:48:07Z</time>
      </trkpt>
      <trkpt lat="49.51799" lon="-1.54074">
        <ele>56.7</ele>
        <time>2022-02-03T16:48:11Z</time>
      </trkpt>
      <trkpt lat="49.51801" lon="-1.54067">
        <ele>57</ele>
        <time>2022-02-03T16:48:15Z</time>
      </trkpt>
      <trkpt lat="49.51803" lon="-1.54057">
        <ele>57.3</ele>
        <time>2022-02-03T16:48:20Z</time>
      </trkpt>
      <trkpt lat="49.51807" lon="-1.54046">
        <ele>57.6</ele>
        <time>2022-02-03T16:48:25Z</time>
      </trkpt>
      <trkpt lat="49.5181" lon="-1.54039">
        <ele>58.1</ele>
        <time>2022-02-03T16:48:29Z</time>
      </trkpt>
      <trkpt lat="49.51813" lon="-1.54033">
        <ele>58.4</ele>
        <time>2022-02-03T16:48:32Z</time>
      </trkpt>
      <trkpt lat="49.51816" lon="-1.54028">
        <ele>58.7</ele>
        <time>2022-02-03T16:48:36Z</time>
      </trkpt>
      <trkpt lat="49.51818" lon="-1.54021">
        <ele>58.7</ele>
        <time>2022-02-03T16:48:41Z</time>
      </trkpt>
      <trkpt lat="49.51821" lon="-1.54013">
        <ele>58.8</ele>
        <time>2022-02-03T16:48:46Z</time>
      </trkpt>
      <trkpt lat="49.51824" lon="-1.54004">
        <ele>59.1</ele>
        <time>2022-02-03T16:48:50Z</time>
      </trkpt>
      <trkpt lat="49.51826" lon="-1.53997">
        <ele>59.4</ele>
        <time>2022-02-03T16:48:55Z</time>
      </trkpt>
      <trkpt lat="49.51828" lon="-1.5399">
        <ele>59.8</ele>
        <time>2022-02-03T16:48:59Z</time>
      </trkpt>
      <trkpt lat="49.51832" lon="-1.53983">
        <ele>60.1</ele>
        <time>2022-02-03T16:49:05Z</time>
      </trkpt>
      <trkpt lat="49.51835" lon="-1.53976">
        <ele>60.2</ele>
        <time>2022-02-03T16:49:09Z</time>
      </trkpt>
      <trkpt lat="49.51838" lon="-1.53968">
        <ele>60.3</ele>
        <time>2022-02-03T16:49:13Z</time>
      </trkpt>
      <trkpt lat="49.5184" lon="-1.5396">
        <ele>60.4</ele>
        <time>2022-02-03T16:49:17Z</time>
      </trkpt>
      <trkpt lat="49.51842" lon="-1.53952">
        <ele>60.7</ele>
        <time>2022-02-03T16:49:21Z</time>
      </trkpt>
      <trkpt lat="49.51846" lon="-1.53945">
        <ele>60.9</ele>
        <time>2022-02-03T16:49:26Z</time>
      </trkpt>
      <trkpt lat="49.51849" lon="-1.53937">
        <ele>61</ele>
        <time>2022-02-03T16:49:31Z</time>
      </trkpt>
      <trkpt lat="49.51852" lon="-1.53931">
        <ele>61.3</ele>
        <time>2022-02-03T16:49:35Z</time>
      </trkpt>
      <trkpt lat="49.51854" lon="-1.53924">
        <ele>61.6</ele>
        <time>2022-02-03T16:49:39Z</time>
      </trkpt>
      <trkpt lat="49.51857" lon="-1.53917">
        <ele>61.4</ele>
        <time>2022-02-03T16:49:42Z</time>
      </trkpt>
      <trkpt lat="49.51859" lon="-1.53911">
        <ele>61.3</ele>
        <time>2022-02-03T16:49:46Z</time>
      </trkpt>
      <trkpt lat="49.5186" lon="-1.53904">
        <ele>61.2</ele>
        <time>2022-02-03T16:49:49Z</time>
      </trkpt>
      <trkpt lat="49.51861" lon="-1.53895">
        <ele>61.1</ele>
        <time>2022-02-03T16:49:53Z</time>
      </trkpt>
      <trkpt lat="49.51863" lon="-1.53888">
        <ele>61.2</ele>
        <time>2022-02-03T16:49:56Z</time>
      </trkpt>
      <trkpt lat="49.51867" lon="-1.5388">
        <ele>61.6</ele>
        <time>2022-02-03T16:50:01Z</time>
      </trkpt>
      <trkpt lat="49.5187" lon="-1.53874">
        <ele>61.8</ele>
        <time>2022-02-03T16:50:05Z</time>
      </trkpt>
      <trkpt lat="49.51873" lon="-1.53866">
        <ele>61.8</ele>
        <time>2022-02-03T16:50:08Z</time>
      </trkpt>
      <trkpt lat="49.5188" lon="-1.53851">
        <ele>61.8</ele>
        <time>2022-02-03T16:50:17Z</time>
      </trkpt>
      <trkpt lat="49.51882" lon="-1.53841">
        <ele>61.9</ele>
        <time>2022-02-03T16:50:21Z</time>
      </trkpt>
      <trkpt lat="49.51884" lon="-1.53834">
        <ele>61.7</ele>
        <time>2022-02-03T16:50:25Z</time>
      </trkpt>
      <trkpt lat="49.51886" lon="-1.53826">
        <ele>61.7</ele>
        <time>2022-02-03T16:50:29Z</time>
      </trkpt>
      <trkpt lat="49.51889" lon="-1.53819">
        <ele>61.8</ele>
        <time>2022-02-03T16:50:34Z</time>
      </trkpt>
      <trkpt lat="49.5189" lon="-1.53812">
        <ele>62.1</ele>
        <time>2022-02-03T16:50:37Z</time>
      </trkpt>
      <trkpt lat="49.51892" lon="-1.53803">
        <ele>62.2</ele>
        <time>2022-02-03T16:50:41Z</time>
      </trkpt>
      <trkpt lat="49.51895" lon="-1.53795">
        <ele>62</ele>
        <time>2022-02-03T16:50:46Z</time>
      </trkpt>
      <trkpt lat="49.51897" lon="-1.53787">
        <ele>61.7</ele>
        <time>2022-02-03T16:50:50Z</time>
      </trkpt>
      <trkpt lat="49.51899" lon="-1.5378">
        <ele>61.8</ele>
        <time>2022-02-03T16:50:53Z</time>
      </trkpt>
      <trkpt lat="49.51901" lon="-1.53773">
        <ele>62.1</ele>
        <time>2022-02-03T16:50:58Z</time>
      </trkpt>
      <trkpt lat="49.51903" lon="-1.53766">
        <ele>62.1</ele>
        <time>2022-02-03T16:51:01Z</time>
      </trkpt>
      <trkpt lat="49.51906" lon="-1.53757">
        <ele>62</ele>
        <time>2022-02-03T16:51:07Z</time>
      </trkpt>
      <trkpt lat="49.51908" lon="-1.5375">
        <ele>62.2</ele>
        <time>2022-02-03T16:51:11Z</time>
      </trkpt>
      <trkpt lat="49.51911" lon="-1.53743">
        <ele>62.1</ele>
        <time>2022-02-03T16:51:15Z</time>
      </trkpt>
      <trkpt lat="49.51912" lon="-1.53736">
        <ele>61.8</ele>
        <time>2022-02-03T16:51:19Z</time>
      </trkpt>
      <trkpt lat="49.51914" lon="-1.53729">
        <ele>61.6</ele>
        <time>2022-02-03T16:51:23Z</time>
      </trkpt>
      <trkpt lat="49.51915" lon="-1.53721">
        <ele>61.6</ele>
        <time>2022-02-03T16:51:27Z</time>
      </trkpt>
      <trkpt lat="49.51918" lon="-1.53714">
        <ele>61.9</ele>
        <time>2022-02-03T16:51:31Z</time>
      </trkpt>
      <trkpt lat="49.5192" lon="-1.53706">
        <ele>61.8</ele>
        <time>2022-02-03T16:51:35Z</time>
      </trkpt>
      <trkpt lat="49.51923" lon="-1.53699">
        <ele>61.8</ele>
        <time>2022-02-03T16:51:39Z</time>
      </trkpt>
      <trkpt lat="49.51925" lon="-1.53692">
        <ele>61.7</ele>
        <time>2022-02-03T16:51:43Z</time>
      </trkpt>
      <trkpt lat="49.51928" lon="-1.53683">
        <ele>61.7</ele>
        <time>2022-02-03T16:51:47Z</time>
      </trkpt>
      <trkpt lat="49.5193" lon="-1.53676">
        <ele>61.5</ele>
        <time>2022-02-03T16:51:51Z</time>
      </trkpt>
      <trkpt lat="49.51933" lon="-1.53668">
        <ele>62.4</ele>
        <time>2022-02-03T16:51:55Z</time>
      </trkpt>
      <trkpt lat="49.51936" lon="-1.53662">
        <ele>63.2</ele>
        <time>2022-02-03T16:51:58Z</time>
      </trkpt>
      <trkpt lat="49.51939" lon="-1.53656">
        <ele>63.6</ele>
        <time>2022-02-03T16:52:02Z</time>
      </trkpt>
      <trkpt lat="49.51942" lon="-1.53648">
        <ele>63</ele>
        <time>2022-02-03T16:52:06Z</time>
      </trkpt>
      <trkpt lat="49.51943" lon="-1.53641">
        <ele>62.6</ele>
        <time>2022-02-03T16:52:10Z</time>
      </trkpt>
      <trkpt lat="49.51945" lon="-1.53633">
        <ele>62.5</ele>
        <time>2022-02-03T16:52:14Z</time>
      </trkpt>
      <trkpt lat="49.51947" lon="-1.53624">
        <ele>62.4</ele>
        <time>2022-02-03T16:52:19Z</time>
      </trkpt>
      <trkpt lat="49.5195" lon="-1.53615">
        <ele>62.1</ele>
        <time>2022-02-03T16:52:24Z</time>
      </trkpt>
      <trkpt lat="49.51952" lon="-1.53607">
        <ele>62</ele>
        <time>2022-02-03T16:52:29Z</time>
      </trkpt>
      <trkpt lat="49.51954" lon="-1.536">
        <ele>61.8</ele>
        <time>2022-02-03T16:52:34Z</time>
      </trkpt>
      <trkpt lat="49.51956" lon="-1.53592">
        <ele>61.7</ele>
        <time>2022-02-03T16:52:38Z</time>
      </trkpt>
      <trkpt lat="49.51956" lon="-1.53585">
        <ele>61.6</ele>
        <time>2022-02-03T16:52:42Z</time>
      </trkpt>
      <trkpt lat="49.51958" lon="-1.53578">
        <ele>61.6</ele>
        <time>2022-02-03T16:52:45Z</time>
      </trkpt>
      <trkpt lat="49.51959" lon="-1.53571">
        <ele>61.8</ele>
        <time>2022-02-03T16:52:49Z</time>
      </trkpt>
      <trkpt lat="49.51961" lon="-1.53564">
        <ele>61.9</ele>
        <time>2022-02-03T16:52:52Z</time>
      </trkpt>
      <trkpt lat="49.51963" lon="-1.53557">
        <ele>62.1</ele>
        <time>2022-02-03T16:52:56Z</time>
      </trkpt>
      <trkpt lat="49.51967" lon="-1.5355">
        <ele>62.1</ele>
        <time>2022-02-03T16:53:00Z</time>
      </trkpt>
      <trkpt lat="49.5197" lon="-1.53542">
        <ele>62.1</ele>
        <time>2022-02-03T16:53:04Z</time>
      </trkpt>
      <trkpt lat="49.51972" lon="-1.53534">
        <ele>62</ele>
        <time>2022-02-03T16:53:09Z</time>
      </trkpt>
      <trkpt lat="49.51974" lon="-1.53527">
        <ele>62</ele>
        <time>2022-02-03T16:53:13Z</time>
      </trkpt>
      <trkpt lat="49.51976" lon="-1.5352">
        <ele>62.1</ele>
        <time>2022-02-03T16:53:17Z</time>
      </trkpt>
      <trkpt lat="49.51978" lon="-1.53512">
        <ele>62</ele>
        <time>2022-02-03T16:53:21Z</time>
      </trkpt>
      <trkpt lat="49.51981" lon="-1.53504">
        <ele>62</ele>
        <time>2022-02-03T16:53:25Z</time>
      </trkpt>
      <trkpt lat="49.51984" lon="-1.53498">
        <ele>62.2</ele>
        <time>2022-02-03T16:53:29Z</time>
      </trkpt>
      <trkpt lat="49.51987" lon="-1.53491">
        <ele>62.3</ele>
        <time>2022-02-03T16:53:32Z</time>
      </trkpt>
      <trkpt lat="49.5199" lon="-1.53486">
        <ele>62.4</ele>
        <time>2022-02-03T16:53:35Z</time>
      </trkpt>
      <trkpt lat="49.51992" lon="-1.5348">
        <ele>62.3</ele>
        <time>2022-02-03T16:53:39Z</time>
      </trkpt>
      <trkpt lat="49.51994" lon="-1.53472">
        <ele>62.4</ele>
        <time>2022-02-03T16:53:43Z</time>
      </trkpt>
      <trkpt lat="49.51998" lon="-1.53466">
        <ele>62.6</ele>
        <time>2022-02-03T16:53:47Z</time>
      </trkpt>
      <trkpt lat="49.52" lon="-1.53459">
        <ele>62.7</ele>
        <time>2022-02-03T16:53:50Z</time>
      </trkpt>
      <trkpt lat="49.52002" lon="-1.53451">
        <ele>62.9</ele>
        <time>2022-02-03T16:53:54Z</time>
      </trkpt>
      <trkpt lat="49.52005" lon="-1.53445">
        <ele>63</ele>
        <time>2022-02-03T16:53:58Z</time>
      </trkpt>
      <trkpt lat="49.52007" lon="-1.53435">
        <ele>63.2</ele>
        <time>2022-02-03T16:54:03Z</time>
      </trkpt>
      <trkpt lat="49.52009" lon="-1.53428">
        <ele>63.5</ele>
        <time>2022-02-03T16:54:07Z</time>
      </trkpt>
      <trkpt lat="49.52012" lon="-1.53422">
        <ele>63.9</ele>
        <time>2022-02-03T16:54:11Z</time>
      </trkpt>
      <trkpt lat="49.52015" lon="-1.53426">
        <ele>64.3</ele>
        <time>2022-02-03T16:54:25Z</time>
      </trkpt>
      <trkpt lat="49.52018" lon="-1.53432">
        <ele>64.6</ele>
        <time>2022-02-03T16:54:35Z</time>
      </trkpt>
      <trkpt lat="49.52021" lon="-1.53439">
        <ele>65</ele>
        <time>2022-02-03T16:54:42Z</time>
      </trkpt>
      <trkpt lat="49.52024" lon="-1.53445">
        <ele>65.1</ele>
        <time>2022-02-03T16:54:47Z</time>
      </trkpt>
      <trkpt lat="49.52026" lon="-1.53453">
        <ele>65.1</ele>
        <time>2022-02-03T16:54:50Z</time>
      </trkpt>
      <trkpt lat="49.52029" lon="-1.53458">
        <ele>65.1</ele>
        <time>2022-02-03T16:54:53Z</time>
      </trkpt>
      <trkpt lat="49.52032" lon="-1.53465">
        <ele>65.1</ele>
        <time>2022-02-03T16:54:56Z</time>
      </trkpt>
      <trkpt lat="49.52036" lon="-1.53471">
        <ele>65.1</ele>
        <time>2022-02-03T16:54:59Z</time>
      </trkpt>
      <trkpt lat="49.5204" lon="-1.53475">
        <ele>65.1</ele>
        <time>2022-02-03T16:55:02Z</time>
      </trkpt>
      <trkpt lat="49.52044" lon="-1.5348">
        <ele>65.1</ele>
        <time>2022-02-03T16:55:06Z</time>
      </trkpt>
      <trkpt lat="49.52048" lon="-1.53483">
        <ele>65.1</ele>
        <time>2022-02-03T16:55:08Z</time>
      </trkpt>
      <trkpt lat="49.52054" lon="-1.53487">
        <ele>65.2</ele>
        <time>2022-02-03T16:55:12Z</time>
      </trkpt>
      <trkpt lat="49.52079" lon="-1.53506">
        <ele>65.3</ele>
        <time>2022-02-03T16:55:26Z</time>
      </trkpt>
      <trkpt lat="49.52083" lon="-1.53509">
        <ele>65.6</ele>
        <time>2022-02-03T16:55:30Z</time>
      </trkpt>
      <trkpt lat="49.52093" lon="-1.53513">
        <ele>65.8</ele>
        <time>2022-02-03T16:55:36Z</time>
      </trkpt>
      <trkpt lat="49.52097" lon="-1.53518">
        <ele>66.1</ele>
        <time>2022-02-03T16:55:42Z</time>
      </trkpt>
      <trkpt lat="49.52101" lon="-1.53523">
        <ele>66.1</ele>
        <time>2022-02-03T16:55:46Z</time>
      </trkpt>
      <trkpt lat="49.52105" lon="-1.53527">
        <ele>66.2</ele>
        <time>2022-02-03T16:55:50Z</time>
      </trkpt>
      <trkpt lat="49.52115" lon="-1.53534">
        <ele>66</ele>
        <time>2022-02-03T16:55:57Z</time>
      </trkpt>
      <trkpt lat="49.5212" lon="-1.53538">
        <ele>65.9</ele>
        <time>2022-02-03T16:56:01Z</time>
      </trkpt>
      <trkpt lat="49.52125" lon="-1.5354">
        <ele>65.8</ele>
        <time>2022-02-03T16:56:05Z</time>
      </trkpt>
      <trkpt lat="49.5213" lon="-1.53547">
        <ele>65.8</ele>
        <time>2022-02-03T16:56:08Z</time>
      </trkpt>
      <trkpt lat="49.52133" lon="-1.53551">
        <ele>65.7</ele>
        <time>2022-02-03T16:56:11Z</time>
      </trkpt>
      <trkpt lat="49.52137" lon="-1.53558">
        <ele>65.5</ele>
        <time>2022-02-03T16:56:14Z</time>
      </trkpt>
      <trkpt lat="49.52141" lon="-1.53561">
        <ele>65.2</ele>
        <time>2022-02-03T16:56:20Z</time>
      </trkpt>
      <trkpt lat="49.52146" lon="-1.5356">
        <ele>65.1</ele>
        <time>2022-02-03T16:56:35Z</time>
      </trkpt>
      <trkpt lat="49.52152" lon="-1.53559">
        <ele>65</ele>
        <time>2022-02-03T16:56:40Z</time>
      </trkpt>
      <trkpt lat="49.52157" lon="-1.53557">
        <ele>64.9</ele>
        <time>2022-02-03T16:56:47Z</time>
      </trkpt>
      <trkpt lat="49.52161" lon="-1.53554">
        <ele>65.1</ele>
        <time>2022-02-03T16:56:57Z</time>
      </trkpt>
      <trkpt lat="49.52166" lon="-1.5355">
        <ele>65.2</ele>
        <time>2022-02-03T16:57:05Z</time>
      </trkpt>
      <trkpt lat="49.52173" lon="-1.53544">
        <ele>65.2</ele>
        <time>2022-02-03T16:57:10Z</time>
      </trkpt>
      <trkpt lat="49.52178" lon="-1.5354">
        <ele>65.4</ele>
        <time>2022-02-03T16:57:15Z</time>
      </trkpt>
      <trkpt lat="49.5218" lon="-1.53534">
        <ele>65.7</ele>
        <time>2022-02-03T16:57:24Z</time>
      </trkpt>
      <trkpt lat="49.52185" lon="-1.5353">
        <ele>65.7</ele>
        <time>2022-02-03T16:57:35Z</time>
      </trkpt>
      <trkpt lat="49.52189" lon="-1.53528">
        <ele>65.6</ele>
        <time>2022-02-03T16:57:39Z</time>
      </trkpt>
      <trkpt lat="49.52193" lon="-1.53522">
        <ele>65.5</ele>
        <time>2022-02-03T16:57:43Z</time>
      </trkpt>
      <trkpt lat="49.52199" lon="-1.53522">
        <ele>65.6</ele>
        <time>2022-02-03T16:57:47Z</time>
      </trkpt>
      <trkpt lat="49.52203" lon="-1.53523">
        <ele>65.7</ele>
        <time>2022-02-03T16:57:50Z</time>
      </trkpt>
      <trkpt lat="49.52208" lon="-1.53522">
        <ele>66</ele>
        <time>2022-02-03T16:57:56Z</time>
      </trkpt>
      <trkpt lat="49.52213" lon="-1.53524">
        <ele>66.3</ele>
        <time>2022-02-03T16:58:02Z</time>
      </trkpt>
      <trkpt lat="49.52217" lon="-1.53527">
        <ele>66.4</ele>
        <time>2022-02-03T16:58:10Z</time>
      </trkpt>
      <trkpt lat="49.52222" lon="-1.5353">
        <ele>66.5</ele>
        <time>2022-02-03T16:58:17Z</time>
      </trkpt>
      <trkpt lat="49.52227" lon="-1.53534">
        <ele>66.7</ele>
        <time>2022-02-03T16:58:22Z</time>
      </trkpt>
      <trkpt lat="49.52232" lon="-1.53537">
        <ele>66.8</ele>
        <time>2022-02-03T16:58:28Z</time>
      </trkpt>
      <trkpt lat="49.52236" lon="-1.53541">
        <ele>66.9</ele>
        <time>2022-02-03T16:58:33Z</time>
      </trkpt>
      <trkpt lat="49.52241" lon="-1.53544">
        <ele>67.1</ele>
        <time>2022-02-03T16:58:38Z</time>
      </trkpt>
      <trkpt lat="49.52246" lon="-1.53549">
        <ele>67.3</ele>
        <time>2022-02-03T16:58:43Z</time>
      </trkpt>
      <trkpt lat="49.52249" lon="-1.53552">
        <ele>67.4</ele>
        <time>2022-02-03T16:58:46Z</time>
      </trkpt>
      <trkpt lat="49.52255" lon="-1.53553">
        <ele>67.5</ele>
        <time>2022-02-03T16:58:49Z</time>
      </trkpt>
      <trkpt lat="49.5226" lon="-1.53555">
        <ele>67.5</ele>
        <time>2022-02-03T16:58:52Z</time>
      </trkpt>
      <trkpt lat="49.52265" lon="-1.53556">
        <ele>67.6</ele>
        <time>2022-02-03T16:58:56Z</time>
      </trkpt>
      <trkpt lat="49.5227" lon="-1.53556">
        <ele>67.6</ele>
        <time>2022-02-03T16:58:59Z</time>
      </trkpt>
      <trkpt lat="49.52275" lon="-1.53558">
        <ele>68</ele>
        <time>2022-02-03T16:59:03Z</time>
      </trkpt>
      <trkpt lat="49.5228" lon="-1.53554">
        <ele>68.5</ele>
        <time>2022-02-03T16:59:11Z</time>
      </trkpt>
      <trkpt lat="49.52284" lon="-1.5355">
        <ele>68.6</ele>
        <time>2022-02-03T16:59:14Z</time>
      </trkpt>
      <trkpt lat="49.5229" lon="-1.53545">
        <ele>68.7</ele>
        <time>2022-02-03T16:59:18Z</time>
      </trkpt>
      <trkpt lat="49.52293" lon="-1.5354">
        <ele>68.8</ele>
        <time>2022-02-03T16:59:21Z</time>
      </trkpt>
      <trkpt lat="49.52302" lon="-1.53525">
        <ele>68.8</ele>
        <time>2022-02-03T16:59:26Z</time>
      </trkpt>
      <trkpt lat="49.52305" lon="-1.53517">
        <ele>68.7</ele>
        <time>2022-02-03T16:59:30Z</time>
      </trkpt>
      <trkpt lat="49.52308" lon="-1.53509">
        <ele>68.8</ele>
        <time>2022-02-03T16:59:36Z</time>
      </trkpt>
      <trkpt lat="49.52311" lon="-1.53503">
        <ele>69.4</ele>
        <time>2022-02-03T16:59:41Z</time>
      </trkpt>
      <trkpt lat="49.52313" lon="-1.53495">
        <ele>69.7</ele>
        <time>2022-02-03T16:59:45Z</time>
      </trkpt>
      <trkpt lat="49.52316" lon="-1.53486">
        <ele>69.9</ele>
        <time>2022-02-03T16:59:50Z</time>
      </trkpt>
      <trkpt lat="49.5232" lon="-1.5348">
        <ele>70.3</ele>
        <time>2022-02-03T16:59:54Z</time>
      </trkpt>
      <trkpt lat="49.52337" lon="-1.5345">
        <ele>70.7</ele>
        <time>2022-02-03T17:00:10Z</time>
      </trkpt>
      <trkpt lat="49.52342" lon="-1.53443">
        <ele>70.8</ele>
        <time>2022-02-03T17:00:16Z</time>
      </trkpt>
      <trkpt lat="49.52346" lon="-1.53439">
        <ele>70.8</ele>
        <time>2022-02-03T17:00:19Z</time>
      </trkpt>
      <trkpt lat="49.52349" lon="-1.53434">
        <ele>70.9</ele>
        <time>2022-02-03T17:00:22Z</time>
      </trkpt>
      <trkpt lat="49.52363" lon="-1.53416">
        <ele>70.9</ele>
        <time>2022-02-03T17:00:34Z</time>
      </trkpt>
      <trkpt lat="49.52367" lon="-1.53411">
        <ele>70.9</ele>
        <time>2022-02-03T17:00:38Z</time>
      </trkpt>
      <trkpt lat="49.52371" lon="-1.53405">
        <ele>70.9</ele>
        <time>2022-02-03T17:00:42Z</time>
      </trkpt>
      <trkpt lat="49.52375" lon="-1.53399">
        <ele>71</ele>
        <time>2022-02-03T17:00:45Z</time>
      </trkpt>
      <trkpt lat="49.52378" lon="-1.53394">
        <ele>71</ele>
        <time>2022-02-03T17:00:49Z</time>
      </trkpt>
      <trkpt lat="49.52382" lon="-1.53389">
        <ele>70.8</ele>
        <time>2022-02-03T17:00:53Z</time>
      </trkpt>
      <trkpt lat="49.52387" lon="-1.53386">
        <ele>71.9</ele>
        <time>2022-02-03T17:01:05Z</time>
      </trkpt>
      <trkpt lat="49.52391" lon="-1.53382">
        <ele>71.8</ele>
        <time>2022-02-03T17:01:11Z</time>
      </trkpt>
      <trkpt lat="49.52396" lon="-1.53375">
        <ele>71.6</ele>
        <time>2022-02-03T17:01:15Z</time>
      </trkpt>
      <trkpt lat="49.524" lon="-1.53369">
        <ele>71.5</ele>
        <time>2022-02-03T17:01:18Z</time>
      </trkpt>
      <trkpt lat="49.52402" lon="-1.53364">
        <ele>71.4</ele>
        <time>2022-02-03T17:01:21Z</time>
      </trkpt>
      <trkpt lat="49.52407" lon="-1.53357">
        <ele>71.2</ele>
        <time>2022-02-03T17:01:25Z</time>
      </trkpt>
      <trkpt lat="49.52412" lon="-1.53348">
        <ele>70.7</ele>
        <time>2022-02-03T17:01:30Z</time>
      </trkpt>
      <trkpt lat="49.52415" lon="-1.53342">
        <ele>70.6</ele>
        <time>2022-02-03T17:01:34Z</time>
      </trkpt>
      <trkpt lat="49.52418" lon="-1.53337">
        <ele>70.9</ele>
        <time>2022-02-03T17:01:37Z</time>
      </trkpt>
      <trkpt lat="49.52422" lon="-1.53332">
        <ele>71.1</ele>
        <time>2022-02-03T17:01:40Z</time>
      </trkpt>
      <trkpt lat="49.52426" lon="-1.53328">
        <ele>70.9</ele>
        <time>2022-02-03T17:01:44Z</time>
      </trkpt>
      <trkpt lat="49.5243" lon="-1.53322">
        <ele>70.8</ele>
        <time>2022-02-03T17:01:48Z</time>
      </trkpt>
      <trkpt lat="49.52434" lon="-1.53317">
        <ele>70.8</ele>
        <time>2022-02-03T17:01:52Z</time>
      </trkpt>
      <trkpt lat="49.52437" lon="-1.53311">
        <ele>70.8</ele>
        <time>2022-02-03T17:01:57Z</time>
      </trkpt>
      <trkpt lat="49.5244" lon="-1.53306">
        <ele>70.7</ele>
        <time>2022-02-03T17:02:00Z</time>
      </trkpt>
      <trkpt lat="49.52443" lon="-1.53299">
        <ele>70.6</ele>
        <time>2022-02-03T17:02:05Z</time>
      </trkpt>
      <trkpt lat="49.52446" lon="-1.53292">
        <ele>70.6</ele>
        <time>2022-02-03T17:02:10Z</time>
      </trkpt>
      <trkpt lat="49.5245" lon="-1.53289">
        <ele>70.8</ele>
        <time>2022-02-03T17:02:20Z</time>
      </trkpt>
      <trkpt lat="49.52455" lon="-1.53284">
        <ele>70.9</ele>
        <time>2022-02-03T17:02:24Z</time>
      </trkpt>
      <trkpt lat="49.52459" lon="-1.53277">
        <ele>70.8</ele>
        <time>2022-02-03T17:02:27Z</time>
      </trkpt>
      <trkpt lat="49.52464" lon="-1.5327">
        <ele>70.7</ele>
        <time>2022-02-03T17:02:31Z</time>
      </trkpt>
      <trkpt lat="49.52467" lon="-1.53265">
        <ele>70.7</ele>
        <time>2022-02-03T17:02:34Z</time>
      </trkpt>
      <trkpt lat="49.52471" lon="-1.53259">
        <ele>70.7</ele>
        <time>2022-02-03T17:02:38Z</time>
      </trkpt>
      <trkpt lat="49.52475" lon="-1.53255">
        <ele>70.4</ele>
        <time>2022-02-03T17:02:41Z</time>
      </trkpt>
      <trkpt lat="49.5248" lon="-1.53249">
        <ele>70.2</ele>
        <time>2022-02-03T17:02:45Z</time>
      </trkpt>
      <trkpt lat="49.52489" lon="-1.53228">
        <ele>68.9</ele>
        <time>2022-02-03T17:02:57Z</time>
      </trkpt>
      <trkpt lat="49.52492" lon="-1.53223">
        <ele>68.2</ele>
        <time>2022-02-03T17:03:00Z</time>
      </trkpt>
      <trkpt lat="49.52496" lon="-1.53217">
        <ele>67.9</ele>
        <time>2022-02-03T17:03:03Z</time>
      </trkpt>
      <trkpt lat="49.52499" lon="-1.5321">
        <ele>67.4</ele>
        <time>2022-02-03T17:03:08Z</time>
      </trkpt>
      <trkpt lat="49.52503" lon="-1.53205">
        <ele>66.8</ele>
        <time>2022-02-03T17:03:12Z</time>
      </trkpt>
      <trkpt lat="49.52508" lon="-1.53201">
        <ele>66.6</ele>
        <time>2022-02-03T17:03:16Z</time>
      </trkpt>
      <trkpt lat="49.52513" lon="-1.53199">
        <ele>66.5</ele>
        <time>2022-02-03T17:03:20Z</time>
      </trkpt>
      <trkpt lat="49.52519" lon="-1.53201">
        <ele>66.5</ele>
        <time>2022-02-03T17:03:25Z</time>
      </trkpt>
      <trkpt lat="49.52524" lon="-1.532">
        <ele>68</ele>
        <time>2022-02-03T17:03:37Z</time>
      </trkpt>
      <trkpt lat="49.52529" lon="-1.53202">
        <ele>68.1</ele>
        <time>2022-02-03T17:03:40Z</time>
      </trkpt>
      <trkpt lat="49.5258" lon="-1.53234">
        <ele>69.6</ele>
        <time>2022-02-03T17:04:16Z</time>
      </trkpt>
      <trkpt lat="49.52586" lon="-1.53237">
        <ele>69.9</ele>
        <time>2022-02-03T17:04:20Z</time>
      </trkpt>
      <trkpt lat="49.5259" lon="-1.53237">
        <ele>70.3</ele>
        <time>2022-02-03T17:04:23Z</time>
      </trkpt>
      <trkpt lat="49.52595" lon="-1.53242">
        <ele>71.7</ele>
        <time>2022-02-03T17:04:33Z</time>
      </trkpt>
      <trkpt lat="49.526" lon="-1.53247">
        <ele>72</ele>
        <time>2022-02-03T17:04:37Z</time>
      </trkpt>
      <trkpt lat="49.52604" lon="-1.5325">
        <ele>72.2</ele>
        <time>2022-02-03T17:04:40Z</time>
      </trkpt>
      <trkpt lat="49.52619" lon="-1.5326">
        <ele>71.9</ele>
        <time>2022-02-03T17:04:52Z</time>
      </trkpt>
      <trkpt lat="49.52624" lon="-1.53264">
        <ele>72.2</ele>
        <time>2022-02-03T17:04:56Z</time>
      </trkpt>
      <trkpt lat="49.52629" lon="-1.53267">
        <ele>72.8</ele>
        <time>2022-02-03T17:05:00Z</time>
      </trkpt>
      <trkpt lat="49.52633" lon="-1.53271">
        <ele>73.3</ele>
        <time>2022-02-03T17:05:04Z</time>
      </trkpt>
      <trkpt lat="49.52639" lon="-1.53274">
        <ele>73.7</ele>
        <time>2022-02-03T17:05:08Z</time>
      </trkpt>
      <trkpt lat="49.52643" lon="-1.53277">
        <ele>74.3</ele>
        <time>2022-02-03T17:05:12Z</time>
      </trkpt>
      <trkpt lat="49.52648" lon="-1.53281">
        <ele>74.6</ele>
        <time>2022-02-03T17:05:16Z</time>
      </trkpt>
      <trkpt lat="49.52651" lon="-1.53285">
        <ele>74.8</ele>
        <time>2022-02-03T17:05:18Z</time>
      </trkpt>
      <trkpt lat="49.52656" lon="-1.53288">
        <ele>75.5</ele>
        <time>2022-02-03T17:05:23Z</time>
      </trkpt>
      <trkpt lat="49.52661" lon="-1.53291">
        <ele>76.2</ele>
        <time>2022-02-03T17:05:27Z</time>
      </trkpt>
      <trkpt lat="49.52678" lon="-1.53306">
        <ele>76.8</ele>
        <time>2022-02-03T17:05:40Z</time>
      </trkpt>
      <trkpt lat="49.52683" lon="-1.53309">
        <ele>76.9</ele>
        <time>2022-02-03T17:05:44Z</time>
      </trkpt>
      <trkpt lat="49.52704" lon="-1.53324">
        <ele>79.4</ele>
        <time>2022-02-03T17:06:01Z</time>
      </trkpt>
      <trkpt lat="49.5271" lon="-1.53329">
        <ele>80.1</ele>
        <time>2022-02-03T17:06:06Z</time>
      </trkpt>
      <trkpt lat="49.52714" lon="-1.53332">
        <ele>80.9</ele>
        <time>2022-02-03T17:06:10Z</time>
      </trkpt>
      <trkpt lat="49.52718" lon="-1.53335">
        <ele>81.3</ele>
        <time>2022-02-03T17:06:13Z</time>
      </trkpt>
      <trkpt lat="49.52723" lon="-1.5334">
        <ele>81.7</ele>
        <time>2022-02-03T17:06:16Z</time>
      </trkpt>
      <trkpt lat="49.52727" lon="-1.53344">
        <ele>82.5</ele>
        <time>2022-02-03T17:06:22Z</time>
      </trkpt>
      <trkpt lat="49.52731" lon="-1.53348">
        <ele>83</ele>
        <time>2022-02-03T17:06:26Z</time>
      </trkpt>
      <trkpt lat="49.52734" lon="-1.53355">
        <ele>83.8</ele>
        <time>2022-02-03T17:06:32Z</time>
      </trkpt>
      <trkpt lat="49.52738" lon="-1.53359">
        <ele>85.5</ele>
        <time>2022-02-03T17:06:45Z</time>
      </trkpt>
      <trkpt lat="49.52743" lon="-1.53365">
        <ele>85.9</ele>
        <time>2022-02-03T17:06:48Z</time>
      </trkpt>
      <trkpt lat="49.52761" lon="-1.53391">
        <ele>87.9</ele>
        <time>2022-02-03T17:07:04Z</time>
      </trkpt>
      <trkpt lat="49.52764" lon="-1.53397">
        <ele>88.8</ele>
        <time>2022-02-03T17:07:08Z</time>
      </trkpt>
      <trkpt lat="49.52767" lon="-1.53403">
        <ele>89.4</ele>
        <time>2022-02-03T17:07:11Z</time>
      </trkpt>
      <trkpt lat="49.52771" lon="-1.53409">
        <ele>89.9</ele>
        <time>2022-02-03T17:07:16Z</time>
      </trkpt>
      <trkpt lat="49.52775" lon="-1.53415">
        <ele>90.2</ele>
        <time>2022-02-03T17:07:19Z</time>
      </trkpt>
      <trkpt lat="49.5278" lon="-1.53419">
        <ele>90.5</ele>
        <time>2022-02-03T17:07:23Z</time>
      </trkpt>
      <trkpt lat="49.52785" lon="-1.5342">
        <ele>91.2</ele>
        <time>2022-02-03T17:07:26Z</time>
      </trkpt>
      <trkpt lat="49.5279" lon="-1.53423">
        <ele>92.1</ele>
        <time>2022-02-03T17:07:30Z</time>
      </trkpt>
      <trkpt lat="49.52808" lon="-1.5345">
        <ele>96.3</ele>
        <time>2022-02-03T17:07:47Z</time>
      </trkpt>
      <trkpt lat="49.52811" lon="-1.53456">
        <ele>96.7</ele>
        <time>2022-02-03T17:07:51Z</time>
      </trkpt>
      <trkpt lat="49.52814" lon="-1.53462">
        <ele>97</ele>
        <time>2022-02-03T17:07:54Z</time>
      </trkpt>
      <trkpt lat="49.52818" lon="-1.53469">
        <ele>97.4</ele>
        <time>2022-02-03T17:07:59Z</time>
      </trkpt>
      <trkpt lat="49.52822" lon="-1.53475">
        <ele>98</ele>
        <time>2022-02-03T17:08:03Z</time>
      </trkpt>
      <trkpt lat="49.52826" lon="-1.53481">
        <ele>98.9</ele>
        <time>2022-02-03T17:08:07Z</time>
      </trkpt>
      <trkpt lat="49.5283" lon="-1.53487">
        <ele>99.6</ele>
        <time>2022-02-03T17:08:11Z</time>
      </trkpt>
      <trkpt lat="49.52835" lon="-1.53488">
        <ele>100.5</ele>
        <time>2022-02-03T17:08:20Z</time>
      </trkpt>
      <trkpt lat="49.52839" lon="-1.53483">
        <ele>101.1</ele>
        <time>2022-02-03T17:08:25Z</time>
      </trkpt>
      <trkpt lat="49.52843" lon="-1.53477">
        <ele>101.8</ele>
        <time>2022-02-03T17:08:28Z</time>
      </trkpt>
      <trkpt lat="49.52845" lon="-1.5347">
        <ele>102.3</ele>
        <time>2022-02-03T17:08:31Z</time>
      </trkpt>
      <trkpt lat="49.52859" lon="-1.53441">
        <ele>103</ele>
        <time>2022-02-03T17:08:46Z</time>
      </trkpt>
      <trkpt lat="49.52862" lon="-1.53434">
        <ele>103.1</ele>
        <time>2022-02-03T17:08:50Z</time>
      </trkpt>
      <trkpt lat="49.52866" lon="-1.53428">
        <ele>103.4</ele>
        <time>2022-02-03T17:08:55Z</time>
      </trkpt>
      <trkpt lat="49.52869" lon="-1.53423">
        <ele>103.6</ele>
        <time>2022-02-03T17:08:58Z</time>
      </trkpt>
      <trkpt lat="49.52874" lon="-1.5342">
        <ele>103.5</ele>
        <time>2022-02-03T17:09:01Z</time>
      </trkpt>
      <trkpt lat="49.52879" lon="-1.53418">
        <ele>103.4</ele>
        <time>2022-02-03T17:09:05Z</time>
      </trkpt>
      <trkpt lat="49.52884" lon="-1.53422">
        <ele>103.8</ele>
        <time>2022-02-03T17:09:12Z</time>
      </trkpt>
      <trkpt lat="49.52888" lon="-1.53427">
        <ele>104.1</ele>
        <time>2022-02-03T17:09:16Z</time>
      </trkpt>
      <trkpt lat="49.52916" lon="-1.53458">
        <ele>105.7</ele>
        <time>2022-02-03T17:09:39Z</time>
      </trkpt>
      <trkpt lat="49.52921" lon="-1.53465">
        <ele>106.3</ele>
        <time>2022-02-03T17:09:44Z</time>
      </trkpt>
      <trkpt lat="49.52925" lon="-1.53469">
        <ele>106.7</ele>
        <time>2022-02-03T17:09:47Z</time>
      </trkpt>
      <trkpt lat="49.52929" lon="-1.53472">
        <ele>106.9</ele>
        <time>2022-02-03T17:09:50Z</time>
      </trkpt>
      <trkpt lat="49.52934" lon="-1.53475">
        <ele>107.3</ele>
        <time>2022-02-03T17:09:54Z</time>
      </trkpt>
      <trkpt lat="49.5294" lon="-1.53477">
        <ele>107.6</ele>
        <time>2022-02-03T17:09:58Z</time>
      </trkpt>
      <trkpt lat="49.52945" lon="-1.53478">
        <ele>108.1</ele>
        <time>2022-02-03T17:10:02Z</time>
      </trkpt>
      <trkpt lat="49.52958" lon="-1.53468">
        <ele>110.1</ele>
        <time>2022-02-03T17:10:12Z</time>
      </trkpt>
      <trkpt lat="49.52962" lon="-1.53462">
        <ele>110.3</ele>
        <time>2022-02-03T17:10:17Z</time>
      </trkpt>
      <trkpt lat="49.52966" lon="-1.53457">
        <ele>110.5</ele>
        <time>2022-02-03T17:10:20Z</time>
      </trkpt>
      <trkpt lat="49.5297" lon="-1.53454">
        <ele>110.7</ele>
        <time>2022-02-03T17:10:23Z</time>
      </trkpt>
      <trkpt lat="49.52975" lon="-1.53449">
        <ele>110.8</ele>
        <time>2022-02-03T17:10:28Z</time>
      </trkpt>
      <trkpt lat="49.52979" lon="-1.53445">
        <ele>110.8</ele>
        <time>2022-02-03T17:10:31Z</time>
      </trkpt>
      <trkpt lat="49.52984" lon="-1.53442">
        <ele>110.6</ele>
        <time>2022-02-03T17:10:34Z</time>
      </trkpt>
      <trkpt lat="49.52989" lon="-1.53442">
        <ele>110.3</ele>
        <time>2022-02-03T17:10:39Z</time>
      </trkpt>
      <trkpt lat="49.52994" lon="-1.53441">
        <ele>110.2</ele>
        <time>2022-02-03T17:10:42Z</time>
      </trkpt>
      <trkpt lat="49.52999" lon="-1.53439">
        <ele>110.2</ele>
        <time>2022-02-03T17:10:45Z</time>
      </trkpt>
      <trkpt lat="49.53003" lon="-1.53436">
        <ele>110.3</ele>
        <time>2022-02-03T17:10:49Z</time>
      </trkpt>
      <trkpt lat="49.53008" lon="-1.53433">
        <ele>110.3</ele>
        <time>2022-02-03T17:10:53Z</time>
      </trkpt>
      <trkpt lat="49.53013" lon="-1.53428">
        <ele>110.3</ele>
        <time>2022-02-03T17:10:58Z</time>
      </trkpt>
      <trkpt lat="49.53018" lon="-1.53424">
        <ele>110.3</ele>
        <time>2022-02-03T17:11:01Z</time>
      </trkpt>
      <trkpt lat="49.53029" lon="-1.53413">
        <ele>110.8</ele>
        <time>2022-02-03T17:11:11Z</time>
      </trkpt>
      <trkpt lat="49.53033" lon="-1.53411">
        <ele>111.5</ele>
        <time>2022-02-03T17:11:22Z</time>
      </trkpt>
      <trkpt lat="49.53039" lon="-1.53407">
        <ele>111.3</ele>
        <time>2022-02-03T17:11:27Z</time>
      </trkpt>
      <trkpt lat="49.53044" lon="-1.53402">
        <ele>111.2</ele>
        <time>2022-02-03T17:11:31Z</time>
      </trkpt>
      <trkpt lat="49.53048" lon="-1.53395">
        <ele>111</ele>
        <time>2022-02-03T17:11:34Z</time>
      </trkpt>
      <trkpt lat="49.53052" lon="-1.5339">
        <ele>110.6</ele>
        <time>2022-02-03T17:11:37Z</time>
      </trkpt>
      <trkpt lat="49.53057" lon="-1.53385">
        <ele>110.1</ele>
        <time>2022-02-03T17:11:41Z</time>
      </trkpt>
      <trkpt lat="49.53062" lon="-1.5338">
        <ele>109.5</ele>
        <time>2022-02-03T17:11:45Z</time>
      </trkpt>
      <trkpt lat="49.53066" lon="-1.53377">
        <ele>109.2</ele>
        <time>2022-02-03T17:11:48Z</time>
      </trkpt>
      <trkpt lat="49.5307" lon="-1.53374">
        <ele>108.9</ele>
        <time>2022-02-03T17:11:52Z</time>
      </trkpt>
      <trkpt lat="49.53075" lon="-1.53371">
        <ele>108.6</ele>
        <time>2022-02-03T17:11:56Z</time>
      </trkpt>
      <trkpt lat="49.5308" lon="-1.53369">
        <ele>108.1</ele>
        <time>2022-02-03T17:12:00Z</time>
      </trkpt>
      <trkpt lat="49.53083" lon="-1.53363">
        <ele>108</ele>
        <time>2022-02-03T17:12:03Z</time>
      </trkpt>
      <trkpt lat="49.53087" lon="-1.53357">
        <ele>108</ele>
        <time>2022-02-03T17:12:08Z</time>
      </trkpt>
      <trkpt lat="49.53091" lon="-1.53352">
        <ele>107.9</ele>
        <time>2022-02-03T17:12:11Z</time>
      </trkpt>
      <trkpt lat="49.53096" lon="-1.53348">
        <ele>107.7</ele>
        <time>2022-02-03T17:12:14Z</time>
      </trkpt>
      <trkpt lat="49.531" lon="-1.53344">
        <ele>107.4</ele>
        <time>2022-02-03T17:12:18Z</time>
      </trkpt>
      <trkpt lat="49.53105" lon="-1.53341">
        <ele>106.9</ele>
        <time>2022-02-03T17:12:27Z</time>
      </trkpt>
      <trkpt lat="49.53108" lon="-1.53337">
        <ele>106.7</ele>
        <time>2022-02-03T17:12:30Z</time>
      </trkpt>
      <trkpt lat="49.53111" lon="-1.53329">
        <ele>106.5</ele>
        <time>2022-02-03T17:12:34Z</time>
      </trkpt>
      <trkpt lat="49.53115" lon="-1.53324">
        <ele>106.3</ele>
        <time>2022-02-03T17:12:38Z</time>
      </trkpt>
      <trkpt lat="49.5312" lon="-1.5332">
        <ele>106.3</ele>
        <time>2022-02-03T17:12:41Z</time>
      </trkpt>
      <trkpt lat="49.53124" lon="-1.53317">
        <ele>106.4</ele>
        <time>2022-02-03T17:12:44Z</time>
      </trkpt>
      <trkpt lat="49.53154" lon="-1.53293">
        <ele>105</ele>
        <time>2022-02-03T17:13:06Z</time>
      </trkpt>
      <trkpt lat="49.53163" lon="-1.53287">
        <ele>104.5</ele>
        <time>2022-02-03T17:13:14Z</time>
      </trkpt>
      <trkpt lat="49.53168" lon="-1.53282">
        <ele>104</ele>
        <time>2022-02-03T17:13:18Z</time>
      </trkpt>
      <trkpt lat="49.53172" lon="-1.53278">
        <ele>103.7</ele>
        <time>2022-02-03T17:13:21Z</time>
      </trkpt>
      <trkpt lat="49.53177" lon="-1.53273">
        <ele>103.4</ele>
        <time>2022-02-03T17:13:26Z</time>
      </trkpt>
      <trkpt lat="49.53182" lon="-1.53269">
        <ele>103</ele>
        <time>2022-02-03T17:13:31Z</time>
      </trkpt>
      <trkpt lat="49.53187" lon="-1.53264">
        <ele>102.6</ele>
        <time>2022-02-03T17:13:35Z</time>
      </trkpt>
      <trkpt lat="49.53192" lon="-1.53261">
        <ele>102.3</ele>
        <time>2022-02-03T17:13:40Z</time>
      </trkpt>
      <trkpt lat="49.53197" lon="-1.53257">
        <ele>102</ele>
        <time>2022-02-03T17:13:43Z</time>
      </trkpt>
      <trkpt lat="49.53201" lon="-1.53254">
        <ele>101.6</ele>
        <time>2022-02-03T17:13:46Z</time>
      </trkpt>
      <trkpt lat="49.53205" lon="-1.53249">
        <ele>101.3</ele>
        <time>2022-02-03T17:13:51Z</time>
      </trkpt>
      <trkpt lat="49.53209" lon="-1.53245">
        <ele>101.3</ele>
        <time>2022-02-03T17:14:04Z</time>
      </trkpt>
      <trkpt lat="49.53213" lon="-1.53242">
        <ele>101.1</ele>
        <time>2022-02-03T17:14:09Z</time>
      </trkpt>
      <trkpt lat="49.53218" lon="-1.53238">
        <ele>100.8</ele>
        <time>2022-02-03T17:14:13Z</time>
      </trkpt>
      <trkpt lat="49.53222" lon="-1.53234">
        <ele>100.4</ele>
        <time>2022-02-03T17:14:16Z</time>
      </trkpt>
      <trkpt lat="49.53227" lon="-1.5323">
        <ele>100.1</ele>
        <time>2022-02-03T17:14:20Z</time>
      </trkpt>
      <trkpt lat="49.53232" lon="-1.53227">
        <ele>99.9</ele>
        <time>2022-02-03T17:14:23Z</time>
      </trkpt>
      <trkpt lat="49.53237" lon="-1.53224">
        <ele>99.6</ele>
        <time>2022-02-03T17:14:27Z</time>
      </trkpt>
      <trkpt lat="49.53241" lon="-1.53218">
        <ele>99.3</ele>
        <time>2022-02-03T17:14:32Z</time>
      </trkpt>
      <trkpt lat="49.53245" lon="-1.53214">
        <ele>99.1</ele>
        <time>2022-02-03T17:14:36Z</time>
      </trkpt>
      <trkpt lat="49.53249" lon="-1.5321">
        <ele>99</ele>
        <time>2022-02-03T17:14:40Z</time>
      </trkpt>
      <trkpt lat="49.53254" lon="-1.53205">
        <ele>98.8</ele>
        <time>2022-02-03T17:14:44Z</time>
      </trkpt>
      <trkpt lat="49.53258" lon="-1.53202">
        <ele>98.4</ele>
        <time>2022-02-03T17:14:48Z</time>
      </trkpt>
      <trkpt lat="49.53263" lon="-1.53197">
        <ele>97.8</ele>
        <time>2022-02-03T17:14:52Z</time>
      </trkpt>
      <trkpt lat="49.53268" lon="-1.53192">
        <ele>97</ele>
        <time>2022-02-03T17:14:57Z</time>
      </trkpt>
      <trkpt lat="49.53272" lon="-1.53189">
        <ele>96.5</ele>
        <time>2022-02-03T17:15:01Z</time>
      </trkpt>
      <trkpt lat="49.53275" lon="-1.53183">
        <ele>96.3</ele>
        <time>2022-02-03T17:15:06Z</time>
      </trkpt>
      <trkpt lat="49.53279" lon="-1.53179">
        <ele>96.2</ele>
        <time>2022-02-03T17:15:10Z</time>
      </trkpt>
      <trkpt lat="49.53284" lon="-1.53176">
        <ele>96</ele>
        <time>2022-02-03T17:15:14Z</time>
      </trkpt>
      <trkpt lat="49.53288" lon="-1.53172">
        <ele>95.8</ele>
        <time>2022-02-03T17:15:19Z</time>
      </trkpt>
      <trkpt lat="49.53292" lon="-1.53168">
        <ele>95.4</ele>
        <time>2022-02-03T17:15:23Z</time>
      </trkpt>
      <trkpt lat="49.53296" lon="-1.53161">
        <ele>94.9</ele>
        <time>2022-02-03T17:15:28Z</time>
      </trkpt>
      <trkpt lat="49.533" lon="-1.53164">
        <ele>94</ele>
        <time>2022-02-03T17:15:34Z</time>
      </trkpt>
      <trkpt lat="49.53304" lon="-1.53169">
        <ele>93.9</ele>
        <time>2022-02-03T17:15:39Z</time>
      </trkpt>
      <trkpt lat="49.53309" lon="-1.53173">
        <ele>94.6</ele>
        <time>2022-02-03T17:15:43Z</time>
      </trkpt>
      <trkpt lat="49.53322" lon="-1.53183">
        <ele>95.7</ele>
        <time>2022-02-03T17:15:53Z</time>
      </trkpt>
      <trkpt lat="49.53328" lon="-1.53182">
        <ele>95.8</ele>
        <time>2022-02-03T17:15:57Z</time>
      </trkpt>
      <trkpt lat="49.53333" lon="-1.53184">
        <ele>96.2</ele>
        <time>2022-02-03T17:16:07Z</time>
      </trkpt>
      <trkpt lat="49.53338" lon="-1.5319">
        <ele>96.3</ele>
        <time>2022-02-03T17:16:11Z</time>
      </trkpt>
      <trkpt lat="49.53382" lon="-1.53162">
        <ele>97.6</ele>
        <time>2022-02-03T17:16:40Z</time>
      </trkpt>
      <trkpt lat="49.53387" lon="-1.53159">
        <ele>97.5</ele>
        <time>2022-02-03T17:16:43Z</time>
      </trkpt>
      <trkpt lat="49.53413" lon="-1.5313">
        <ele>95.7</ele>
        <time>2022-02-03T17:17:06Z</time>
      </trkpt>
      <trkpt lat="49.53417" lon="-1.53126">
        <ele>95.2</ele>
        <time>2022-02-03T17:17:10Z</time>
      </trkpt>
      <trkpt lat="49.53418" lon="-1.53118">
        <ele>94.9</ele>
        <time>2022-02-03T17:17:16Z</time>
      </trkpt>
      <trkpt lat="49.5342" lon="-1.5311">
        <ele>94.5</ele>
        <time>2022-02-03T17:17:21Z</time>
      </trkpt>
      <trkpt lat="49.53413" lon="-1.5312">
        <ele>82.9</ele>
        <time>2022-02-03T17:27:40Z</time>
      </trkpt>
      <trkpt lat="49.53415" lon="-1.53127">
        <ele>85.1</ele>
        <time>2022-02-03T17:27:49Z</time>
      </trkpt>
      <trkpt lat="49.5341" lon="-1.53133">
        <ele>85.3</ele>
        <time>2022-02-03T17:27:54Z</time>
      </trkpt>
      <trkpt lat="49.53396" lon="-1.53146">
        <ele>85.8</ele>
        <time>2022-02-03T17:28:00Z</time>
      </trkpt>
      <trkpt lat="49.53391" lon="-1.53151">
        <ele>85.6</ele>
        <time>2022-02-03T17:28:04Z</time>
      </trkpt>
      <trkpt lat="49.53387" lon="-1.53154">
        <ele>85.4</ele>
        <time>2022-02-03T17:28:08Z</time>
      </trkpt>
      <trkpt lat="49.53382" lon="-1.53158">
        <ele>85.5</ele>
        <time>2022-02-03T17:28:12Z</time>
      </trkpt>
      <trkpt lat="49.53378" lon="-1.53163">
        <ele>85.7</ele>
        <time>2022-02-03T17:28:17Z</time>
      </trkpt>
      <trkpt lat="49.53373" lon="-1.53167">
        <ele>86.5</ele>
        <time>2022-02-03T17:28:22Z</time>
      </trkpt>
      <trkpt lat="49.53368" lon="-1.53172">
        <ele>87.4</ele>
        <time>2022-02-03T17:28:26Z</time>
      </trkpt>
      <trkpt lat="49.53364" lon="-1.53179">
        <ele>88.1</ele>
        <time>2022-02-03T17:28:30Z</time>
      </trkpt>
      <trkpt lat="49.5336" lon="-1.53183">
        <ele>88.7</ele>
        <time>2022-02-03T17:28:33Z</time>
      </trkpt>
      <trkpt lat="49.53356" lon="-1.53187">
        <ele>89.2</ele>
        <time>2022-02-03T17:28:37Z</time>
      </trkpt>
      <trkpt lat="49.53351" lon="-1.53192">
        <ele>89.2</ele>
        <time>2022-02-03T17:28:41Z</time>
      </trkpt>
      <trkpt lat="49.53347" lon="-1.53196">
        <ele>89</ele>
        <time>2022-02-03T17:28:44Z</time>
      </trkpt>
      <trkpt lat="49.53335" lon="-1.53236">
        <ele>88.9</ele>
        <time>2022-02-03T17:29:08Z</time>
      </trkpt>
      <trkpt lat="49.53338" lon="-1.53244">
        <ele>89.1</ele>
        <time>2022-02-03T17:29:12Z</time>
      </trkpt>
      <trkpt lat="49.53343" lon="-1.5325">
        <ele>89.3</ele>
        <time>2022-02-03T17:29:17Z</time>
      </trkpt>
      <trkpt lat="49.53349" lon="-1.53255">
        <ele>88.9</ele>
        <time>2022-02-03T17:29:21Z</time>
      </trkpt>
      <trkpt lat="49.53354" lon="-1.53257">
        <ele>88.4</ele>
        <time>2022-02-03T17:29:24Z</time>
      </trkpt>
      <trkpt lat="49.53363" lon="-1.53261">
        <ele>87.4</ele>
        <time>2022-02-03T17:29:30Z</time>
      </trkpt>
      <trkpt lat="49.53375" lon="-1.53271">
        <ele>87.9</ele>
        <time>2022-02-03T17:29:37Z</time>
      </trkpt>
      <trkpt lat="49.53386" lon="-1.53282">
        <ele>89.3</ele>
        <time>2022-02-03T17:29:46Z</time>
      </trkpt>
      <trkpt lat="49.53389" lon="-1.53288">
        <ele>89</ele>
        <time>2022-02-03T17:29:55Z</time>
      </trkpt>
      <trkpt lat="49.53393" lon="-1.53294">
        <ele>88.8</ele>
        <time>2022-02-03T17:29:58Z</time>
      </trkpt>
      <trkpt lat="49.534" lon="-1.53304">
        <ele>88.4</ele>
        <time>2022-02-03T17:30:05Z</time>
      </trkpt>
      <trkpt lat="49.53403" lon="-1.53312">
        <ele>88.5</ele>
        <time>2022-02-03T17:30:14Z</time>
      </trkpt>
      <trkpt lat="49.53406" lon="-1.53316">
        <ele>88.3</ele>
        <time>2022-02-03T17:30:16Z</time>
      </trkpt>
      <trkpt lat="49.53411" lon="-1.53321">
        <ele>88.1</ele>
        <time>2022-02-03T17:30:20Z</time>
      </trkpt>
      <trkpt lat="49.53414" lon="-1.53329">
        <ele>87.9</ele>
        <time>2022-02-03T17:30:24Z</time>
      </trkpt>
      <trkpt lat="49.53431" lon="-1.53362">
        <ele>86.8</ele>
        <time>2022-02-03T17:30:42Z</time>
      </trkpt>
      <trkpt lat="49.53435" lon="-1.53368">
        <ele>86.1</ele>
        <time>2022-02-03T17:30:47Z</time>
      </trkpt>
      <trkpt lat="49.53441" lon="-1.53374">
        <ele>85.6</ele>
        <time>2022-02-03T17:30:51Z</time>
      </trkpt>
      <trkpt lat="49.53445" lon="-1.5338">
        <ele>85.7</ele>
        <time>2022-02-03T17:30:55Z</time>
      </trkpt>
      <trkpt lat="49.53453" lon="-1.53394">
        <ele>86.2</ele>
        <time>2022-02-03T17:31:01Z</time>
      </trkpt>
      <trkpt lat="49.53543" lon="-1.53546">
        <ele>78.9</ele>
        <time>2022-02-03T17:31:51Z</time>
      </trkpt>
      <trkpt lat="49.53543" lon="-1.53553">
        <ele>78.8</ele>
        <time>2022-02-03T17:32:00Z</time>
      </trkpt>
      <trkpt lat="49.53546" lon="-1.53559">
        <ele>78.5</ele>
        <time>2022-02-03T17:32:02Z</time>
      </trkpt>
      <trkpt lat="49.5355" lon="-1.53566">
        <ele>78</ele>
        <time>2022-02-03T17:32:06Z</time>
      </trkpt>
      <trkpt lat="49.53553" lon="-1.53573">
        <ele>77.6</ele>
        <time>2022-02-03T17:32:09Z</time>
      </trkpt>
      <trkpt lat="49.53555" lon="-1.53579">
        <ele>76.8</ele>
        <time>2022-02-03T17:32:13Z</time>
      </trkpt>
      <trkpt lat="49.53559" lon="-1.53586">
        <ele>75.9</ele>
        <time>2022-02-03T17:32:16Z</time>
      </trkpt>
      <trkpt lat="49.53564" lon="-1.53591">
        <ele>75.1</ele>
        <time>2022-02-03T17:32:19Z</time>
      </trkpt>
      <trkpt lat="49.53568" lon="-1.53596">
        <ele>74.4</ele>
        <time>2022-02-03T17:32:24Z</time>
      </trkpt>
      <trkpt lat="49.53572" lon="-1.53601">
        <ele>74</ele>
        <time>2022-02-03T17:32:27Z</time>
      </trkpt>
      <trkpt lat="49.53576" lon="-1.53607">
        <ele>73.8</ele>
        <time>2022-02-03T17:32:31Z</time>
      </trkpt>
      <trkpt lat="49.5358" lon="-1.53615">
        <ele>73.5</ele>
        <time>2022-02-03T17:32:36Z</time>
      </trkpt>
      <trkpt lat="49.53584" lon="-1.53642">
        <ele>74.2</ele>
        <time>2022-02-03T17:32:46Z</time>
      </trkpt>
      <trkpt lat="49.53586" lon="-1.53648">
        <ele>73.8</ele>
        <time>2022-02-03T17:32:49Z</time>
      </trkpt>
      <trkpt lat="49.53589" lon="-1.53656">
        <ele>72.9</ele>
        <time>2022-02-03T17:32:53Z</time>
      </trkpt>
      <trkpt lat="49.53593" lon="-1.53663">
        <ele>72.1</ele>
        <time>2022-02-03T17:32:56Z</time>
      </trkpt>
      <trkpt lat="49.53597" lon="-1.53668">
        <ele>71.8</ele>
        <time>2022-02-03T17:33:00Z</time>
      </trkpt>
      <trkpt lat="49.53599" lon="-1.53674">
        <ele>71.8</ele>
        <time>2022-02-03T17:33:04Z</time>
      </trkpt>
      <trkpt lat="49.53599" lon="-1.53683">
        <ele>72.3</ele>
        <time>2022-02-03T17:33:09Z</time>
      </trkpt>
    </trkseg>
  </trk>
</gpx>